[[{"header":{"parameterUnit":"m.s-1","parameterCategory":1,"la1":30.6,"la2":29.2853,"lo1":-89.7004,"lo2":-87.6739,"dy":0.0162,"dx":0.0183,"nx":112,"ny":82,"refTime":"2023-04-12T12:00:00:Z","depth":0,"parameterNumber":2,"parameterNumberName":"U-component_of_WINDS"},"data":[0.0,0.0,0.0,0.0,0.0,0.0,0.0,0.0,0.0,0.0,0.0,0.0,0.0,0.0,0.0,0.0,0.0,0.0,0.0,0.0,0.0,0.0,0.0,0.0,0.0,0.0,0.0,0.0,0.0,0.0,0.0,0.0,0.0,0.0,0.0,0.0,0.0,0.0,0.0,0.0,0.0,0.0,0.0,0.0,0.0,0.0,0.0,0.0,0.0,0.0,0.0,0.0,0.0,0.0,0.0,0.0,0.0,0.0,0.0,0.0,0.0,0.0,0.0,0.0,0.0,0.0,0.0,0.0,0.0,0.0,0.0,0.0,0.0,0.0,0.0,0.0,0.0,0.0,0.0,0.0,0.0,0.0,0.0,0.0,0.0,0.0,0.0,0.0,0.0,0.0,2.0684,2.1013,2.1497,2.1803,2.1803,2.1803,2.1696,2.1516,0.0,0.0,0.0,0.0,0.0,0.0,0.0,0.0,0.0,0.0,0.0,0.0,0.0,0.0,0.0,0.0,0.0,0.0,0.0,0.0,0.0,0.0,0.0,0.0,0.0,0.0,0.0,0.0,0.0,0.0,0.0,0.0,0.0,0.0,0.0,0.0,0.0,0.0,0.0,0.0,0.0,0.0,0.0,0.0,0.0,0.0,0.0,0.0,0.0,0.0,0.0,0.0,0.0,0.0,0.0,0.0,0.0,0.0,0.0,0.0,0.0,0.0,0.0,0.0,0.0,0.0,0.0,0.0,0.0,0.0,0.0,0.0,0.0,0.0,0.0,0.0,0.0,0.0,0.0,0.0,0.0,0.0,0.0,0.0,0.0,0.0,0.0,0.0,0.0,0.0,0.0,0.0,0.0,0.0,0.0,0.0,0.0,0.0,0.0,0.0,0.0,0.0,0.0,0.0,2.0809,2.1571,2.1751,2.1803,2.1803,2.1803,2.1696,2.1516,0.0,0.0,0.0,0.0,0.0,0.0,0.0,0.0,0.0,0.0,0.0,0.0,0.0,0.0,0.0,0.0,0.0,0.0,0.0,0.0,0.0,0.0,0.0,0.0,0.0,0.0,0.0,0.0,0.0,0.0,0.0,0.0,0.0,0.0,0.0,0.0,0.0,0.0,0.0,0.0,0.0,0.0,0.0,0.0,0.0,0.0,0.0,0.0,0.0,0.0,0.0,0.0,0.0,0.0,0.0,0.0,0.0,0.0,0.0,0.0,0.0,0.0,0.0,0.0,0.0,0.0,0.0,0.0,0.0,0.0,0.0,0.0,0.0,0.0,0.0,0.0,0.0,0.0,0.0,0.0,0.0,0.0,0.0,0.0,0.0,0.0,0.0,0.0,0.0,0.0,0.0,0.0,0.0,0.0,0.0,0.0,0.0,0.0,0.0,0.0,0.0,0.0,0.0,2.1829,2.2449,2.3052,2.3088,2.3088,2.3088,2.3196,2.3176,2.2978,2.2314,0.0,0.0,0.0,0.0,0.0,0.0,0.0,0.0,0.0,0.0,0.0,0.0,0.0,0.0,0.0,0.0,0.0,0.0,0.0,0.0,0.0,0.0,0.0,0.0,0.0,0.0,0.0,0.0,0.0,0.0,0.0,0.0,0.0,0.0,0.0,0.0,0.0,0.0,0.0,0.0,0.0,0.0,0.0,0.0,0.0,0.0,0.0,0.0,0.0,0.0,0.0,0.0,0.0,0.0,0.0,0.0,0.0,0.0,0.0,0.0,0.0,0.0,0.0,0.0,0.0,0.0,0.0,0.0,0.0,0.0,0.0,0.0,0.0,0.0,0.0,0.0,0.0,0.0,0.0,0.0,0.0,0.0,0.0,0.0,0.0,0.0,0.0,0.0,0.0,0.0,0.0,0.0,0.0,0.0,0.0,0.0,0.0,0.0,0.0,0.0,0.0,0.0,2.3566,2.3917,2.417,2.419,2.419,2.419,2.4393,2.4409,2.421,2.363,0.0,0.0,0.0,0.0,0.0,0.0,0.0,0.0,0.0,0.0,0.0,0.0,0.0,0.0,0.0,0.0,0.0,0.0,0.0,0.0,0.0,0.0,0.0,0.0,0.0,0.0,0.0,0.0,0.0,0.0,0.0,0.0,0.0,0.0,0.0,0.0,0.0,0.0,0.0,0.0,0.0,0.0,0.0,0.0,0.0,0.0,0.0,0.0,0.0,0.0,0.0,0.0,0.0,0.0,0.0,0.0,0.0,0.0,0.0,0.0,0.0,0.0,0.0,0.0,0.0,0.0,0.0,0.0,0.0,0.0,0.0,0.0,0.0,0.0,0.0,0.0,0.0,0.0,0.0,0.0,0.0,0.0,0.0,0.0,0.0,0.0,0.0,0.0,0.0,0.0,0.0,0.0,0.0,0.0,0.0,0.0,0.0,0.0,0.0,0.0,0.0,0.0,2.3756,2.417,2.4208,2.419,2.419,2.419,2.4393,2.4409,2.4209,2.363,0.0,0.0,0.0,0.0,0.0,0.0,0.0,0.0,0.0,0.0,0.0,0.0,0.0,0.0,0.0,0.0,0.0,0.0,0.0,0.0,0.0,0.0,0.0,0.0,0.0,0.0,0.0,0.0,0.0,0.0,0.0,0.0,0.0,0.0,0.0,0.0,0.0,0.0,0.0,0.0,0.0,0.0,0.0,0.0,0.0,0.0,0.0,0.0,0.0,0.0,0.0,0.0,0.0,0.0,0.0,0.0,0.0,0.0,0.0,0.0,0.0,0.0,0.0,0.0,0.0,0.0,0.0,0.0,0.0,0.0,0.0,0.0,0.0,0.0,0.0,0.0,0.0,0.0,0.0,0.0,0.0,0.0,0.0,0.0,0.0,0.0,0.0,0.0,0.0,0.0,0.0,0.0,0.0,0.0,0.0,0.0,0.0,0.0,0.0,0.0,0.0,0.0,2.3795,2.4094,0.0,2.419,2.419,2.419,2.4495,2.4594,2.434,0.0,0.0,0.0,0.0,0.0,0.0,0.0,0.0,0.0,0.0,0.0,0.0,0.0,0.0,0.0,0.0,0.0,0.0,0.0,0.0,0.0,0.0,0.0,0.0,0.0,0.0,0.0,0.0,0.0,0.0,0.0,0.0,0.0,0.0,0.0,0.0,0.0,0.0,0.0,0.0,0.0,0.0,0.0,0.0,0.0,0.0,0.0,0.0,0.0,0.0,0.0,0.0,0.0,0.0,0.0,0.0,0.0,0.0,0.0,0.0,0.0,0.0,0.0,0.0,0.0,0.0,0.0,0.0,0.0,0.0,0.0,0.0,0.0,0.0,0.0,0.0,0.0,0.0,0.0,0.0,0.0,0.0,0.0,0.0,0.0,0.0,0.0,0.0,0.0,0.0,0.0,0.0,0.0,0.0,0.0,0.0,0.0,0.0,0.0,0.0,0.0,0.0,2.3544,2.3876,2.4094,0.0,2.419,2.4228,2.4284,2.4607,2.47,2.4479,0.0,0.0,0.0,0.0,0.0,0.0,0.0,0.0,0.0,0.0,0.0,0.0,0.0,0.0,0.0,0.0,0.0,0.0,0.0,0.0,0.0,0.0,0.0,0.0,0.0,0.0,0.0,0.0,0.0,0.0,0.0,0.0,0.0,0.0,0.0,0.0,0.0,0.0,0.0,0.0,0.0,0.0,0.0,0.0,0.0,0.0,0.0,0.0,0.0,0.0,0.0,0.0,0.0,0.0,0.0,0.0,0.0,0.0,0.0,0.0,0.0,0.0,0.0,0.0,0.0,0.0,0.0,0.0,0.0,0.0,0.0,0.0,0.0,0.0,0.0,0.0,0.0,0.0,0.0,0.0,0.0,0.0,0.0,0.0,0.0,0.0,0.0,0.0,0.0,0.0,0.0,0.0,0.0,0.0,0.0,0.0,0.0,0.0,0.0,0.0,0.0,0.0,2.371,2.4014,2.4226,2.4226,2.4226,2.4321,2.4497,2.4704,2.4764,0.0,0.0,0.0,0.0,0.0,0.0,0.0,0.0,0.0,0.0,0.0,0.0,0.0,0.0,0.0,0.0,0.0,0.0,0.0,0.0,0.0,0.0,0.0,0.0,0.0,0.0,0.0,0.0,0.0,0.0,0.0,0.0,0.0,0.0,0.0,0.0,0.0,0.0,0.0,0.0,0.0,0.0,0.0,0.0,0.0,0.0,0.0,0.0,0.0,0.0,0.0,0.0,0.0,0.0,0.0,0.0,0.0,0.0,0.0,0.0,0.0,0.0,0.0,0.0,0.0,0.0,0.0,0.0,0.0,0.0,0.0,0.0,0.0,0.0,0.0,0.0,0.0,0.0,0.0,0.0,0.0,0.0,0.0,0.0,0.0,0.0,0.0,0.0,0.0,0.0,0.0,0.0,0.0,0.0,0.0,0.0,0.0,0.0,0.0,0.0,0.0,0.0,0.0,2.4668,2.5387,2.5897,2.5897,2.5897,2.5981,2.619,2.6376,2.6491,2.6443,0.0,0.0,0.0,0.0,0.0,0.0,0.0,0.0,0.0,0.0,0.0,0.0,0.0,0.0,0.0,0.0,0.0,0.0,0.0,0.0,0.0,0.0,0.0,0.0,0.0,0.0,0.0,0.0,0.0,0.0,0.0,0.0,0.0,0.0,0.0,0.0,0.0,0.0,0.0,0.0,0.0,0.0,0.0,0.0,0.0,0.0,0.0,0.0,0.0,0.0,0.0,0.0,0.0,0.0,0.0,0.0,0.0,0.0,0.0,0.0,0.0,0.0,0.0,0.0,0.0,0.0,0.0,0.0,0.0,0.0,0.0,0.0,0.0,0.0,0.0,0.0,0.0,0.0,0.0,0.0,0.0,0.0,0.0,0.0,0.0,0.0,0.0,0.0,0.0,0.0,0.0,0.0,0.0,0.0,0.0,0.0,0.0,0.0,0.0,0.0,0.0,0.0,2.5524,2.6155,2.6612,2.6612,2.668,2.6803,2.6987,2.7239,2.7361,2.7395,0.0,0.0,0.0,0.0,0.0,0.0,0.0,0.0,0.0,0.0,0.0,0.0,0.0,0.0,0.0,0.0,0.0,0.0,0.0,0.0,0.0,0.0,0.0,0.0,0.0,0.0,0.0,0.0,0.0,0.0,0.0,0.0,0.0,0.0,0.0,0.0,0.0,0.0,0.0,0.0,0.0,0.0,0.0,0.0,0.0,0.0,0.0,0.0,0.0,0.0,0.0,0.0,0.0,0.0,0.0,0.0,0.0,0.0,0.0,0.0,0.0,0.0,0.0,0.0,0.0,0.0,0.0,0.0,0.0,0.0,0.0,0.0,0.0,0.0,0.0,0.0,0.0,0.0,0.0,0.0,0.0,0.0,0.0,0.0,0.0,0.0,0.0,0.0,0.0,0.0,0.0,0.0,0.0,0.0,0.0,0.0,0.0,0.0,0.0,0.0,0.0,0.0,2.6312,2.6607,2.6833,2.6833,2.6985,2.7194,2.7415,2.7652,2.7828,2.7924,0.0,0.0,0.0,0.0,0.0,0.0,0.0,0.0,0.0,0.0,0.0,0.0,0.0,0.0,0.0,0.0,0.0,0.0,0.0,0.0,0.0,0.0,0.0,0.0,0.0,0.0,0.0,0.0,0.0,0.0,0.0,0.0,0.0,0.0,0.0,0.0,0.0,0.0,0.0,0.0,0.0,0.0,0.0,0.0,0.0,0.0,0.0,0.0,0.0,0.0,0.0,0.0,0.0,0.0,0.0,0.0,0.0,0.0,0.0,0.0,1.6965,0.0,0.0,0.0,0.0,0.0,0.0,0.0,0.0,0.0,0.0,0.0,0.0,0.0,0.0,0.0,0.0,0.0,0.0,0.0,0.0,0.0,0.0,0.0,0.0,0.0,0.0,0.0,0.0,0.0,0.0,0.0,0.0,0.0,0.0,0.0,0.0,0.0,0.0,0.0,0.0,0.0,2.7217,2.7967,2.848,2.848,2.8529,2.8711,2.9115,2.9219,2.9364,2.9646,2.906,0.0,0.0,0.0,0.0,0.0,0.0,0.0,0.0,0.0,0.0,0.0,0.0,0.0,0.0,0.0,0.0,0.0,0.0,0.0,0.0,0.0,0.0,0.0,0.0,0.0,0.0,0.0,0.0,0.0,0.0,0.0,0.0,0.0,0.0,0.0,0.0,0.0,0.0,0.0,0.0,0.0,0.0,0.0,0.0,0.0,0.0,0.0,0.0,0.0,0.0,0.0,0.0,0.0,0.0,0.0,0.0,0.0,0.0,0.0,0.0,1.7743,0.0,0.0,0.0,0.0,0.0,0.0,0.0,0.0,0.0,0.0,0.0,0.0,0.0,0.0,0.0,0.0,0.0,0.0,0.0,0.0,0.0,0.0,0.0,0.0,0.0,0.0,0.0,0.0,0.0,0.0,0.0,0.0,0.0,0.0,0.0,0.0,0.0,0.0,0.0,0.0,2.8076,2.8625,2.9044,2.9178,2.9291,2.9476,2.9813,2.9958,3.0114,3.0286,2.9864,0.0,0.0,0.0,0.0,0.0,0.0,0.0,0.0,0.0,0.0,0.0,0.0,0.0,0.0,0.0,0.0,0.0,0.0,0.0,0.0,0.0,0.0,0.0,0.0,0.0,0.0,0.0,0.0,0.0,0.0,0.0,0.0,0.0,0.0,0.0,0.0,0.0,0.0,0.0,0.0,0.0,0.0,0.0,0.0,0.0,0.0,0.0,0.0,0.0,0.0,0.0,0.0,0.0,1.8919,1.9075,1.9075,1.8995,1.9626,2.0694,1.9887,1.9863,2.0357,0.0,0.0,0.0,0.0,0.0,0.0,0.0,0.0,0.0,0.0,0.0,0.0,0.0,0.0,0.0,0.0,0.0,0.0,0.0,0.0,0.0,0.0,0.0,0.0,0.0,2.6688,2.6746,0.0,0.0,0.0,0.0,0.0,0.0,0.0,0.0,0.0,0.0,0.0,0.0,2.8737,2.8881,2.9089,2.931,2.9514,2.9731,2.9939,3.0182,3.0355,3.0398,3.0349,2.9953,0.0,0.0,0.0,0.0,0.0,0.0,0.0,0.0,0.0,0.0,0.0,0.0,0.0,0.0,0.0,0.0,0.0,0.0,0.0,0.0,0.0,0.0,0.0,0.0,0.0,0.0,0.0,0.0,0.0,0.0,0.0,0.0,1.567,1.5768,0.0,0.0,0.0,0.0,0.0,0.0,0.0,0.0,0.0,0.0,0.0,0.0,0.0,1.7738,1.7861,1.9023,1.9612,1.9627,2.0768,2.1287,2.1287,2.1287,2.1591,2.216,2.2417,0.0,2.0899,2.0753,0.0,0.0,0.0,0.0,0.0,0.0,0.0,0.0,0.0,0.0,0.0,0.0,0.0,0.0,0.0,0.0,0.0,0.0,0.0,0.0,0.0,0.0,2.6649,2.7416,2.7618,2.7889,0.0,2.7803,2.6745,2.6706,2.7362,0.0,0.0,0.0,0.0,0.0,0.0,0.0,2.8785,2.8905,2.9017,2.9044,2.927,2.9532,2.9731,2.9924,3.015,3.0398,3.0398,2.9971,2.9039,2.9008,0.0,0.0,0.0,0.0,0.0,0.0,0.0,0.0,0.0,0.0,0.0,0.0,0.0,0.0,0.0,0.0,0.0,0.0,0.0,0.0,0.0,0.0,0.0,0.0,0.0,0.0,0.0,0.0,0.0,1.5558,1.5583,1.6081,1.5373,1.5004,0.0,0.0,0.0,0.0,0.0,0.0,0.0,0.0,0.0,1.8775,1.9182,1.9606,2.0002,2.0565,2.0865,2.0865,2.141,2.1695,2.1695,2.1695,2.2118,2.2801,2.2996,2.3063,2.2929,2.2598,2.2326,2.2095,0.0,0.0,0.0,0.0,2.3153,2.4172,2.3759,2.3983,0.0,0.0,0.0,0.0,0.0,0.0,0.0,0.0,0.0,0.0,0.0,0.0,0.0,2.8282,2.8599,2.8841,2.9297,2.897,2.8531,0.0,2.8538,2.866,2.855,0.0,0.0,0.0,0.0,2.9214,2.9097,2.9254,2.9437,2.9551,2.966,2.9832,3.0066,3.0169,3.0267,3.0398,3.0398,3.0225,2.9798,2.9282,2.8631,0.0,0.0,0.0,0.0,0.0,0.0,0.0,0.0,0.0,0.0,0.0,0.0,0.0,0.0,0.0,0.0,0.0,0.0,0.0,0.0,0.0,0.0,0.0,0.0,0.0,0.0,0.0,0.0,1.591,1.5899,1.6551,1.6334,1.6247,0.0,0.0,0.0,0.0,0.0,0.0,1.8004,1.8502,1.918,1.9924,2.0435,2.1015,2.1695,2.1859,2.1949,2.1949,2.2099,2.2188,2.2188,2.2188,2.2661,2.3449,2.3574,2.4107,2.4839,2.413,2.3915,2.4018,2.3498,2.3971,2.4837,2.429,2.5104,2.6417,2.5774,2.6038,2.6654,2.649,0.0,2.6385,2.6447,0.0,0.0,0.0,0.0,2.709,2.7897,2.8117,2.8287,2.8942,2.9246,2.9414,2.9532,2.9899,3.0105,0.0,2.9514,2.94,2.9339,0.0,0.0,0.0,0.0,3.0208,3.0073,3.0208,3.0406,3.0551,3.0613,3.0758,3.0951,3.102,3.1044,3.1044,3.0852,3.0737,3.0737,2.9843,2.9243,2.9001,0.0,0.0,0.0,0.0,0.0,0.0,0.0,0.0,0.0,0.0,0.0,0.0,0.0,0.0,0.0,0.0,0.0,0.0,0.0,0.0,0.0,0.0,0.0,0.0,0.0,0.0,0.0,0.0,0.0,1.7784,1.8226,0.0,0.0,0.0,0.0,1.8496,1.8535,1.8647,1.8726,1.8795,1.935,2.061,2.068,2.1012,2.1695,2.2323,2.2664,2.2679,2.3221,2.3505,2.3505,2.3505,2.3815,2.4362,2.4877,2.5427,2.587,2.4858,2.478,2.5314,2.5261,2.5651,2.6222,2.6231,2.6352,2.649,2.6536,2.6576,2.6612,2.6573,2.6469,2.634,2.653,2.6469,0.0,0.0,2.7732,2.7915,2.8741,2.892,2.9012,2.9312,2.9392,2.9494,2.9893,3.0454,3.0672,0.0,3.0182,3.0241,3.0007,0.0,3.1121,3.0828,3.1525,3.2052,3.2071,3.2071,3.2071,3.2089,3.2319,3.2466,3.2485,3.2664,3.2776,3.2776,3.2064,3.1641,3.1641,3.0782,2.9913,2.902,2.895,0.0,0.0,0.0,0.0,0.0,0.0,0.0,0.0,0.0,0.0,0.0,0.0,0.0,0.0,0.0,0.0,0.0,0.0,0.0,0.0,0.0,0.0,0.0,0.0,0.0,0.0,0.0,0.0,1.7622,1.7876,0.0,1.916,1.9362,1.9544,1.9816,1.9966,1.9867,1.9477,1.9872,2.0454,2.1335,2.1768,2.228,2.2921,2.3146,2.3266,2.3266,2.349,2.3595,2.3595,2.3595,2.4074,2.495,2.5144,2.5672,2.6437,2.605,2.6199,2.6638,2.6638,2.703,2.7664,2.7689,2.7869,2.8109,2.8132,2.8132,2.8132,2.8132,2.8109,2.8045,2.8132,2.8091,2.81,2.848,2.8576,2.865,2.892,2.8994,2.9195,2.9986,3.03,3.0658,3.1492,3.1928,3.212,3.1903,3.1804,3.1732,3.1672,3.2044,3.2182,3.1804,3.2257,3.2592,3.2466,3.2562,3.2656,3.2656,3.2732,3.2779,3.2779,3.2865,3.2891,3.2891,3.2622,3.2468,3.2468,3.1679,3.1071,3.0739,3.022,2.9786,0.0,0.0,0.0,0.0,0.0,0.0,0.0,0.0,0.0,0.0,0.0,0.0,0.0,0.0,0.0,0.0,0.0,0.0,0.0,0.0,0.0,0.0,0.0,0.0,0.0,0.0,1.8749,1.8235,1.8722,1.9346,1.9894,2.0103,2.0351,2.0664,2.078,2.0497,1.985,2.0194,2.0818,2.1649,2.2358,2.3103,2.3939,2.4163,2.4268,2.4268,2.4268,2.4268,2.4268,2.4268,2.4762,2.5647,2.5847,2.639,2.7209,2.7556,2.7904,2.8233,2.7709,2.7946,2.859,2.859,2.8773,2.8994,2.8994,2.9044,2.9134,2.9134,2.9181,2.9249,2.9249,2.9249,2.9249,2.9249,2.9434,2.9678,2.9678,2.9864,3.0265,3.1072,3.141,3.1754,3.2531,3.3042,3.3333,3.3333,3.2957,3.266,3.269,3.3056,3.3234,3.2885,3.3393,3.3703,3.3521,3.3676,3.3776,3.3776,3.3776,3.3776,3.3776,3.3763,3.3743,3.3776,3.3474,3.332,3.3333,3.2263,3.1667,3.1667,3.0923,3.0634,3.084,0.0,0.0,0.0,0.0,0.0,0.0,0.0,0.0,0.0,0.0,0.0,0.0,0.0,0.0,0.0,0.0,0.0,0.0,0.0,0.0,0.0,0.0,0.0,1.875,1.9154,1.9516,1.9691,2.0857,2.1442,2.0845,2.1332,2.1424,2.0894,2.0795,2.056,1.9926,1.9875,2.0459,2.1752,2.2408,2.3373,2.4612,2.53,2.5615,2.5615,2.5615,2.5615,2.5615,2.5615,2.594,2.6567,2.7068,2.7664,2.8312,2.923,2.9852,3.0057,2.8581,2.845,2.9067,2.9067,2.9067,2.909,2.909,2.9274,2.9487,2.9468,2.9626,2.9789,2.9789,2.9789,2.9789,2.9789,3.0391,3.1051,3.1051,3.1618,3.2257,3.2572,3.2638,3.2703,3.2929,3.3641,3.4237,3.4237,3.3564,3.2987,3.2987,3.368,3.4224,3.4141,3.4927,0.0,3.5315,3.5412,3.5493,3.5493,3.5493,3.5493,3.5493,3.5446,3.5427,3.5493,3.4653,3.4172,3.4237,3.2596,3.1661,3.1642,3.1006,3.1099,3.1946,0.0,0.0,0.0,0.0,0.0,0.0,0.0,0.0,0.0,0.0,0.0,0.0,0.0,0.0,0.0,0.0,0.0,0.0,0.0,0.0,0.0,0.0,1.7862,1.8511,1.9641,2.0254,1.983,2.0086,2.0468,2.0766,2.0492,2.067,2.1376,2.1028,2.1116,2.188,2.1893,2.2495,2.3826,2.4075,2.453,2.5345,2.5525,2.5615,2.5615,2.5615,2.5615,2.5615,2.5615,2.6153,2.7084,2.7253,2.7882,2.8831,2.9369,2.9852,3.0194,3.0127,3.035,3.0742,3.0742,3.0742,3.0772,3.095,3.1083,3.1171,3.1374,3.1468,3.1504,3.1504,3.1504,3.1504,3.1504,3.1674,3.1882,3.1882,3.2033,3.2409,3.3258,3.3459,3.3712,3.4581,3.4968,3.5141,3.5141,3.4949,3.4795,3.4795,3.4988,3.5128,3.5114,3.5339,0.0,3.5446,3.5493,3.5474,3.5427,3.5379,3.5364,3.5412,3.5364,3.5379,3.5493,3.5262,3.5128,3.5141,3.4122,3.3327,3.2844,3.261,3.2637,0.0,0.0,0.0,0.0,0.0,0.0,0.0,0.0,0.0,0.0,0.0,0.0,0.0,0.0,0.0,0.0,0.0,0.0,0.0,0.0,0.0,0.0,1.6758,1.7403,1.8437,1.987,2.0646,2.0258,2.0194,2.0245,2.0346,2.0271,2.0501,2.1226,2.1478,2.1872,2.2603,2.2972,2.3589,2.4664,2.4939,2.5394,2.6019,2.6303,2.6437,2.6437,2.6437,2.6437,2.6437,2.6695,2.7318,0.0,2.843,2.9168,3.0223,3.0663,3.1076,0.0,0.0,0.0,0.0,0.0,3.1464,3.1589,3.1756,3.195,3.2166,3.2312,3.2414,3.2496,3.2496,3.2496,3.2496,3.2496,3.2762,3.3048,3.3048,3.3315,3.3748,3.4355,3.4519,3.4702,3.5364,3.5493,3.5493,3.5493,3.5493,0.0,3.5493,3.5493,3.5493,3.5412,3.546,3.5493,3.5412,3.546,3.5493,3.5446,3.5412,3.5398,3.5446,3.5379,0.0,0.0,0.0,3.5364,3.5037,3.4593,0.0,0.0,0.0,3.3447,3.3881,0.0,0.0,0.0,3.1099,3.0741,0.0,0.0,0.0,0.0,0.0,0.0,0.0,0.0,0.0,0.0,0.0,0.0,0.0,0.0,0.0,0.0,1.6721,1.7,1.8356,1.9745,2.0701,2.0801,2.0801,2.0576,2.0039,2.0451,2.0806,2.0914,2.1927,2.2711,2.2924,0.0,0.0,0.0,0.0,2.6147,2.6811,2.7395,2.7775,2.785,2.785,2.79,2.7936,2.8424,2.8983,2.9653,3.014,3.0897,3.1861,3.2366,3.284,3.3128,3.1753,3.1401,3.1659,3.1659,3.1824,3.2083,3.2104,0.0,0.0,3.2921,3.3039,3.3199,3.3199,3.3199,3.3199,3.3199,3.3757,3.4353,3.4353,3.493,3.5493,3.5493,3.5493,3.5493,3.5493,3.5493,3.5493,3.5493,3.5493,3.5493,3.5493,3.5493,3.546,3.533,3.5412,3.546,3.533,3.5427,3.5493,3.5493,0.0,0.0,3.5493,3.5427,3.5412,3.5493,3.5523,3.524,3.4601,3.4575,3.4632,3.4757,3.4,3.4007,3.4844,3.3965,3.3546,3.3507,3.1867,3.1001,0.0,0.0,0.0,0.0,0.0,0.0,0.0,0.0,0.0,0.0,0.0,0.0,0.0,0.0,0.0,1.53,1.5993,1.6732,1.7391,1.8846,2.0035,2.0648,2.0701,2.0825,2.1117,2.1267,2.1538,2.2044,2.231,2.3191,2.4826,2.5075,2.5727,2.7006,2.714,2.7533,2.8203,2.8338,2.8667,2.919,0.0,0.0,3.0006,2.9515,2.9927,3.1013,3.084,3.1181,3.1861,3.2695,3.3302,3.3643,3.3378,3.3276,3.333,3.333,3.3524,3.378,3.406,3.4358,3.4642,3.487,3.4979,3.5007,3.5007,3.5007,0.0,3.5007,3.5122,3.5257,3.5257,3.5372,3.5493,3.5493,3.5493,3.5493,3.5493,3.5493,3.5493,3.5493,3.5493,3.5493,3.5493,3.5493,3.5493,3.546,3.5474,3.5493,3.546,3.5474,3.5493,3.5446,3.5364,3.5364,3.5412,3.5364,3.5364,3.5493,3.5551,3.5589,3.5622,3.5612,3.564,3.5737,3.5564,3.5576,3.5742,3.4861,3.4449,3.4429,3.3377,3.2534,0.0,0.0,0.0,0.0,0.0,0.0,0.0,0.0,0.0,0.0,0.0,1.2175,1.3109,0.0,1.478,1.5415,1.6105,1.6799,1.7436,1.8165,1.9149,2.031,2.0834,2.1192,2.1455,2.2056,2.2587,2.2905,2.3865,2.4931,2.594,2.6688,2.7351,2.8068,2.8412,2.8742,2.9086,2.9086,2.925,2.9579,2.9963,3.0299,3.0596,3.0894,3.1482,3.237,3.2491,3.2973,3.377,3.4467,3.4611,3.4412,3.4412,3.4156,3.3807,3.3807,3.4087,3.4467,3.4653,3.4963,3.532,3.5446,3.5493,3.5493,3.5493,3.5493,3.5493,3.5493,3.5493,3.5493,3.5493,3.5493,3.5493,3.5493,3.5493,3.5493,3.5493,3.5493,3.5493,3.5493,3.5493,3.5493,3.5493,3.5493,3.5493,3.5493,3.5493,3.5493,3.5493,3.5493,3.5493,3.546,3.5412,3.5432,3.5484,3.5489,3.5561,3.5699,3.5738,3.5813,3.5949,3.5956,3.5973,3.5996,3.5996,3.5996,3.5996,3.5566,3.5351,3.5332,3.4902,3.4023,0.0,0.0,0.0,0.0,0.0,0.0,0.0,0.0,1.1057,1.0444,1.0942,1.1848,1.3064,1.3949,1.4857,1.6013,1.6494,1.6938,1.7625,1.7874,1.8441,1.9861,2.087,2.1512,2.1794,2.2742,2.3328,2.3328,2.5149,2.6292,2.6469,2.7803,2.8613,2.8786,2.931,2.9639,2.9759,2.9759,2.9819,2.9968,3.0683,3.1067,3.1205,3.2236,3.3061,3.3731,3.4224,3.4959,3.5774,3.6131,3.5899,3.5247,3.5247,3.4881,3.4318,3.4005,3.4232,3.4694,3.4754,3.5088,3.5493,3.5493,3.5493,3.5493,3.5493,3.5493,3.5493,3.5526,3.5526,3.5526,3.5545,3.5545,3.5526,3.5545,3.5545,3.5545,3.5545,3.5545,3.5545,3.5545,3.5545,3.5526,3.5545,3.5545,3.5526,3.5493,3.5493,3.5493,3.5526,3.5526,3.5526,3.5545,3.5545,3.5572,3.5618,3.5669,3.5759,3.5886,3.5892,3.5922,3.5996,3.5996,3.5996,3.5996,3.5996,3.5996,3.5996,3.5996,3.5996,3.5996,3.5996,3.5156,0.6097,0.8783,0.8867,0.6912,0.7947,0.9372,0.0,0.0,0.9724,0.9525,1.0836,1.2367,1.3401,1.4469,1.5478,1.6505,1.6699,1.6865,1.7376,1.8042,1.8743,1.935,2.0392,2.1535,2.278,2.3059,2.3157,2.3157,2.4524,2.5652,2.637,2.7683,2.8729,2.9475,2.9549,2.9849,3.0387,3.0402,3.0717,3.1315,3.2057,3.2714,3.3275,3.3355,3.4007,3.5082,3.5349,3.5742,3.6227,3.6285,3.6229,3.6156,3.6156,3.6251,3.6205,3.471,3.4379,3.4734,3.4963,3.5239,3.5493,3.5493,3.5493,3.5493,3.5493,3.5493,3.5526,3.5584,3.5565,3.5545,3.5661,3.5641,3.5603,3.5661,3.568,3.568,3.568,3.568,3.568,3.568,3.5641,3.5622,3.568,3.5641,3.5584,3.5526,3.5493,3.5526,3.5584,3.5603,3.5622,3.568,3.568,3.5693,3.5698,3.5694,3.5766,3.59,3.5892,3.5922,3.5996,3.5996,3.5996,3.5996,3.5996,3.5996,3.5996,3.5996,3.5996,3.5996,3.5996,3.5488,0.0051,0.5701,0.9548,0.0,0.4266,0.4794,0.7638,0.8523,0.889,0.9432,1.0213,1.133,1.2813,1.4082,1.5265,0.0,1.6892,1.7539,1.7725,1.8058,1.8507,1.9222,2.0534,2.1679,2.2347,2.3508,2.4465,2.4989,2.6748,2.7923,2.8231,2.9163,2.9796,3.0118,3.0507,3.0851,3.1106,3.1106,3.124,3.1524,3.2625,3.3339,3.3633,3.4391,3.5326,3.6412,3.6772,3.7235,3.7698,3.7698,3.7422,3.7011,3.7165,3.7021,3.6628,3.5895,3.596,3.6407,3.6517,3.6725,3.6969,3.706,3.7079,3.7079,3.7126,3.7126,3.7145,3.7165,3.715,3.7142,3.7199,3.7189,3.7182,3.7221,3.7221,3.7221,3.7221,3.7221,3.7221,3.7221,3.7201,3.7024,3.6543,3.6435,3.6232,3.5699,3.5616,3.5641,3.5661,3.5662,3.566,3.5699,3.5758,3.5824,3.582,3.5852,3.59,3.5942,3.5955,3.597,3.5996,3.5996,3.5996,3.5996,3.5996,3.5996,3.5996,3.5996,3.5996,3.6016,3.6523,3.6562,-0.2199,0.2593,0.0,0.3823,0.1511,0.0982,0.4761,0.6577,0.7649,0.8487,0.9386,1.0539,1.2135,1.3768,1.5103,1.599,1.7156,1.8008,1.8008,1.8008,1.8337,1.9177,2.0331,2.133,2.2068,2.4124,2.5738,2.6353,2.8364,2.9529,2.9529,3.0321,3.0791,3.0791,3.1426,3.1796,3.1796,3.2007,3.2104,3.2089,3.3323,3.3887,3.3937,3.5369,3.6545,3.7433,3.7911,3.8378,3.8833,3.8833,3.8522,3.8109,3.8275,3.8078,3.7643,3.7643,3.761,3.76,3.7672,3.7862,3.808,3.8157,3.8221,3.824,3.8284,3.8295,3.8291,3.8317,3.8315,3.8311,3.8374,3.8355,3.8338,3.8375,3.8371,3.8371,3.8371,3.8371,3.8371,3.8371,3.8351,3.8137,3.7533,3.7401,3.7175,3.6598,3.6493,3.6318,3.5809,3.5763,3.5788,3.5788,3.5873,3.5921,3.5921,3.5974,3.5996,3.5996,3.5996,3.5996,3.5996,3.5996,3.5996,3.5996,3.623,3.6367,3.6367,3.6601,3.6719,3.6738,3.7363,3.7656,0.3322,0.129,-0.0166,0.1123,0.0759,0.0067,0.0206,0.3103,0.5848,0.6086,0.8408,1.0671,1.1642,1.3674,1.55,1.6401,1.7354,1.8008,1.8008,1.8008,1.8337,1.9177,1.9365,2.026,0.0,2.4891,2.6353,2.641,2.8268,2.9435,2.9435,3.0689,3.1437,3.1437,3.2145,3.2547,3.2547,3.3182,3.3531,3.3531,3.4235,3.4576,3.4624,3.6353,3.7433,3.7911,3.8446,3.8826,3.9099,3.9099,3.9264,3.9538,3.9538,3.9719,4.0005,4.0005,3.8975,3.7637,3.7894,3.8065,3.819,3.8209,3.8244,3.8305,3.8305,3.8305,3.8307,3.8382,3.8354,3.8344,3.8549,3.8481,3.8427,3.8559,3.8594,3.8594,3.8594,3.8594,3.8594,3.8594,3.8496,3.843,3.8523,3.8439,3.84,3.8498,3.8507,3.7877,3.6119,3.5955,3.5996,3.5996,3.5996,3.5996,3.5996,3.5996,3.5996,3.5996,3.5996,3.5996,3.5996,3.5996,3.5996,3.5996,3.6836,3.7266,3.7266,3.8105,3.8516,3.8516,3.8555,3.8555,-0.0,-0.1352,-0.2409,-0.2965,-0.3451,-0.316,-0.0555,0.1,0.2707,0.5453,0.7659,0.9595,1.1201,1.3036,1.4715,1.5848,1.6573,1.7285,1.794,1.8008,1.8337,1.9177,2.0267,0.0,0.0,0.0,0.0,2.7456,2.9092,3.0249,3.0748,3.1702,3.2216,3.2216,3.2879,3.3235,3.3235,3.3495,3.3788,3.4072,3.5105,3.5831,3.6353,3.7108,3.7731,3.8264,3.8615,3.9014,3.9414,3.9414,3.9505,3.9622,3.984,4.0002,4.0139,4.04,4.0142,3.966,3.9762,3.985,3.9927,4.0023,4.0072,4.0115,4.0203,4.022,4.0235,4.0246,4.0242,4.0244,4.0312,4.0299,4.0274,4.0311,4.0332,4.0332,4.0332,4.0332,4.0332,4.0332,4.0293,4.0095,3.9544,3.9433,3.9213,3.8673,3.86,3.8375,3.7776,3.7704,3.7734,3.7734,3.7734,3.7734,3.7734,3.7734,3.7734,3.7734,3.7734,3.7734,3.7734,3.7734,3.7734,3.7734,3.8008,3.8164,3.8164,3.8457,3.8594,3.8613,3.9199,3.9453,-0.36,-0.4356,-0.471,-0.6444,-0.6352,-0.5095,-0.2696,-0.1392,0.015,0.3249,0.5978,0.8557,1.0934,1.2788,1.4473,1.5738,1.6346,1.7022,1.8022,1.8175,1.8548,1.9607,2.1094,2.2936,0.0,0.0,0.0,2.8848,3.0087,3.1073,3.1838,3.2327,3.2695,3.2949,3.3582,3.3987,3.3987,3.4398,3.4838,3.5372,3.6115,3.69,3.7648,3.7814,3.823,3.885,3.9018,3.9349,3.9775,3.9775,3.984,3.9925,4.0157,4.0232,4.0269,4.0575,4.0728,4.0739,4.0739,4.0795,4.0889,4.0966,4.1036,4.1099,4.1162,4.1191,4.1191,4.1191,4.1191,4.1191,4.1191,4.1191,4.1191,4.1191,4.1191,4.1191,4.1191,4.1191,4.1191,4.1191,4.1191,4.1016,4.0469,4.0351,4.0176,3.9609,3.9531,3.9297,3.8672,3.8594,3.8594,3.8594,3.8594,3.8594,3.8594,3.8594,3.8594,3.8594,3.8594,3.8594,3.8594,3.8594,3.8594,3.8594,3.8906,3.9062,3.9062,3.9375,3.9531,3.9531,4.0098,4.0351,-0.7104,-0.7652,-0.7418,-0.9215,-0.7841,-0.5982,-0.5988,-0.4115,-0.1811,-0.0154,0.3649,0.7664,0.0,0.0,1.4641,1.6037,1.6481,1.7079,1.8317,1.8348,1.8891,0.0,0.0,0.0,0.0,0.0,0.0,3.0425,0.0,3.1739,3.2477,3.2586,3.2949,3.3582,3.4284,3.464,3.464,3.5812,3.6724,3.7228,3.7248,3.7683,3.8444,3.8456,3.8878,3.9622,3.9645,3.9819,4.012,4.012,4.0267,4.0489,4.0489,4.0489,4.0508,4.0658,4.0745,4.0793,4.0824,4.0893,4.1007,4.1007,4.1104,4.1191,4.1191,4.1191,4.1191,4.1191,4.1191,4.1191,4.1191,4.1191,4.1191,4.1191,4.1191,4.1191,4.1191,4.1191,4.1191,4.1191,4.1191,4.1191,4.1191,4.1191,4.1191,4.1191,4.1191,4.0605,3.8945,3.873,3.873,3.873,3.873,3.873,3.873,3.873,3.873,3.873,3.873,3.873,3.873,3.873,3.873,3.8729,3.953,3.996,3.9961,4.0781,4.1191,4.1191,4.1191,4.1191,-0.9722,-1.0932,-1.1637,-1.077,-1.0412,-0.9531,-0.6614,-0.561,-0.364,0.2044,0.4956,0.7643,0.0,0.0,0.0,1.5105,1.488,0.0,1.7715,1.7992,0.0,2.1267,0.0,2.3803,2.6739,2.7732,0.0,0.0,3.0867,3.0955,3.1739,3.2772,3.3427,3.3582,3.4752,3.5362,3.5362,3.6464,3.7248,3.772,3.8135,3.8548,3.8925,3.9175,3.9538,3.9963,4.0194,4.0319,4.0389,4.0389,4.0441,4.0489,4.0489,4.0489,4.0508,4.0716,4.0784,4.0835,4.1028,4.1121,4.1152,4.1152,4.1179,4.1191,4.1191,4.1191,4.1191,4.1191,4.1191,4.1191,4.1191,4.1191,4.1191,4.1191,4.1191,4.1191,4.1191,4.1191,4.1191,4.1191,4.1191,4.1191,4.1191,4.1191,4.1191,4.1191,4.1191,4.1035,4.0586,4.0547,4.0547,4.0547,4.0547,4.0547,4.0547,4.0547,4.0547,4.0547,4.0547,4.0547,4.0547,4.0547,4.0492,4.0386,4.0618,4.0723,4.0723,4.0937,4.1094,4.1191,4.1191,4.1191,-1.2905,-1.3718,-1.3887,-1.2538,-1.2011,-1.071,-0.6373,-0.5289,-0.3719,0.1568,0.5051,0.0,1.252,1.3029,0.0,0.0,0.0,0.0,1.8304,1.8651,1.9447,0.0,2.2889,0.0,2.7051,2.839,2.976,0.0,3.1349,3.1664,3.2407,3.3479,3.4186,3.4447,3.5224,3.581,3.6291,3.6904,3.756,3.8267,3.8676,3.9027,3.9314,3.9668,3.9983,4.0267,0.0,4.0489,4.0489,4.0489,4.0543,4.06,4.06,4.062,4.0658,4.0812,4.0886,4.0923,4.113,4.1208,4.1191,4.1191,4.1191,4.1191,4.1191,4.1191,4.1191,4.1191,4.1191,4.1191,4.1191,4.1191,4.1191,4.1191,4.1191,4.1191,4.1191,4.1191,4.1191,4.1191,4.1191,4.1191,4.1191,4.1191,4.1191,4.1191,4.1191,4.1185,4.111,4.1153,4.1191,4.1191,4.1148,4.115,4.1191,4.1152,4.1133,4.1191,4.1144,4.111,4.111,4.1057,4.0994,4.0924,4.0979,4.1003,4.0993,4.1062,4.1133,4.1191,4.1191,4.1191,-1.5945,-1.592,-1.4971,-1.4138,-1.3074,-1.0949,-0.5938,-0.4333,-0.2958,0.0759,0.0,0.9329,1.3752,1.3922,1.4063,1.6256,0.0,1.6243,1.905,1.9533,2.02,2.1868,2.3867,2.5703,2.7315,2.9194,3.0644,3.1409,3.2296,3.3024,3.3427,3.4268,3.5065,3.5766,3.581,3.6274,3.7285,3.7285,3.7773,3.8762,3.8999,3.9289,3.9668,3.9982,4.0251,4.0489,4.0508,0.0,4.0543,4.0543,4.062,4.0716,4.0718,4.0752,4.0829,4.0958,4.0985,4.1026,4.116,4.1191,4.1191,4.1191,4.1191,4.1191,4.1191,4.1191,4.1191,4.1191,4.1191,4.1191,4.1191,4.1191,4.1191,4.1191,4.1191,4.1191,4.1191,4.1188,4.1162,4.1162,4.1166,4.115,4.115,4.115,4.115,4.115,4.115,4.1105,4.099,4.1096,4.1164,4.1149,4.1042,4.1028,4.1153,4.1073,4.1055,4.1191,4.1088,4.1026,4.1039,4.0912,4.0837,4.0837,4.0945,4.0985,4.1001,4.1124,4.1187,4.1191,4.1191,4.1191,-1.7291,-1.6922,-1.598,-1.4336,-1.4235,-1.2982,-0.6614,-0.5026,0.0,0.0,0.7244,0.9282,1.3723,1.4082,1.4115,1.5372,0.0,0.0,0.0,0.0,2.083,0.0,0.0,0.0,0.0,0.0,0.0,0.0,0.0,3.3641,3.2841,3.4332,3.577,3.6904,3.6904,3.721,3.7755,3.779,3.819,3.9036,3.9072,3.9414,4.0022,4.0081,4.0251,4.0508,4.062,0.0,4.0677,4.0735,4.0754,4.0785,4.0768,4.08,4.0811,4.0949,4.0985,4.1026,4.116,4.1191,4.1191,4.1191,4.1191,4.1191,4.1191,4.1191,4.1191,4.1191,4.1191,4.1191,4.1191,4.1191,4.1191,4.1191,4.1191,4.1191,4.1191,4.1117,4.1029,4.1029,4.0946,4.087,4.087,4.087,4.087,4.087,4.087,4.0863,4.0848,4.0939,4.099,4.087,4.0843,4.0888,4.1023,4.1013,4.1055,4.1191,4.1183,4.1163,4.117,4.1138,4.107,4.0974,4.0992,4.0985,4.0985,4.1021,4.1088,4.1191,4.1191,4.1191,-1.7677,-1.7785,-1.7523,-1.5716,-1.5927,-1.4476,-0.6161,0.0,0.0,0.0,0.9813,1.0542,1.3314,1.3781,0.0,1.5059,1.5273,0.0,0.0,0.0,0.0,0.0,0.0,0.0,0.0,0.0,0.0,0.0,0.0,3.4154,3.3505,3.529,3.6596,3.7173,3.7344,3.7664,3.8154,3.8285,3.8701,3.9364,3.9552,3.9797,4.0101,4.0308,4.0468,4.062,4.0716,0.0,4.0754,4.0792,4.0829,4.0885,4.0894,4.0905,4.0929,4.1042,4.105,4.102,4.1144,4.1191,4.1191,4.1191,4.1191,4.1191,4.1191,4.1191,4.1191,4.1191,4.1191,4.1191,4.1191,4.1211,4.1182,4.1104,4.1039,4.0992,4.0992,4.0949,4.09,4.0896,4.0841,4.0788,4.0788,4.0788,4.0788,4.0788,4.0788,4.0788,4.075,4.0814,4.0829,4.0796,4.0769,4.0823,4.0981,4.0952,4.0974,4.1191,4.1133,4.1101,4.1096,4.1001,4.09,4.0842,4.0842,4.0842,4.0842,4.0885,4.0926,4.0992,4.0992,4.0992,-1.7705,-1.8464,-1.8731,-1.7205,-1.7541,-1.5573,-0.5739,-0.332,0.0,0.9862,1.1566,1.1665,1.2967,1.3541,1.4128,0.0,1.5955,1.7042,1.8355,0.0,0.0,0.0,0.0,0.0,0.0,0.0,0.0,0.0,0.0,0.0,3.4935,3.6514,3.7488,3.7596,3.7878,3.8242,3.8633,3.8867,3.9214,3.9709,3.9981,4.0177,4.0252,4.0578,4.0723,4.0737,4.0804,0.0,0.0,4.0824,4.0889,4.0964,4.0964,4.0956,4.0978,4.1103,4.1084,4.1016,4.1152,4.1191,4.1191,4.1175,4.1183,4.1191,4.1191,4.1191,4.1191,4.1172,4.1163,4.1147,4.1123,4.112,4.1089,4.0977,4.088,4.0801,4.0801,4.0781,4.0779,4.0776,4.0754,4.0735,4.0735,4.0735,4.0735,4.0735,4.0735,4.0716,4.0658,4.0658,4.0677,4.0735,4.0696,4.0735,4.0908,4.0834,4.087,4.1103,4.1027,4.0969,4.0969,4.0811,4.0712,4.0715,4.0715,4.0715,4.0715,4.0771,4.0801,4.0801,4.0801,4.0801,-1.7461,-1.8861,-1.8851,-1.788,-1.8353,-1.6391,-0.619,0.0,-0.1158,0.946,1.1216,1.1366,1.2909,1.3773,1.4526,1.5403,0.0,1.8244,0.0,0.0,0.0,0.0,0.0,0.0,0.0,0.0,0.0,0.0,0.0,0.0,3.6949,3.7801,3.8493,3.8897,3.9252,3.9443,3.9486,3.9515,3.9694,4.0061,4.0134,4.0349,4.0646,4.0739,4.0784,4.0799,4.0919,0.0,0.0,4.0927,4.0916,4.0817,4.0817,4.0818,4.0829,4.0971,4.1007,4.1016,4.1152,4.1191,4.1185,4.1059,4.1101,4.1191,4.1191,4.1191,4.1162,4.1056,4.1026,4.0997,4.0874,4.084,4.083,4.0824,4.0804,4.0815,4.0815,4.0742,4.0723,4.0696,4.062,4.0543,4.0543,4.0543,4.0543,4.0543,4.0543,4.0543,4.0508,4.0508,4.0508,4.0543,4.0508,4.0581,4.0716,4.0725,4.0752,4.0824,4.0824,4.0824,4.0824,4.0801,4.078,4.08,4.0785,4.0785,4.0785,4.08,4.0815,4.0815,4.0815,4.0815,-1.8286,-1.9929,-2.0416,-1.9517,-1.7251,-1.3623,-0.7322,0.0,0.1971,0.9158,1.0525,1.0802,1.1944,1.3283,1.4247,1.4368,0.0,0.0,1.8124,0.0,0.0,0.0,0.0,0.0,0.0,0.0,0.0,0.0,0.0,0.0,3.8292,3.882,3.9223,3.9511,3.9807,4.0,4.0075,4.0232,4.0385,4.0528,4.0551,4.0635,4.0759,4.0789,4.0794,4.0795,4.0869,0.0,0.0,4.0868,4.0844,4.079,4.079,4.0771,4.0759,4.0853,4.0851,4.0818,4.093,4.0959,4.0939,4.0898,4.0927,4.0954,4.0953,4.1013,4.1053,4.0925,4.0887,4.0877,4.0823,4.0771,4.0746,4.0727,4.0677,4.062,4.062,4.06,4.0581,4.0581,4.0543,4.0489,4.0489,4.0489,4.0489,4.0489,4.0489,4.0489,4.0489,4.0489,4.0489,4.0489,4.0489,4.0562,4.0696,4.0709,4.072,4.079,4.079,4.079,4.079,4.0752,4.0725,4.0735,4.0658,4.062,4.062,4.062,4.062,4.062,4.062,4.062,-1.729,-1.9825,-2.1432,-2.0858,-1.6842,-1.1996,0.0,0.0,0.3695,0.8763,0.9925,1.0319,1.1437,1.284,1.3909,1.4165,0.0,1.8239,1.887,1.96,0.0,0.0,0.0,0.0,0.0,0.0,0.0,0.0,0.0,0.0,3.9544,3.9802,3.9962,3.9977,4.0253,4.0419,4.052,4.0708,4.079,4.0768,4.0787,4.079,4.0764,4.0781,4.0795,4.0799,4.0788,0.0,0.0,4.0761,4.0754,4.0716,4.0716,4.0677,4.0658,4.0735,4.0742,4.0723,4.0789,4.0791,4.0791,4.0771,4.079,4.0781,4.0738,4.0817,4.0911,4.0796,4.0739,4.0716,4.0716,4.0677,4.0639,4.0639,4.0581,4.0489,4.0489,4.0489,4.0489,4.0489,4.0489,4.0489,4.0489,4.0489,4.0489,4.0489,4.0489,4.0489,4.0489,4.0489,4.0489,4.0489,4.0489,4.0543,4.0639,4.0639,4.0658,4.0716,4.0716,4.0716,4.0716,4.0677,4.0639,4.0639,4.0562,4.0489,4.0489,4.0489,4.0489,4.0489,4.0489,4.0489,-1.3575,-1.802,-2.1603,-2.1509,-1.7679,-1.2802,0.0,0.0,0.2752,0.83,0.9399,0.9917,1.1674,1.2609,1.3652,1.53,1.7592,0.0,2.0461,2.3094,0.0,0.0,0.0,0.0,0.0,0.0,0.0,0.0,0.0,0.0,4.0777,4.0798,4.0662,4.0409,4.0662,4.0793,4.0793,4.0793,4.0769,4.0703,4.0762,4.0762,4.0703,4.0764,4.0809,0.0,0.0,0.0,0.0,4.0696,4.062,4.0489,4.0489,4.0489,4.0508,4.0658,4.0696,4.0716,4.0773,4.0793,4.0793,4.0716,4.0754,4.0754,4.0562,4.0639,4.0793,4.0716,4.062,4.0489,4.0489,4.0489,4.0489,4.0489,4.0489,4.0489,4.0489,4.0489,4.0489,4.0489,4.0489,4.0489,4.0489,4.0489,4.0489,4.0489,4.0489,4.0489,4.0489,4.0489,4.0489,4.0489,4.0489,4.0489,4.0489,4.0489,4.0489,4.0489,4.0489,4.0489,4.0489,4.0489,4.0489,4.0489,4.0489,4.0489,4.0489,4.0489,4.0489,4.0489,4.0489,4.0489,-1.0615,-1.2348,-1.3008,-1.2855,-0.8593,-0.4273,-0.3641,0.164,0.6844,0.8357,0.8187,0.8678,1.1593,1.2755,1.4034,1.6418,1.9203,0.0,0.0,0.0,0.0,0.0,0.0,0.0,0.0,0.0,0.0,0.0,0.0,0.0,4.0799,4.0753,4.0703,4.0668,4.0754,4.0799,4.0798,4.0798,4.0785,4.0764,4.079,4.0789,4.0759,4.0745,4.0737,0.0,0.0,0.0,0.0,4.0562,4.0543,4.0489,4.0489,4.0489,4.0508,4.0562,4.0562,4.0581,4.06,4.06,4.06,4.0581,4.0581,4.0581,4.0508,4.062,4.0716,4.06,4.0543,4.0489,4.0489,4.0489,4.0489,4.0489,4.0489,4.0489,4.0489,4.0489,4.0489,4.0489,4.0489,4.0489,4.0489,4.0489,4.0489,4.0489,4.0489,4.0489,4.0489,4.0489,4.0489,4.0489,4.0489,4.0489,4.0489,4.0489,4.0489,4.0489,4.0489,4.0489,4.0489,4.0489,4.0489,4.0489,4.0489,4.0489,4.0489,4.0489,4.0489,4.0508,4.1104,4.1393,-0.4933,-0.7209,-0.9252,-0.9334,-0.5039,-0.1136,-0.2502,0.0,0.7046,0.6513,0.6221,0.7317,1.1567,1.2731,1.4416,1.868,2.0814,2.2595,0.0,0.0,0.0,0.0,0.0,0.0,0.0,0.0,0.0,0.0,0.0,0.0,4.0791,4.0665,4.0574,4.0568,4.0708,4.0797,4.0798,4.07,4.0681,4.0759,4.0635,4.0603,4.0696,4.0639,4.062,0.0,0.0,0.0,0.0,4.0389,4.0356,4.0339,4.0212,4.023,4.0356,4.0356,4.0406,4.0489,4.0489,4.0489,4.0489,4.0489,4.0489,4.0473,4.0372,4.0463,4.062,4.0508,4.0489,4.0489,4.0489,4.0489,4.0489,4.0489,4.0489,4.0489,4.0489,4.0489,4.0489,4.0489,4.0489,4.0489,4.0489,4.0489,4.0489,4.0489,4.0489,4.0489,4.0489,4.0489,4.0489,4.0489,4.0489,4.0489,4.0489,4.0489,4.0489,4.0489,4.0489,4.0489,4.0489,4.0489,4.0489,4.0489,4.0489,4.0489,4.0489,4.0835,4.0989,4.1008,4.1873,4.2297,0.0,-0.2826,-0.8768,-0.9327,-0.5535,-0.2129,-0.399,0.0,0.0,0.3667,0.4172,0.6342,1.1684,1.2751,1.4905,2.1368,2.228,0.0,0.0,0.0,0.0,0.0,0.0,0.0,0.0,0.0,0.0,0.0,0.0,0.0,4.0742,4.0477,4.028,4.0148,4.0516,4.0707,4.0707,4.0475,4.0458,4.0646,4.033,4.0291,4.0489,4.0473,4.0473,0.0,0.0,0.0,0.0,4.0177,4.0042,4.0022,3.9731,3.9797,4.0042,4.0042,4.0232,4.0438,4.0438,4.0438,4.0438,4.0438,4.0438,4.0389,4.0158,4.0304,4.0489,4.0489,4.0489,4.0489,4.0489,4.0489,4.0489,4.0489,4.0489,4.0489,4.0489,4.0489,4.0489,4.0489,4.0489,4.0489,4.0489,4.0489,4.0489,4.0489,4.0489,4.0489,4.0489,4.0489,4.0489,4.0489,4.0489,4.0489,4.0489,4.0489,4.0489,4.0489,4.0489,4.0489,4.0489,4.0489,4.0489,4.0489,4.0546,4.0585,4.0585,4.147,4.1893,4.1912,4.2777,4.3181,0.1089,0.0,-0.1285,-0.1198,-0.0202,0.0665,0.0,0.0,0.0,0.0,0.0,0.0,0.0,1.4147,1.6033,1.9961,2.2474,2.4401,0.0,0.0,0.0,0.0,0.0,0.0,0.0,0.0,0.0,0.0,0.0,4.0253,4.0037,3.9886,3.9754,3.9743,3.9835,3.9878,3.9878,3.9823,3.9951,4.0252,4.0158,4.0252,4.0489,4.0304,4.0195,0.0,0.0,0.0,3.98,3.9735,3.9731,3.9709,3.9622,3.9645,3.9731,3.9731,3.9757,3.9821,3.9821,3.9821,3.9821,3.9821,3.9821,3.9861,4.0042,4.0304,4.0489,4.0489,4.0489,4.0489,4.0489,4.0489,4.0489,4.0489,4.0489,4.0489,4.0489,4.0489,4.0489,4.0489,4.0489,4.0489,4.0489,4.0489,4.0489,4.0489,4.0489,4.0489,4.0489,4.0489,4.0489,4.0489,4.0489,4.0489,4.0489,4.0489,4.0489,4.0489,4.0489,4.0489,4.0489,4.0489,4.0489,4.0489,4.1143,4.1489,4.1508,4.2374,4.2797,4.2816,4.3643,4.4028,0.1389,0.169,0.191,0.1765,0.2242,0.2729,0.2603,0.0,0.0,0.0,0.0,0.0,0.0,0.0,0.0,2.1369,2.3073,0.0,0.0,0.0,0.0,0.0,0.0,0.0,0.0,0.0,0.0,0.0,0.0,3.9604,3.9701,3.9294,3.9059,3.9059,3.8691,3.8832,3.9599,3.9457,3.9552,3.988,3.9712,3.98,4.0082,3.9943,3.988,0.0,0.0,0.0,3.9599,3.9438,3.9364,3.9358,3.9242,3.9249,3.9364,3.9364,3.9481,3.9599,3.9599,3.9599,3.9576,3.9414,3.9462,3.9599,3.9622,3.9842,4.012,4.0267,4.0425,4.0438,4.0157,4.0194,4.0267,4.012,4.0082,4.0138,4.0285,4.0321,4.0356,4.0473,4.0489,4.0489,4.0489,4.0489,4.0489,4.0489,4.0489,4.0457,4.0339,4.0321,4.0267,4.0101,4.0082,4.0082,4.0082,4.0082,4.0212,4.0489,4.0489,4.0489,4.0489,4.0489,4.0681,4.1085,4.195,4.2412,4.2412,4.3239,4.3643,4.3662,4.4509,4.4893,0.2193,0.2086,0.1908,0.2036,0.3051,0.3906,0.3552,0.0,0.0,0.0,0.0,0.0,0.0,0.0,0.0,0.0,0.0,0.0,0.0,0.0,0.0,0.0,0.0,0.0,0.0,0.0,0.0,0.0,0.0,3.8692,3.9207,3.8575,3.8227,3.8227,3.7631,3.792,3.9233,3.9034,3.9115,3.9529,3.9167,3.9212,3.9599,3.9467,3.9462,3.9529,0.0,0.0,3.9432,3.9171,3.9036,3.9027,3.8773,3.8844,3.9036,3.9036,3.9205,3.9457,3.9457,3.9457,3.9408,3.9125,3.9231,3.9408,3.916,3.9289,3.9576,3.988,4.0157,4.0248,3.9735,3.9797,3.9943,3.9668,3.9599,3.9668,3.9943,4.0022,4.012,4.0389,4.0406,4.0389,4.0422,4.0406,4.0353,4.0353,4.0353,4.0285,4.0042,4.0022,3.9922,3.9622,3.9599,3.9599,3.9599,3.9645,3.9939,4.0509,4.0482,4.0515,4.0681,4.0816,4.1239,4.1989,4.2835,4.3278,4.3297,4.4105,4.4489,4.4509,4.5259,4.5586,0.2286,0.0016,-0.1514,0.2035,0.3217,0.3483,0.3436,0.0,0.0,0.0,0.0,0.0,0.0,0.0,0.0,0.0,0.0,0.0,0.0,0.0,0.0,0.0,0.0,0.0,0.0,0.0,0.0,0.0,0.0,3.7113,3.756,3.7452,3.7361,3.7361,3.7631,3.7737,3.7578,3.7925,3.8456,3.916,3.8728,3.8897,3.9576,3.8878,3.8785,3.9178,0.0,3.8833,3.8833,3.8792,3.8762,3.8762,3.8738,3.8719,3.8762,3.8762,3.8773,3.8833,3.8833,3.8833,3.8833,3.8792,3.8792,3.8873,3.9036,3.9152,3.9186,3.9238,3.9486,3.9712,3.9622,3.9645,3.9668,3.9622,3.9599,3.9622,3.9668,3.9668,3.9775,4.0081,3.9924,3.984,4.0101,3.9943,3.9735,3.9735,3.9735,3.9735,3.9668,3.9668,3.9645,3.9599,3.9599,3.9599,3.9599,3.9859,4.0226,4.0715,4.0383,4.0594,4.155,4.2316,4.2758,4.2893,4.3701,4.4124,4.4124,4.497,4.5393,4.5393,4.5528,4.5586,0.4575,0.3709,0.2694,0.2294,0.0025,-0.195,-0.1292,0.0,0.0,0.0,0.0,0.0,0.0,0.0,0.0,0.0,0.0,0.0,0.0,0.0,0.0,0.0,0.0,0.0,0.0,0.0,0.0,0.0,0.0,0.0,3.6571,3.6383,3.6236,3.6236,3.6493,3.6689,3.6764,3.6981,3.7416,3.8071,3.7871,3.8085,3.8659,3.8314,3.84,3.8855,0.0,3.8267,3.8267,3.8267,3.8267,3.83,3.8596,3.8707,3.8707,3.8707,3.8707,3.8707,3.8707,3.8707,3.8707,3.8707,3.8707,3.8719,3.8844,3.8865,3.8865,3.8865,3.9223,3.9529,3.9189,3.9223,3.9308,3.9154,3.91,3.9136,3.9308,3.9314,3.9414,3.9775,3.9709,3.9645,3.9797,3.969,3.9599,3.9599,3.9599,3.9534,3.9339,3.9314,3.9282,3.9127,3.91,3.9286,3.9733,3.9914,4.0303,4.101,4.1105,4.1358,4.1886,4.2745,4.3224,4.3224,4.4024,4.4443,4.4443,4.4865,4.5055,4.5055,4.5055,4.5055,0.6362,0.6115,0.5124,0.2049,-0.095,-0.3363,-0.4307,0.0,0.0,0.0,0.0,0.0,0.0,0.0,0.0,0.0,0.0,0.0,0.0,0.0,0.0,0.0,0.0,0.0,0.0,0.0,0.0,0.0,0.0,0.0,3.5677,3.5413,3.5284,3.5436,3.552,3.5688,3.5959,3.6088,3.6528,3.719,3.7058,3.7285,3.772,3.7614,3.7843,3.8336,3.7911,3.772,3.772,3.772,3.772,3.7755,3.8201,3.8368,3.8368,3.8368,3.8433,3.8496,3.8496,3.8578,3.8707,3.8707,3.8707,3.8707,3.8707,3.8627,3.8546,3.8658,3.8933,3.9115,3.8773,3.8855,3.8961,3.8732,3.8707,3.8762,3.8961,3.9027,3.909,3.9414,3.9432,3.9427,3.9481,3.9432,3.9402,3.9402,3.9402,3.9301,3.9054,3.9027,3.8923,3.8719,3.8872,3.9326,4.0209,4.0404,4.0807,4.159,4.2063,4.2304,4.2304,4.3139,4.3592,4.3592,4.4259,4.458,4.458,4.458,4.458,4.458,4.458,4.458,0.5973,0.2825,-0.0296,0.0621,0.4376,0.0,-0.153,0.2183,0.0,0.4531,0.0,0.0,0.0,0.0,0.0,0.0,0.0,0.0,0.0,0.0,0.0,0.0,0.0,0.0,0.0,0.0,0.0,0.0,0.0,0.0,3.4655,3.4655,3.4925,3.556,3.547,3.5194,3.4719,3.5194,3.6052,3.7173,3.6684,3.6724,3.721,3.6724,3.6803,3.7303,3.7266,3.7248,3.7248,3.7248,3.7248,3.7248,3.7285,3.7303,3.7303,3.7303,3.7578,3.7946,3.7946,3.83,3.8707,3.8707,3.8707,3.8707,3.8707,3.835,3.8065,3.8546,3.8364,3.8147,3.8578,3.8719,3.8719,3.8707,3.8707,3.8707,3.8719,3.8719,3.8803,3.9072,3.8923,3.8844,3.9099,3.8923,3.8762,3.8762,3.8762,3.875,3.8719,3.8719,3.8719,3.8707,3.9368,4.0259,4.1378,4.1889,4.23,4.2675,4.3013,4.3215,4.3215,4.4051,4.4504,4.4504,4.4561,4.458,4.458,4.458,4.458,4.458,4.458,4.458,0.7328,0.4669,0.2055,0.2342,0.4741,0.0,0.0,-0.3118,0.0992,0.3051,0.0,0.0,0.0,0.0,0.0,0.0,0.0,0.0,0.0,0.0,0.0,0.0,0.0,0.0,0.0,0.0,0.0,0.0,0.0,0.0,3.3235,3.2823,3.2914,3.37,3.4088,3.4186,3.3987,3.4186,3.4525,3.4977,3.561,3.6165,3.6684,3.6498,3.6684,3.7173,3.6843,3.6684,3.6684,3.6684,3.6684,3.6724,3.7076,3.719,3.7228,3.7542,3.7578,3.7506,3.779,3.7843,3.7756,3.7756,3.7756,3.7756,3.7756,3.7632,3.7578,3.8065,3.8065,3.8013,3.8546,3.8707,3.8707,3.8707,3.8707,3.8707,3.8707,3.8707,3.8719,3.8844,3.8762,3.8719,3.8844,3.8762,3.8707,3.8707,3.8707,3.8707,3.8707,3.8707,3.8891,3.9386,4.0616,4.1562,4.2018,4.2662,4.3088,4.3236,4.336,4.3435,4.3435,4.3732,4.3899,4.3899,4.3899,4.3899,4.3899,4.3899,4.3899,4.3899,4.3899,4.3899,0.6438,0.4908,0.3281,0.0,0.0,0.0,-0.4697,-0.382,-0.0587,0.0982,0.0,0.0,0.0,0.0,0.0,0.0,0.0,0.0,0.0,0.0,0.0,0.0,0.0,0.0,0.0,0.0,0.0,0.0,0.0,0.0,0.0,3.1372,3.1528,3.2879,3.2886,3.3029,3.3287,3.3287,3.3287,3.3287,3.464,3.5464,3.583,3.6037,3.6333,3.6666,3.6291,3.6139,3.6139,3.6139,3.6139,3.6182,3.6563,3.6706,3.6746,3.7079,3.7079,3.6981,3.7323,3.7323,3.719,3.719,3.719,3.719,3.719,3.7058,3.7058,3.7542,3.7578,3.7542,3.8083,3.8465,3.8707,3.8707,3.8707,3.8707,3.8707,3.8707,3.8707,3.8707,3.8707,3.8707,3.8707,3.8707,3.8707,3.8707,3.8707,3.8707,3.8707,3.8927,3.9478,4.0543,4.1644,4.2396,4.2653,4.3167,4.3497,4.3497,4.3497,4.3497,4.3497,4.3497,4.3497,4.3497,4.3497,4.3497,4.3497,4.3497,4.3497,4.3497,4.3497,4.3497,0.2697,0.2535,0.2068,0.0,0.0,0.0,0.0062,0.2317,0.4073,-0.1806,0.0,0.0,0.0,0.0,0.0,0.0,0.0,0.0,0.0,0.0,0.0,0.0,0.0,0.0,0.0,0.0,0.0,0.0,0.0,0.0,0.0,3.047,3.1081,3.3463,3.2118,3.1702,3.2586,3.2586,3.2586,3.2602,3.3937,3.4576,3.4624,3.5299,3.5622,3.5622,3.5622,3.5622,3.5622,3.5622,3.5622,3.5622,3.5622,3.5622,3.5622,3.5622,3.5941,3.6374,3.6374,3.6724,3.7173,3.7173,3.7173,3.7173,3.7173,3.6803,3.6498,3.7038,3.6803,3.6539,3.7076,3.7948,3.8676,3.8707,3.8707,3.8707,3.8707,3.8707,3.8707,3.8707,3.8707,3.8707,3.8707,3.8707,3.8707,3.8707,3.8707,3.8707,3.8707,3.9423,4.0524,4.2139,4.2304,4.2635,4.3424,4.3497,4.3497,4.3497,4.3497,4.3497,4.3497,4.3497,4.3497,4.3497,4.3497,4.3497,4.3497,4.3497,4.3497,4.3497,4.3497,4.3497,0.8485,0.5132,0.0,0.4932,0.0,0.0,0.0,0.2363,0.0,0.0,0.0,0.0,0.0,0.0,0.0,0.0,0.0,0.0,0.0,0.0,0.0,0.0,0.0,0.0,0.0,0.0,0.0,0.0,0.0,0.0,0.0,2.887,2.9282,3.1202,3.0808,3.097,3.1796,3.1853,3.1853,3.1853,3.2788,3.3684,3.4624,3.5299,3.5622,3.5622,3.5622,3.5622,3.5622,3.5622,3.5622,3.5622,3.5622,3.5622,3.5667,3.6011,3.6011,3.5898,3.6266,3.6249,3.6079,3.6079,3.6079,3.6079,3.6079,3.5968,3.5941,3.6498,3.6539,3.6539,3.7076,3.7414,3.7756,3.8065,3.815,3.8234,3.8627,3.8707,3.8707,3.8707,3.8707,3.8707,3.8707,3.8707,3.8707,3.8707,3.8707,3.8909,3.946,4.0744,4.1772,4.2249,4.28,4.3222,4.3461,4.3497,4.3497,4.3497,4.3497,4.3497,4.3497,4.3497,4.3497,4.3497,4.3497,4.3497,4.3497,4.3497,4.3497,4.3497,4.3497,4.3497,0.5984,0.3321,0.0,0.1965,0.1126,0.0433,0.1276,0.0,0.0,0.0,0.0,0.0,0.0,0.0,0.0,0.0,0.0,0.0,0.0,0.0,0.0,0.0,0.0,0.0,0.0,0.0,0.0,0.0,0.0,0.0,0.0,2.767,2.7986,2.9752,2.9442,2.9827,3.1029,3.1029,3.1161,3.1539,3.2272,3.3039,3.3836,3.4496,3.4958,3.5207,3.547,3.5622,3.5577,3.5299,3.5362,3.5577,3.5316,3.5362,3.5667,3.5985,3.5898,3.5667,3.5985,3.5854,3.5622,3.5622,3.5622,3.5622,3.5622,3.5622,3.5667,3.5985,3.6097,3.6182,3.6481,3.6545,3.6746,3.7452,3.7755,3.798,3.83,3.8546,3.8627,3.8415,3.8382,3.8382,3.8382,3.8382,3.8465,3.8658,3.8964,3.957,4.0708,4.1699,4.2415,4.2745,4.3204,4.3497,4.3497,4.3497,4.3497,4.3497,4.3497,4.3497,4.3497,4.3497,4.3497,4.3497,4.3497,4.3497,4.3497,4.3497,4.3497,4.3497,4.3497,4.3497,-0.0641,-0.0656,0.0,-0.4651,-0.2317,0.0,0.1636,0.1742,0.227,0.4297,0.0,0.0,0.0,0.0,0.0,0.0,0.0,0.0,0.0,0.0,0.0,0.0,0.0,0.0,0.0,0.0,0.0,0.0,0.0,0.0,0.0,2.6905,2.7229,2.8812,2.8117,2.8556,3.0269,3.0208,3.0584,3.1409,3.2104,3.2367,3.2422,3.3235,3.3937,3.4528,3.5144,3.5424,3.5362,3.4736,3.4894,3.5362,3.4783,3.4941,3.5424,3.556,3.556,3.5515,3.5577,3.5622,3.5622,3.5622,3.5622,3.5622,3.5622,3.5622,3.5622,3.5622,3.5622,3.5622,3.5622,3.5622,3.5854,3.6825,3.7433,3.779,3.7825,3.8234,3.8433,3.7946,3.7843,3.7843,3.7843,3.7913,3.8225,3.8829,3.9557,4.0551,4.2017,4.2292,4.2603,4.3283,4.3444,4.3479,4.3444,4.3479,4.3497,4.3497,4.3497,4.3497,4.3497,4.3497,4.3497,4.3497,4.3497,4.3497,4.3497,4.3497,4.3497,4.3497,4.3497,4.3497,0.6312,0.2808,0.0,0.0,-0.0712,-0.0071,0.2221,0.2757,0.3125,0.4453,0.7563,0.0,0.0,0.0,0.0,0.0,0.0,0.0,0.0,0.0,0.0,0.0,0.0,0.0,0.0,0.0,0.0,0.0,0.0,0.0,2.6782,2.6589,2.6973,2.792,2.7802,2.8556,3.0269,2.9628,2.969,0.0,3.0733,3.0793,3.0852,3.2763,3.3684,3.3836,3.3987,3.4053,3.4037,3.3887,3.3887,3.4053,3.4431,3.4382,3.4153,3.5207,3.527,3.4894,3.5424,3.5622,3.5622,3.5622,3.5622,3.5622,3.5622,3.5622,3.5622,3.5622,3.5622,3.5622,3.5622,3.5622,3.565,3.5898,3.6316,3.6825,3.7248,3.7433,3.7487,3.736,3.736,3.736,3.736,3.8187,3.924,4.0423,4.0883,4.1216,4.156,4.2194,4.2495,4.2208,4.2977,4.3321,4.2902,4.325,4.3497,4.3497,4.3497,4.3497,4.3497,4.3497,4.3497,4.3497,4.3497,4.3497,4.3497,4.3497,4.3497,4.3497,4.3497,4.3497,0.5375,0.0,0.0,-0.0372,0.0,0.0,0.255,0.3073,0.3513,0.5157,0.0,0.0,0.0,0.0,0.0,0.0,0.0,0.0,0.0,0.0,0.0,0.0,0.0,0.0,0.0,0.0,0.0,0.0,0.0,2.6533,2.6533,2.6533,2.6714,2.7095,2.7095,2.7736,2.9066,2.862,2.8812,2.969,2.969,2.969,2.9752,3.2053,3.3145,3.3145,3.3443,3.3582,3.3598,3.3235,3.3287,3.3582,3.3633,3.3633,3.3735,3.4752,3.4894,3.4688,3.5362,3.5622,3.5622,3.5622,3.5622,3.5622,3.5622,3.5622,3.5622,3.5622,3.5622,3.5622,3.5622,3.5622,3.5622,3.5622,3.6028,3.6457,3.6764,3.7038,3.7097,3.6882,3.6803,3.6926,3.7276,3.8398,3.9602,4.0708,4.0951,4.1171,4.1546,4.1976,4.2162,4.1835,4.258,4.3014,4.2732,4.3178,4.3497,4.3497,4.3497,4.3497,4.3497,4.3497,4.3497,4.3497,4.3497,4.3497,4.3497,4.3497,4.3497,4.3497,4.3497,4.3497,0.3115,0.0,0.2854,-0.1409,-0.122,0.0,0.2643,0.3081,0.3824,0.6321,0.0,0.0,0.0,0.0,0.0,0.0,0.0,0.0,0.0,0.0,0.0,0.0,0.0,0.0,0.0,0.0,0.0,0.0,0.0,2.6245,2.6245,2.6383,2.6533,2.6533,2.6533,2.6905,2.767,2.7537,2.792,2.8812,2.8812,2.8876,2.9052,3.1217,3.2185,3.2241,3.2917,3.3235,3.3166,3.2641,3.2734,3.3182,3.2788,3.2841,3.3323,3.412,3.4333,3.4333,3.5005,3.5253,3.5253,3.5253,3.5316,3.5424,3.5424,3.5515,3.5622,3.5622,3.5622,3.5622,3.5622,3.5622,3.5622,3.5622,3.5941,3.6266,3.6266,3.6603,3.6786,3.6333,3.637,3.6774,3.7724,3.8769,3.9788,4.0665,4.0729,4.0873,4.1551,4.1621,4.1621,4.1508,4.2121,4.248,4.2382,4.2903,4.3196,4.3196,4.3196,4.3196,4.3196,4.3196,4.325,4.3375,4.3444,4.3497,4.3497,4.3497,4.3497,4.3497,4.3497,4.3497,0.7619,0.0,0.1499,0.0,-0.0738,0.053,0.0,0.0,0.4206,0.0,0.0,0.0,0.0,0.0,0.0,0.0,0.0,0.0,0.0,0.0,0.0,0.0,0.0,0.0,0.0,0.0,0.0,0.0,2.4181,2.5229,2.5229,2.6025,2.6533,2.6533,2.6533,2.6905,2.767,2.704,2.7095,2.7855,2.7855,2.8233,2.9066,3.0119,3.0615,3.0674,3.1422,3.1796,3.1781,3.1682,3.1682,3.1853,3.2382,3.2272,3.1936,3.3271,3.3391,3.2933,3.3633,3.3887,3.3887,3.3887,3.4235,3.4736,3.4736,3.5161,3.5622,3.5622,3.5622,3.5622,3.5622,3.5622,3.5622,3.5622,3.565,3.5694,3.5694,3.5783,3.5766,3.5739,3.6282,3.7348,3.9168,3.9614,4.0167,4.1442,4.12,4.0874,4.1024,4.1041,4.0827,4.0385,4.1286,4.1707,4.1161,4.1707,4.2021,4.2021,4.2021,4.2021,4.2021,4.2021,4.2284,4.2788,4.325,4.3497,4.3497,4.3497,4.3497,4.3497,4.3497,4.3497,0.7162,0.3883,0.0967,0.0,-0.0675,0.0533,0.2642,0.0,0.3977,0.0,0.0,0.0,0.0,0.0,0.0,0.0,0.0,0.0,0.0,0.0,0.0,0.0,0.0,0.0,0.0,0.0,0.0,0.0,2.4031,2.5004,2.5004,2.5441,2.5955,2.6452,2.5943,2.607,2.704,2.6658,2.6658,2.704,2.704,2.7229,2.7604,2.8427,2.938,3.0329,3.0644,3.1087,3.1467,3.1029,3.1087,3.1524,3.1853,3.1796,3.164,3.268,3.2841,3.2695,3.3391,3.3582,3.3582,3.3582,3.3786,3.4037,3.4037,3.4252,3.456,3.4941,3.5052,3.5144,3.5515,3.5622,3.5622,3.5622,3.5622,3.5622,3.5622,3.5622,3.574,3.618,3.7212,3.8306,3.9204,3.9696,4.0168,4.0763,4.0625,4.0449,4.0449,4.0449,4.0368,4.0121,4.0797,4.1178,4.0903,4.1446,4.181,4.181,4.181,4.181,4.181,4.181,4.1937,4.2203,4.2752,4.3214,4.3497,4.3497,4.3497,4.3497,4.3497,4.3497,0.6806,0.4346,0.2629,0.0216,0.0224,0.1288,0.0,0.0,0.3746,0.0,0.0,0.0,0.0,0.0,0.0,0.0,0.0,0.0,0.0,0.0,0.0,0.0,0.0,0.0,0.0,0.0,0.0,0.0,2.336,2.4126,2.4253,2.4492,2.5075,2.6094,2.537,2.5441,2.6465,2.6533,2.6533,2.6533,2.6533,2.6533,2.6521,2.7351,2.8427,2.9628,2.9889,3.045,3.1161,3.0524,3.0644,3.1219,3.1409,3.1409,3.1278,3.2048,3.2327,3.2367,3.2864,3.3077,3.3077,3.3077,3.3182,3.3339,3.3339,3.3479,3.3684,3.4186,3.4479,3.4736,3.5207,3.547,3.5622,3.5622,3.5622,3.5673,3.5876,3.591,3.6197,3.7161,3.8244,3.9056,3.9242,3.9715,4.007,4.007,4.007,4.007,4.007,4.007,4.007,4.007,4.0449,4.0703,4.0703,4.1105,4.1375,4.1375,4.1375,4.1375,4.1375,4.1375,4.1402,4.1578,4.2021,4.2501,4.3069,4.3069,4.3069,4.3069,4.3069,4.316,0.8548,0.8199,0.7552,0.3271,0.2733,0.3222,0.0,0.0,0.0,0.0,0.0,0.0,0.0,0.0,0.0,0.0,0.0,0.0,0.0,0.0,0.0,0.0,0.0,0.0,0.0,0.0,0.0,0.0,2.102,2.1723,2.2157,2.3073,2.4036,2.5075,2.5016,2.5441,2.6465,2.6533,2.6533,2.6533,2.6533,2.6533,2.6521,2.7351,2.7736,2.7855,2.8684,2.9566,3.0329,3.0329,3.0329,3.045,3.1219,3.1029,3.045,3.1278,3.1582,3.1582,3.1582,3.164,3.164,3.164,3.2064,3.2641,3.2641,3.3093,3.3582,3.3633,3.4087,3.4624,3.4624,3.5098,3.5622,3.5622,3.5622,3.5825,3.6552,3.6721,3.7144,3.8599,3.8937,3.9208,3.9901,4.0054,4.007,4.007,4.007,4.007,4.007,4.007,4.007,4.007,4.0121,4.0121,4.0121,4.0171,4.0221,4.0221,4.0221,4.0221,4.0221,4.0221,4.0417,4.0949,4.0995,4.1313,4.1895,4.1895,4.1895,4.1895,4.1895,4.2203,0.8404,0.7914,0.7255,0.4582,0.3348,0.2921,0.3489,0.3315,0.0,0.0,0.0,0.0,0.0,0.0,0.0,0.0,0.0,0.0,0.0,0.0,0.0,0.0,0.0,0.0,0.0,0.0,0.0,0.0,0.0,2.1197,2.1576,2.1965,2.2765,2.4036,2.3441,2.3879,2.5511,2.6176,2.6533,2.6533,2.6533,2.6533,2.6533,2.6782,2.6905,2.6973,2.7297,2.8182,2.9442,2.8876,2.8939,2.9566,3.0389,3.0524,3.0389,3.1219,3.1482,3.1482,3.1482,3.1482,3.1482,3.1482,3.1697,3.1894,3.1894,3.2048,3.2351,3.2826,3.3145,3.3443,3.3836,3.4137,3.4415,3.4872,3.4987,3.5414,3.7103,3.7868,3.8362,3.8886,3.9377,3.9766,4.0037,4.007,4.007,4.007,4.007,4.007,4.007,4.007,4.007,4.007,4.007,4.007,4.007,4.007,4.007,4.007,4.007,4.007,4.007,4.007,4.0204,4.0368,4.0368,4.0844,4.181,4.181,4.181,4.181,4.181,4.1895,0.8749,0.8353,0.7944,0.6048,0.4841,0.4089,0.4024,0.0,0.0,0.0,0.0,0.0,0.0,0.0,0.0,0.0,0.0,0.0,0.0,0.0,0.0,0.0,0.0,0.0,0.0,0.0,0.0,0.0,0.0,0.0,2.0679,2.0843,2.1565,2.2977,2.2999,2.3672,2.5016,2.6025,2.6533,2.6533,2.6533,2.6533,2.6533,2.6533,2.6533,2.6533,2.6533,2.7284,2.8492,2.792,2.8051,2.862,2.9504,2.969,2.9566,3.0703,3.1087,3.1161,3.1409,3.1482,3.1482,3.1482,3.1482,3.1482,3.1482,3.1482,3.1582,3.212,3.2437,3.2695,3.3145,3.3618,3.4062,3.4473,3.5149,3.5974,3.7161,3.8044,3.8724,3.926,3.9749,4.007,4.007,4.007,4.007,4.007,4.007,4.007,4.007,4.007,4.007,4.007,4.007,4.007,4.007,4.007,4.007,4.007,4.007,4.007,4.007,4.007,4.007,4.007,4.007,4.0466,4.1241,4.1241,4.1241,4.1241,4.1241,4.1331,0.0,0.0,0.0,0.7762,0.7325,0.6881,0.4784,0.0,0.4919,0.0,0.0,0.0,0.0,0.0,0.0,0.0,0.0,0.0,0.0,0.0,0.0,0.0,0.0,0.0,0.0,0.0,0.0,0.0,1.8038,1.8809,1.9248,1.9678,2.0542,2.1941,2.3891,2.4933,2.4933,2.5943,2.6452,2.6452,2.6452,2.6452,2.6452,2.6465,2.6533,2.6533,2.6533,2.6905,2.767,2.767,2.767,2.7736,2.862,2.8427,2.792,2.9628,3.0269,3.0389,3.1161,3.1409,3.1409,3.1467,3.1467,3.1467,3.1482,3.1482,3.1482,3.1482,3.2007,3.2547,3.2617,3.3558,3.4548,3.458,3.6173,3.7535,3.6822,3.728,3.8206,3.9767,4.007,4.007,4.0087,4.007,4.007,4.007,4.007,4.007,4.007,4.007,4.007,4.007,4.007,4.007,4.007,4.007,4.007,4.007,4.007,4.007,4.007,4.007,4.007,4.007,4.007,4.007,4.007,4.007,4.007,4.007,4.007,4.0368,0.9936,0.0,0.0,0.0,0.0,0.0,0.6525,0.5381,0.4579,0.0,0.0,0.0,0.0,0.0,0.0,0.0,0.0,0.0,0.0,0.0,0.0,0.0,0.0,0.0,0.0,0.0,0.0,0.0,1.8046,1.8369,1.8789,1.9512,2.0259,2.0991,2.2188,2.3147,2.3891,2.4181,2.4696,2.5441,2.5441,2.5441,2.5441,2.6164,2.6533,2.6533,2.6533,2.6658,2.685,2.685,2.685,2.6905,2.7736,2.792,2.7868,2.8939,2.938,2.938,2.9628,2.969,2.9827,3.045,3.0644,3.0718,3.1351,3.1482,3.1482,3.1482,3.164,3.1902,3.2385,3.2801,3.3356,3.4317,3.5002,3.5627,3.6453,3.6786,3.7361,3.8929,3.9262,3.9437,4.002,4.007,4.007,4.007,4.007,4.007,4.007,4.007,4.007,4.007,4.007,4.007,4.007,4.007,4.007,4.007,4.007,4.007,4.007,4.007,4.007,4.007,4.007,4.007,4.007,4.007,4.007,4.007,4.007,4.0154,0.0,0.0,0.0,0.9145,0.0,0.0,0.6971,0.6111,0.5341,0.0,0.0,0.0,0.0,0.0,0.0,0.0,0.0,0.0,0.0,0.0,0.0,0.0,0.0,0.0,0.0,1.4307,1.5021,1.6088,1.6585,1.7186,1.7958,1.9058,1.9853,2.0283,2.1425,2.2253,2.285,2.3294,2.3818,2.4409,2.4791,2.5004,2.5016,2.5581,2.6094,2.6465,2.6025,2.6094,2.6533,2.6533,2.6533,2.6521,2.704,2.7229,2.7284,2.8182,2.8427,2.8492,2.8876,2.9002,2.9129,3.0011,3.0329,3.045,3.1278,3.1482,3.1482,3.1482,3.1676,3.2033,3.2422,3.2916,3.3529,3.4292,3.4967,3.5505,3.6026,3.6384,3.6964,3.8189,3.869,3.9032,3.9542,3.961,3.961,3.961,3.961,3.961,3.961,3.9901,4.007,4.007,4.007,4.007,4.007,4.007,4.007,4.007,4.007,4.007,4.007,4.007,4.007,4.007,4.007,4.007,4.007,4.007,4.007,4.007,4.007,4.007,0.0,0.0,0.0,0.0,0.8689,0.0,0.6831,0.6796,0.6701,0.5345,0.0,0.0,0.0,0.0,0.0,0.0,0.0,0.0,0.0,0.0,0.0,0.0,0.0,0.0,1.2445,1.3237,1.3745,1.389,1.4807,1.5899,1.7162,1.8489,1.9424,1.9902,2.108,2.1824,2.2027,2.2776,2.322,2.3368,2.4264,2.4636,2.4636,2.4779,2.537,2.6314,2.537,2.5581,2.6533,2.6533,2.6533,2.6533,2.6533,2.6533,2.6589,2.7284,2.7537,2.767,2.8427,2.8748,2.8876,2.9752,3.0011,3.0208,3.1087,3.1351,3.1424,3.1556,3.2063,3.2542,3.2691,3.3604,3.4502,3.4562,3.555,3.6275,3.5604,3.6006,3.6676,3.7413,3.8133,3.8674,3.8745,3.8799,3.8799,3.8799,3.8854,3.8908,3.8908,3.9542,4.002,4.007,3.9969,3.9901,3.9952,3.9901,3.9901,3.9952,3.9969,4.002,4.0087,4.007,4.007,4.007,4.007,4.007,4.007,4.007,4.007,4.007,4.007,4.007,0.0,0.0,0.0,0.0,0.0,0.0,0.8149,0.7476,0.7052,0.0,0.684,0.0,0.0,0.0,0.0,0.0,0.0,0.0,0.0,0.0,0.0,0.0,0.0,0.0,1.3382,1.36,1.4027,1.4879,1.579,1.6607,1.7162,1.8204,1.9111,1.9893,2.0141,2.0858,2.2027,2.1451,2.1527,2.2328,2.2478,2.2627,2.2627,2.3441,2.4337,2.53,2.5087,2.5581,2.6533,2.6533,2.6533,2.6533,2.6533,2.6533,2.6521,2.6658,2.6714,2.6782,2.6905,2.6973,2.7095,2.792,2.8247,2.8492,3.0072,3.0524,3.076,3.1976,3.2422,3.2766,3.3814,3.4277,3.4622,3.5175,3.5514,3.5668,3.5504,3.5619,3.5797,3.591,3.6508,3.7247,3.7921,3.8035,3.8035,3.8035,3.8525,3.8908,3.8908,3.9032,3.9368,4.002,3.8995,3.8486,3.9086,3.8596,3.8486,3.9086,3.9139,3.9437,4.007,4.007,4.007,4.007,4.007,4.007,4.007,4.007,4.007,4.007,4.007,4.007,0.0,0.0,0.0,0.8172,0.0,0.0,0.0,0.7745,0.7432,0.7822,0.7421,0.7057,0.7575,0.0,0.0,0.0,0.0,0.0,0.0,0.0,0.0,0.0,0.0,0.0,1.2952,1.3025,1.3237,1.3738,1.5084,1.6026,1.6225,1.7722,1.8936,1.958,1.9805,2.0335,2.1288,2.0867,2.0867,2.1298,2.1811,2.2027,2.2027,2.2553,2.3588,2.4933,2.448,2.5134,2.6533,2.6533,2.6533,2.6533,2.6533,2.6533,2.6533,2.6533,2.6533,2.6533,2.6533,2.6533,2.6658,2.7417,2.767,2.8051,2.9766,3.0802,3.1574,3.2288,3.2991,3.3649,3.4307,3.4726,3.507,3.5429,3.5504,3.5504,3.5504,3.5504,3.5504,3.5504,3.5782,3.629,3.71,3.7203,3.7203,3.7203,3.7541,3.7758,3.7758,3.8117,3.8486,3.8887,3.8262,3.7921,3.8302,3.83,3.845,3.8837,3.9558,3.9939,3.9956,4.0769,4.1187,4.1187,4.1187,4.1187,4.1187,4.1187,4.0798,4.007,4.007,4.007,0.0,0.0,0.0,0.0,0.0,0.8093,0.0,0.0,0.0,0.7911,0.0,0.0,0.0,0.0,0.0,0.0,0.0,0.0,0.0,0.0,0.0,0.0,0.0,0.0,0.0,1.2364,1.2384,1.2298,1.3958,1.5018,1.495,1.6812,1.8314,1.9049,1.9387,1.9878,2.0557,2.0566,2.0566,2.0644,2.1375,2.1735,2.1735,2.1735,2.285,2.4636,2.3818,2.4541,2.6245,2.6383,2.6383,2.6245,2.6383,2.6533,2.6533,2.6533,2.6533,2.6533,2.6533,2.6533,2.6589,2.7297,2.7537,2.7986,2.938,3.0838,3.2016,3.2134,3.3158,3.4233,3.4352,3.4942,3.5504,3.5504,3.5504,3.5504,3.5504,3.5504,3.5504,3.5504,3.5504,3.5668,3.6275,3.6384,3.6384,3.6384,3.6492,3.6615,3.6615,3.7144,3.7632,3.7748,3.7642,3.7603,3.778,3.8236,3.8586,3.8753,3.9882,4.0307,3.9841,4.1269,4.2055,4.2055,4.2216,4.2233,4.2055,4.2055,4.1418,4.029,4.029,4.0223,0.0,0.0,0.0,0.0,0.82,0.0,0.0,0.0,0.9002,0.9029,0.0,0.8837,0.0,0.0,0.0,0.0,0.0,0.0,0.0,0.0,0.0,0.0,0.0,0.0,0.0,1.2763,1.267,1.2358,1.3603,1.4268,1.3867,1.4991,1.6338,1.798,1.8128,1.8901,2.0557,2.0566,2.0566,2.0566,2.0712,2.0789,2.0789,2.0789,2.1821,2.3661,2.3526,2.4108,2.5229,2.6094,2.5955,2.5229,2.6164,2.6533,2.6533,2.6533,2.6533,2.6533,2.6533,2.6533,2.6521,2.6589,2.7095,2.7736,2.792,2.8964,3.0206,3.0815,3.2085,3.3396,3.3931,3.478,3.5504,3.5504,3.5504,3.5504,3.5504,3.5504,3.5504,3.5504,3.5504,3.5504,3.5619,3.5619,3.5619,3.5619,3.6165,3.6615,3.6615,3.6661,3.7024,3.769,3.7079,3.6903,3.7576,3.7597,3.7861,3.8567,3.8758,3.9172,3.9779,4.0678,4.1139,4.1139,4.193,4.193,4.1139,4.1139,4.1095,4.1085,4.1085,4.0713,0.0,0.0,0.0,0.0,0.0,0.0,0.8695,0.0,0.9229,0.0,0.0,0.0,0.0,0.0,0.0,0.0,0.9463,0.0,0.0,0.0,0.0,0.0,0.0,0.0,0.0,0.0,0.0,0.0,1.2797,1.3272,1.3665,1.4665,1.5905,1.7415,1.7741,1.8658,2.0185,2.0439,2.0566,2.0566,2.0566,2.0566,2.0566,2.0566,2.1375,2.2627,2.2627,2.3514,2.5016,2.5453,2.5734,2.5873,2.6314,2.6533,2.6533,2.6533,2.6533,2.6533,2.6533,2.6533,2.6533,2.6533,2.704,2.7736,2.8052,2.9201,3.0482,3.1089,3.204,3.2862,3.3101,3.3533,3.3973,3.4476,3.461,3.4758,3.5359,3.5504,3.5504,3.5504,3.5504,3.5504,3.5504,3.5504,3.5504,3.5504,3.5782,3.5943,3.5943,3.6277,3.6648,3.7015,3.6995,3.7136,3.7491,3.779,3.8097,3.8425,3.8872,3.9668,4.0991,4.0912,4.1086,4.1536,4.1917,4.1978,4.1598,4.1598,4.1379,4.1049,4.1094,4.1184,0.668,0.0,0.0,0.0,0.0,0.0,0.0,0.0,0.0,0.0,0.0,0.0,0.0,0.0,0.0,0.0,0.0,1.061,0.0,1.1514,0.0,0.0,0.0,0.0,0.0,0.0,0.0,1.2579,1.2483,1.268,1.3302,1.4019,1.5041,1.6366,1.7116,1.8106,1.9525,2.0265,2.0566,2.0566,2.0566,2.0566,2.0566,2.0566,2.1078,2.2027,2.2027,2.285,2.4192,2.4492,2.485,2.5276,2.5569,2.5873,2.6094,2.6383,2.6533,2.6533,2.6533,2.6533,2.6533,2.6533,2.7007,2.765,2.804,2.9164,3.0387,3.0747,3.15,3.2249,3.2249,3.2393,3.2749,3.3449,3.3602,3.3822,3.4558,3.4706,3.4773,3.5052,3.5067,3.5213,3.5424,3.5504,3.5504,3.5504,3.5669,3.5774,3.5774,3.6342,3.6746,3.6746,3.73,3.7674,3.7674,3.8287,3.8676,3.8676,3.914,4.0005,4.1213,4.0894,4.1013,4.1609,4.1869,4.1869,4.1658,4.1658,4.1355,4.0848,4.1179,4.1524,0.0,0.0,0.0,0.7694,0.0,0.0,0.0,0.0,0.9567,0.0,0.0,0.0,0.0,0.0,0.0,0.0,0.0,0.0,0.0,0.0,1.261,1.2405,0.0,0.0,0.0,0.0,1.3004,1.3411,1.3106,1.2714,1.2358,1.2378,1.3019,1.4448,1.5737,1.7097,1.8506,1.9947,2.0566,2.0566,2.0566,2.0566,2.0566,2.0566,2.1078,2.2027,2.2027,2.2038,2.2178,2.3147,2.2999,2.2253,2.322,2.4192,2.5158,2.6164,2.6533,2.6533,2.6533,2.6533,2.6533,2.6533,2.6886,2.7326,2.7339,2.8107,2.8975,2.8988,3.0106,3.1254,3.1254,3.1888,3.2593,3.2664,3.2664,3.2664,3.2678,3.2678,3.2961,3.3876,3.4027,3.4394,3.5359,3.5504,3.5504,3.5504,3.6043,3.6447,3.6447,3.7,3.7375,3.7375,3.7958,3.8362,3.8362,3.899,3.9394,3.9394,3.9409,3.9424,3.9481,4.0239,4.0675,4.0743,4.1543,4.1593,4.0743,4.0743,4.0743,4.0696,4.1682,4.1774,0.0,0.0,0.198,0.6401,0.0,0.0,0.0,0.0,0.0,0.0,0.0,0.0,0.0,0.0,0.0,0.0,0.0,0.0,0.0,0.0,1.2749,1.2698,1.2618,1.2841,0.0,0.0,0.0,1.323,1.2191,1.1732,1.2298,1.2305,1.3141,1.484,1.5914,1.7278,1.9039,2.0052,2.0566,2.0566,2.0566,2.0566,2.0566,2.0566,2.0789,2.1078,2.1078,2.1451,2.2027,2.2403,2.2702,2.2999,2.3368,2.4108,2.5004,2.537,2.5955,2.6533,2.6533,2.6533,2.6584,2.6879,2.713,2.7419,2.8147,2.8637,2.9001,2.939,2.9846,3.0279,3.0279,3.0495,3.0921,3.1536,3.1669,3.1815,3.2464,3.2593,3.2678,3.3031,3.3602,3.4095,3.4461,3.5422,3.6148,3.6148,3.6342,3.6626,3.7045,3.7659,3.8063,3.8063,3.8661,3.9065,3.9065,3.929,3.9424,3.9424,3.9424,3.9424,3.9424,3.9666,3.9864,3.9864,4.013,4.013,3.9864,3.9864,3.9864,3.9849,4.0778,4.1374,0.0294,-0.0074,0.0,0.4373,0.451,0.0,0.7749,0.0,0.0,0.0,0.0,0.0,0.0,0.0,0.0,0.0,0.0,0.0,0.0,1.3118,1.3092,1.2923,1.271,1.2866,0.0,1.26,1.2339,1.3222,1.2352,1.1909,0.0,0.0,1.2872,1.4163,1.5625,1.6983,1.8286,1.9812,2.0566,2.0566,2.0566,2.0566,2.0566,2.0566,2.0566,2.0566,2.0566,2.0934,2.1517,2.1517,2.1886,2.2489,2.2489,2.3305,2.4492,2.4862,2.5664,2.6533,2.6533,2.659,2.6816,2.7168,2.7544,2.7996,2.8712,2.9076,2.9315,2.9691,2.9792,2.9792,2.9792,2.9792,2.9934,3.0558,3.0696,3.0833,3.1476,3.1623,3.1696,3.2033,3.2773,3.3424,3.3705,3.4836,3.5868,3.644,3.6866,3.7315,3.7704,3.8332,3.8751,3.8751,3.9155,3.9424,3.9424,3.9424,3.9424,3.9424,3.9424,3.9424,3.9424,3.9424,3.9424,3.9424,3.9424,3.9424,3.9424,3.9424,3.9424,3.9409,3.999,4.0569]},{"header":{"parameterUnit":"m.s-1","parameterCategory":1,"la1":30.6,"la2":29.2853,"lo1":-89.7004,"lo2":-87.6739,"dy":0.0162,"dx":0.0183,"nx":112,"ny":82,"refTime":"2023-04-12T12:00:00:Z","depth":0,"parameterNumber":3,"parameterNumberName":"V-component_of_WINDS"},"data":[0.0,0.0,0.0,0.0,0.0,0.0,0.0,0.0,0.0,0.0,0.0,0.0,0.0,0.0,0.0,0.0,0.0,0.0,0.0,0.0,0.0,0.0,0.0,0.0,0.0,0.0,0.0,0.0,0.0,0.0,0.0,0.0,0.0,0.0,0.0,0.0,0.0,0.0,0.0,0.0,0.0,0.0,0.0,0.0,0.0,0.0,0.0,0.0,0.0,0.0,0.0,0.0,0.0,0.0,0.0,0.0,0.0,0.0,0.0,0.0,0.0,0.0,0.0,0.0,0.0,0.0,0.0,0.0,0.0,0.0,0.0,0.0,0.0,0.0,0.0,0.0,0.0,0.0,0.0,0.0,0.0,0.0,0.0,0.0,0.0,0.0,0.0,0.0,0.0,0.0,-1.0032,-0.9466,-0.8522,-0.7882,-0.7882,-0.7882,-0.8058,-0.8367,0.0,0.0,0.0,0.0,0.0,0.0,0.0,0.0,0.0,0.0,0.0,0.0,0.0,0.0,0.0,0.0,0.0,0.0,0.0,0.0,0.0,0.0,0.0,0.0,0.0,0.0,0.0,0.0,0.0,0.0,0.0,0.0,0.0,0.0,0.0,0.0,0.0,0.0,0.0,0.0,0.0,0.0,0.0,0.0,0.0,0.0,0.0,0.0,0.0,0.0,0.0,0.0,0.0,0.0,0.0,0.0,0.0,0.0,0.0,0.0,0.0,0.0,0.0,0.0,0.0,0.0,0.0,0.0,0.0,0.0,0.0,0.0,0.0,0.0,0.0,0.0,0.0,0.0,0.0,0.0,0.0,0.0,0.0,0.0,0.0,0.0,0.0,0.0,0.0,0.0,0.0,0.0,0.0,0.0,0.0,0.0,0.0,0.0,0.0,0.0,0.0,0.0,0.0,0.0,-0.9814,-0.8334,-0.8024,-0.7882,-0.7882,-0.7882,-0.8058,-0.8367,0.0,0.0,0.0,0.0,0.0,0.0,0.0,0.0,0.0,0.0,0.0,0.0,0.0,0.0,0.0,0.0,0.0,0.0,0.0,0.0,0.0,0.0,0.0,0.0,0.0,0.0,0.0,0.0,0.0,0.0,0.0,0.0,0.0,0.0,0.0,0.0,0.0,0.0,0.0,0.0,0.0,0.0,0.0,0.0,0.0,0.0,0.0,0.0,0.0,0.0,0.0,0.0,0.0,0.0,0.0,0.0,0.0,0.0,0.0,0.0,0.0,0.0,0.0,0.0,0.0,0.0,0.0,0.0,0.0,0.0,0.0,0.0,0.0,0.0,0.0,0.0,0.0,0.0,0.0,0.0,0.0,0.0,0.0,0.0,0.0,0.0,0.0,0.0,0.0,0.0,0.0,0.0,0.0,0.0,0.0,0.0,0.0,0.0,0.0,0.0,0.0,0.0,0.0,-1.0354,-0.9645,-0.8504,-0.8404,-0.8404,-0.8404,-0.8044,-0.798,-0.8477,-0.7902,0.0,0.0,0.0,0.0,0.0,0.0,0.0,0.0,0.0,0.0,0.0,0.0,0.0,0.0,0.0,0.0,0.0,0.0,0.0,0.0,0.0,0.0,0.0,0.0,0.0,0.0,0.0,0.0,0.0,0.0,0.0,0.0,0.0,0.0,0.0,0.0,0.0,0.0,0.0,0.0,0.0,0.0,0.0,0.0,0.0,0.0,0.0,0.0,0.0,0.0,0.0,0.0,0.0,0.0,0.0,0.0,0.0,0.0,0.0,0.0,0.0,0.0,0.0,0.0,0.0,0.0,0.0,0.0,0.0,0.0,0.0,0.0,0.0,0.0,0.0,0.0,0.0,0.0,0.0,0.0,0.0,0.0,0.0,0.0,0.0,0.0,0.0,0.0,0.0,0.0,0.0,0.0,0.0,0.0,0.0,0.0,0.0,0.0,0.0,0.0,0.0,0.0,-1.0064,-0.9361,-0.8857,-0.8804,-0.8804,-0.8804,-0.8103,-0.799,-0.8633,-0.7735,0.0,0.0,0.0,0.0,0.0,0.0,0.0,0.0,0.0,0.0,0.0,0.0,0.0,0.0,0.0,0.0,0.0,0.0,0.0,0.0,0.0,0.0,0.0,0.0,0.0,0.0,0.0,0.0,0.0,0.0,0.0,0.0,0.0,0.0,0.0,0.0,0.0,0.0,0.0,0.0,0.0,0.0,0.0,0.0,0.0,0.0,0.0,0.0,0.0,0.0,0.0,0.0,0.0,0.0,0.0,0.0,0.0,0.0,0.0,0.0,0.0,0.0,0.0,0.0,0.0,0.0,0.0,0.0,0.0,0.0,0.0,0.0,0.0,0.0,0.0,0.0,0.0,0.0,0.0,0.0,0.0,0.0,0.0,0.0,0.0,0.0,0.0,0.0,0.0,0.0,0.0,0.0,0.0,0.0,0.0,0.0,0.0,0.0,0.0,0.0,0.0,0.0,-0.9658,-0.8857,-0.8811,-0.8804,-0.8804,-0.8804,-0.8103,-0.799,-0.8752,-0.7735,0.0,0.0,0.0,0.0,0.0,0.0,0.0,0.0,0.0,0.0,0.0,0.0,0.0,0.0,0.0,0.0,0.0,0.0,0.0,0.0,0.0,0.0,0.0,0.0,0.0,0.0,0.0,0.0,0.0,0.0,0.0,0.0,0.0,0.0,0.0,0.0,0.0,0.0,0.0,0.0,0.0,0.0,0.0,0.0,0.0,0.0,0.0,0.0,0.0,0.0,0.0,0.0,0.0,0.0,0.0,0.0,0.0,0.0,0.0,0.0,0.0,0.0,0.0,0.0,0.0,0.0,0.0,0.0,0.0,0.0,0.0,0.0,0.0,0.0,0.0,0.0,0.0,0.0,0.0,0.0,0.0,0.0,0.0,0.0,0.0,0.0,0.0,0.0,0.0,0.0,0.0,0.0,0.0,0.0,0.0,0.0,0.0,0.0,0.0,0.0,0.0,0.0,-0.9614,-0.9008,0.0,-0.8804,-0.8804,-0.8804,-0.7723,-0.7402,-0.8381,0.0,0.0,0.0,0.0,0.0,0.0,0.0,0.0,0.0,0.0,0.0,0.0,0.0,0.0,0.0,0.0,0.0,0.0,0.0,0.0,0.0,0.0,0.0,0.0,0.0,0.0,0.0,0.0,0.0,0.0,0.0,0.0,0.0,0.0,0.0,0.0,0.0,0.0,0.0,0.0,0.0,0.0,0.0,0.0,0.0,0.0,0.0,0.0,0.0,0.0,0.0,0.0,0.0,0.0,0.0,0.0,0.0,0.0,0.0,0.0,0.0,0.0,0.0,0.0,0.0,0.0,0.0,0.0,0.0,0.0,0.0,0.0,0.0,0.0,0.0,0.0,0.0,0.0,0.0,0.0,0.0,0.0,0.0,0.0,0.0,0.0,0.0,0.0,0.0,0.0,0.0,0.0,0.0,0.0,0.0,0.0,0.0,0.0,0.0,0.0,0.0,0.0,-1.0115,-0.9465,-0.9008,0.0,-0.8804,-0.8699,-0.848,-0.7289,-0.6966,-0.7836,0.0,0.0,0.0,0.0,0.0,0.0,0.0,0.0,0.0,0.0,0.0,0.0,0.0,0.0,0.0,0.0,0.0,0.0,0.0,0.0,0.0,0.0,0.0,0.0,0.0,0.0,0.0,0.0,0.0,0.0,0.0,0.0,0.0,0.0,0.0,0.0,0.0,0.0,0.0,0.0,0.0,0.0,0.0,0.0,0.0,0.0,0.0,0.0,0.0,0.0,0.0,0.0,0.0,0.0,0.0,0.0,0.0,0.0,0.0,0.0,0.0,0.0,0.0,0.0,0.0,0.0,0.0,0.0,0.0,0.0,0.0,0.0,0.0,0.0,0.0,0.0,0.0,0.0,0.0,0.0,0.0,0.0,0.0,0.0,0.0,0.0,0.0,0.0,0.0,0.0,0.0,0.0,0.0,0.0,0.0,0.0,0.0,0.0,0.0,0.0,0.0,0.0,-0.9821,-0.9218,-0.8818,-0.8818,-0.8818,-0.8493,-0.7783,-0.7025,-0.681,0.0,0.0,0.0,0.0,0.0,0.0,0.0,0.0,0.0,0.0,0.0,0.0,0.0,0.0,0.0,0.0,0.0,0.0,0.0,0.0,0.0,0.0,0.0,0.0,0.0,0.0,0.0,0.0,0.0,0.0,0.0,0.0,0.0,0.0,0.0,0.0,0.0,0.0,0.0,0.0,0.0,0.0,0.0,0.0,0.0,0.0,0.0,0.0,0.0,0.0,0.0,0.0,0.0,0.0,0.0,0.0,0.0,0.0,0.0,0.0,0.0,0.0,0.0,0.0,0.0,0.0,0.0,0.0,0.0,0.0,0.0,0.0,0.0,0.0,0.0,0.0,0.0,0.0,0.0,0.0,0.0,0.0,0.0,0.0,0.0,0.0,0.0,0.0,0.0,0.0,0.0,0.0,0.0,0.0,0.0,0.0,0.0,0.0,0.0,0.0,0.0,0.0,0.0,-0.9904,-0.9618,-0.9426,-0.9426,-0.9426,-0.9073,-0.8258,-0.7501,-0.716,-0.7333,0.0,0.0,0.0,0.0,0.0,0.0,0.0,0.0,0.0,0.0,0.0,0.0,0.0,0.0,0.0,0.0,0.0,0.0,0.0,0.0,0.0,0.0,0.0,0.0,0.0,0.0,0.0,0.0,0.0,0.0,0.0,0.0,0.0,0.0,0.0,0.0,0.0,0.0,0.0,0.0,0.0,0.0,0.0,0.0,0.0,0.0,0.0,0.0,0.0,0.0,0.0,0.0,0.0,0.0,0.0,0.0,0.0,0.0,0.0,0.0,0.0,0.0,0.0,0.0,0.0,0.0,0.0,0.0,0.0,0.0,0.0,0.0,0.0,0.0,0.0,0.0,0.0,0.0,0.0,0.0,0.0,0.0,0.0,0.0,0.0,0.0,0.0,0.0,0.0,0.0,0.0,0.0,0.0,0.0,0.0,0.0,0.0,0.0,0.0,0.0,0.0,0.0,-1.0183,-0.9909,-0.9686,-0.9686,-0.9382,-0.8838,-0.8058,-0.7235,-0.6759,-0.6703,0.0,0.0,0.0,0.0,0.0,0.0,0.0,0.0,0.0,0.0,0.0,0.0,0.0,0.0,0.0,0.0,0.0,0.0,0.0,0.0,0.0,0.0,0.0,0.0,0.0,0.0,0.0,0.0,0.0,0.0,0.0,0.0,0.0,0.0,0.0,0.0,0.0,0.0,0.0,0.0,0.0,0.0,0.0,0.0,0.0,0.0,0.0,0.0,0.0,0.0,0.0,0.0,0.0,0.0,0.0,0.0,0.0,0.0,0.0,0.0,0.0,0.0,0.0,0.0,0.0,0.0,0.0,0.0,0.0,0.0,0.0,0.0,0.0,0.0,0.0,0.0,0.0,0.0,0.0,0.0,0.0,0.0,0.0,0.0,0.0,0.0,0.0,0.0,0.0,0.0,0.0,0.0,0.0,0.0,0.0,0.0,0.0,0.0,0.0,0.0,0.0,0.0,-1.0631,-1.0147,-0.9766,-0.9766,-0.9095,-0.8249,-0.741,-0.6639,-0.6042,-0.5681,0.0,0.0,0.0,0.0,0.0,0.0,0.0,0.0,0.0,0.0,0.0,0.0,0.0,0.0,0.0,0.0,0.0,0.0,0.0,0.0,0.0,0.0,0.0,0.0,0.0,0.0,0.0,0.0,0.0,0.0,0.0,0.0,0.0,0.0,0.0,0.0,0.0,0.0,0.0,0.0,0.0,0.0,0.0,0.0,0.0,0.0,0.0,0.0,0.0,0.0,0.0,0.0,0.0,0.0,0.0,0.0,0.0,0.0,0.0,0.0,-1.166,0.0,0.0,0.0,0.0,0.0,0.0,0.0,0.0,0.0,0.0,0.0,0.0,0.0,0.0,0.0,0.0,0.0,0.0,0.0,0.0,0.0,0.0,0.0,0.0,0.0,0.0,0.0,0.0,0.0,0.0,0.0,0.0,0.0,0.0,0.0,0.0,0.0,0.0,0.0,0.0,0.0,-1.079,-1.0526,-1.0436,-1.0436,-1.0243,-0.9537,-0.8006,-0.7693,-0.7118,-0.6032,-0.578,0.0,0.0,0.0,0.0,0.0,0.0,0.0,0.0,0.0,0.0,0.0,0.0,0.0,0.0,0.0,0.0,0.0,0.0,0.0,0.0,0.0,0.0,0.0,0.0,0.0,0.0,0.0,0.0,0.0,0.0,0.0,0.0,0.0,0.0,0.0,0.0,0.0,0.0,0.0,0.0,0.0,0.0,0.0,0.0,0.0,0.0,0.0,0.0,0.0,0.0,0.0,0.0,0.0,0.0,0.0,0.0,0.0,0.0,0.0,0.0,-1.18,0.0,0.0,0.0,0.0,0.0,0.0,0.0,0.0,0.0,0.0,0.0,0.0,0.0,0.0,0.0,0.0,0.0,0.0,0.0,0.0,0.0,0.0,0.0,0.0,0.0,0.0,0.0,0.0,0.0,0.0,0.0,0.0,0.0,0.0,0.0,0.0,0.0,0.0,0.0,0.0,-1.1059,-1.0774,-1.0428,-1.0047,-0.9588,-0.8801,-0.7502,-0.6985,-0.647,-0.5818,-0.5737,0.0,0.0,0.0,0.0,0.0,0.0,0.0,0.0,0.0,0.0,0.0,0.0,0.0,0.0,0.0,0.0,0.0,0.0,0.0,0.0,0.0,0.0,0.0,0.0,0.0,0.0,0.0,0.0,0.0,0.0,0.0,0.0,0.0,0.0,0.0,0.0,0.0,0.0,0.0,0.0,0.0,0.0,0.0,0.0,0.0,0.0,0.0,0.0,0.0,0.0,0.0,0.0,0.0,-1.4583,-1.4636,-1.4636,-1.4708,-1.4456,-1.3958,-1.3925,-1.3651,-1.3157,0.0,0.0,0.0,0.0,0.0,0.0,0.0,0.0,0.0,0.0,0.0,0.0,0.0,0.0,0.0,0.0,0.0,0.0,0.0,0.0,0.0,0.0,0.0,0.0,0.0,-1.0045,-1.0,0.0,0.0,0.0,0.0,0.0,0.0,0.0,0.0,0.0,0.0,0.0,0.0,-1.1247,-1.087,-1.0301,-0.9594,-0.8742,-0.7897,-0.6981,-0.6141,-0.5557,-0.5428,-0.5693,-0.5687,0.0,0.0,0.0,0.0,0.0,0.0,0.0,0.0,0.0,0.0,0.0,0.0,0.0,0.0,0.0,0.0,0.0,0.0,0.0,0.0,0.0,0.0,0.0,0.0,0.0,0.0,0.0,0.0,0.0,0.0,0.0,0.0,-1.6227,-1.6187,0.0,0.0,0.0,0.0,0.0,0.0,0.0,0.0,0.0,0.0,0.0,0.0,0.0,-1.4622,-1.4658,-1.5612,-1.6095,-1.6108,-1.7119,-1.7626,-1.7626,-1.7626,-1.7251,-1.6547,-1.6064,0.0,-1.262,-1.2408,0.0,0.0,0.0,0.0,0.0,0.0,0.0,0.0,0.0,0.0,0.0,0.0,0.0,0.0,0.0,0.0,0.0,0.0,0.0,0.0,0.0,0.0,-0.9699,-1.0047,-1.012,-0.9945,0.0,-0.9235,-0.9014,-0.9066,-0.8825,0.0,0.0,0.0,0.0,0.0,0.0,0.0,-1.1122,-1.0807,-1.0561,-1.0428,-0.9652,-0.8748,-0.7897,-0.7046,-0.6203,-0.5428,-0.5428,-0.5487,-0.5579,-0.5639,0.0,0.0,0.0,0.0,0.0,0.0,0.0,0.0,0.0,0.0,0.0,0.0,0.0,0.0,0.0,0.0,0.0,0.0,0.0,0.0,0.0,0.0,0.0,0.0,0.0,0.0,0.0,0.0,0.0,-1.5763,-1.6067,-1.5597,-1.5781,-1.5811,0.0,0.0,0.0,0.0,0.0,0.0,0.0,0.0,0.0,-1.6831,-1.6456,-1.6378,-1.6635,-1.718,-1.743,-1.743,-1.7965,-1.8204,-1.8204,-1.8204,-1.7593,-1.6566,-1.6327,-1.5121,-1.3372,-1.3047,-1.2696,-1.231,0.0,0.0,0.0,0.0,-0.9887,-0.9461,-0.912,-0.9026,0.0,0.0,0.0,0.0,0.0,0.0,0.0,0.0,0.0,0.0,0.0,0.0,0.0,-1.0294,-0.9987,-0.958,-0.9378,-0.8444,-0.7845,0.0,-0.893,-0.9381,-0.9831,0.0,0.0,0.0,0.0,-0.9633,-1.0161,-0.9576,-0.893,-0.8474,-0.8086,-0.7507,-0.6597,-0.6207,-0.5815,-0.5428,-0.5428,-0.5397,-0.5455,-0.5559,-0.563,0.0,0.0,0.0,0.0,0.0,0.0,0.0,0.0,0.0,0.0,0.0,0.0,0.0,0.0,0.0,0.0,0.0,0.0,0.0,0.0,0.0,0.0,0.0,0.0,0.0,0.0,0.0,0.0,-1.5772,-1.625,-1.5299,-1.5981,-1.6318,0.0,0.0,0.0,0.0,0.0,0.0,-1.8725,-1.8261,-1.8122,-1.8498,-1.808,-1.7949,-1.8204,-1.8342,-1.8417,-1.8417,-1.8543,-1.8618,-1.8618,-1.8618,-1.7945,-1.6803,-1.6661,-1.588,-1.4631,-1.3791,-1.3256,-1.2905,-1.2428,-1.1756,-1.1058,-1.0751,-1.0334,-0.9877,-0.9701,-0.9606,-0.957,-0.9904,0.0,-1.0128,-1.002,0.0,0.0,0.0,0.0,-0.986,-1.0154,-1.0234,-1.0226,-1.0249,-0.9786,-0.9204,-0.8748,-0.7872,-0.7297,0.0,-0.8463,-0.8918,-0.918,0.0,0.0,0.0,0.0,-0.852,-0.9122,-0.8591,-0.7863,-0.7194,-0.6927,-0.6538,-0.5876,-0.5609,-0.5474,-0.5474,-0.544,-0.542,-0.542,-0.5531,-0.5552,-0.5572,0.0,0.0,0.0,0.0,0.0,0.0,0.0,0.0,0.0,0.0,0.0,0.0,0.0,0.0,0.0,0.0,0.0,0.0,0.0,0.0,0.0,0.0,0.0,0.0,0.0,0.0,0.0,0.0,0.0,-1.6584,-1.8068,0.0,0.0,0.0,0.0,-1.7706,-1.7666,-1.8086,-1.9223,-1.921,-1.9182,-1.9051,-1.9033,-1.8754,-1.8204,-1.8731,-1.8933,-1.8945,-1.9484,-1.9723,-1.9723,-1.9723,-1.9285,-1.8525,-1.7827,-1.707,-1.6244,-1.4715,-1.3385,-1.2346,-1.2321,-1.1487,-1.0329,-1.0201,-1.005,-0.9904,-0.9724,-0.9673,-0.9686,-0.9737,-0.9962,-1.0243,-0.9853,-0.9962,0.0,0.0,-1.0094,-1.016,-1.0461,-1.0598,-1.0345,-0.9524,-0.9338,-0.8877,-0.7177,-0.7593,-0.8004,0.0,-0.6141,-0.5947,-0.6859,0.0,-0.7328,-0.8405,-0.8447,-0.8439,-0.8444,-0.8444,-0.8369,-0.8299,-0.761,-0.7049,-0.7053,-0.6275,-0.5779,-0.5779,-0.5654,-0.5579,-0.5579,-0.5497,-0.5477,-0.5575,-0.5627,0.0,0.0,0.0,0.0,0.0,0.0,0.0,0.0,0.0,0.0,0.0,0.0,0.0,0.0,0.0,0.0,0.0,0.0,0.0,0.0,0.0,0.0,0.0,0.0,0.0,0.0,0.0,0.0,-1.8089,-1.9169,0.0,-1.8341,-1.8779,-1.9374,-1.9903,-2.0496,-2.1212,-2.2015,-2.1686,-2.1274,-2.0784,-2.0388,-1.9885,-1.9233,-1.9422,-1.9522,-1.9522,-1.971,-1.9798,-1.9798,-1.9798,-1.915,-1.7961,-1.7688,-1.6912,-1.5728,-1.5192,-1.4373,-1.35,-1.35,-1.2604,-1.1247,-1.1187,-1.0838,-1.037,-1.0309,-1.0309,-1.0309,-1.0309,-1.037,-1.0486,-1.0309,-1.0363,-1.0506,-1.0436,-1.0401,-1.0428,-1.0598,-1.0624,-1.041,-0.9598,-0.8975,-0.8286,-0.7198,-0.6859,-0.6608,-0.6201,-0.6398,-0.6745,-0.7022,-0.6592,-0.6694,-0.8151,-0.7447,-0.6928,-0.7495,-0.707,-0.6718,-0.6718,-0.6437,-0.6297,-0.6297,-0.5943,-0.58,-0.58,-0.5752,-0.5725,-0.5725,-0.5586,-0.5549,-0.5628,-0.5533,-0.552,0.0,0.0,0.0,0.0,0.0,0.0,0.0,0.0,0.0,0.0,0.0,0.0,0.0,0.0,0.0,0.0,0.0,0.0,0.0,0.0,0.0,0.0,0.0,0.0,0.0,0.0,-1.95,-1.8719,-1.9902,-2.0387,-1.9464,-2.0279,-2.1074,-2.1586,-2.2283,-2.2965,-2.3551,-2.3231,-2.262,-2.1744,-2.1496,-2.0985,-2.0087,-2.0275,-2.0363,-2.0363,-2.0363,-2.0363,-2.0363,-2.0363,-1.9697,-1.8463,-1.8182,-1.7384,-1.6188,-1.559,-1.4915,-1.4153,-1.3891,-1.281,-1.1406,-1.1406,-1.1045,-1.0624,-1.0624,-1.0428,-1.0174,-1.0174,-0.9977,-0.9716,-0.9716,-0.9716,-0.9716,-0.9716,-0.9777,-0.9786,-0.9786,-0.9848,-0.9688,-0.891,-0.827,-0.7623,-0.684,-0.6273,-0.5878,-0.5878,-0.6406,-0.6793,-0.6651,-0.6201,-0.631,-0.7592,-0.6718,-0.6247,-0.6972,-0.6394,-0.5956,-0.5956,-0.5956,-0.5956,-0.5956,-0.6029,-0.6026,-0.5956,-0.5978,-0.595,-0.5878,-0.5761,-0.5655,-0.5655,-0.4898,-0.4852,-0.5507,0.0,0.0,0.0,0.0,0.0,0.0,0.0,0.0,0.0,0.0,0.0,0.0,0.0,0.0,0.0,0.0,0.0,0.0,0.0,0.0,0.0,0.0,0.0,-1.795,-1.9322,-2.0034,-1.8604,-2.0407,-2.1536,-2.1028,-2.1425,-2.1993,-2.2603,-2.2694,-2.2934,-2.3538,-2.3581,-2.3024,-2.1752,-2.2311,-2.1987,-2.0743,-2.123,-2.1493,-2.1493,-2.1493,-2.1493,-2.1493,-2.1493,-2.1006,-2.0111,-1.9397,-1.8572,-1.7606,-1.5954,-1.4802,-1.4016,-1.3252,-1.2003,-1.0651,-1.0651,-1.0651,-1.0588,-1.0588,-1.0008,-0.9297,-0.9291,-0.8705,-0.7982,-0.7982,-0.7982,-0.7982,-0.7982,-0.8072,-0.8175,-0.8175,-0.8324,-0.8192,-0.7296,-0.7086,-0.6877,-0.6029,-0.5932,-0.6037,-0.6037,-0.5918,-0.5817,-0.5817,-0.5939,-0.6112,-0.6559,-0.6395,0.0,-0.6865,-0.6563,-0.6338,-0.6338,-0.6338,-0.6338,-0.6338,-0.649,-0.6486,-0.6338,-0.6266,-0.6179,-0.6037,-0.5894,-0.5797,-0.5793,-0.3738,-0.3612,-0.5418,0.0,0.0,0.0,0.0,0.0,0.0,0.0,0.0,0.0,0.0,0.0,0.0,0.0,0.0,0.0,0.0,0.0,0.0,0.0,0.0,0.0,0.0,-2.1573,-2.0469,-2.1341,-2.2104,-2.212,-2.2703,-2.2832,-2.2269,-2.2759,-2.2756,-2.2039,-2.2452,-2.2744,-2.2856,-2.287,-2.2693,-2.2218,-2.2352,-2.2086,-2.1267,-2.1418,-2.1493,-2.1493,-2.1493,-2.1493,-2.1493,-2.1493,-2.071,-1.9408,-1.9171,-1.828,-1.6898,-1.578,-1.4802,-1.3999,-1.3099,-1.2108,-1.1189,-1.1189,-1.1189,-1.1048,-1.0356,-0.995,-0.9604,-0.8848,-0.8506,-0.8294,-0.8294,-0.8294,-0.8294,-0.8294,-0.8339,-0.8319,-0.8319,-0.8359,-0.8231,-0.7449,-0.7265,-0.7012,-0.6331,-0.6166,-0.6196,-0.6196,-0.6162,-0.6135,-0.6135,-0.6169,-0.6273,-0.635,-0.6311,0.0,-0.649,-0.6338,-0.6335,-0.6486,-0.6637,-0.6714,-0.6563,-0.6714,-0.6637,-0.6338,-0.6297,-0.6273,-0.6196,-0.6017,-0.5801,-0.5496,-0.3643,-0.3574,0.0,0.0,0.0,0.0,0.0,0.0,0.0,0.0,0.0,0.0,0.0,0.0,0.0,0.0,0.0,0.0,0.0,0.0,0.0,0.0,0.0,0.0,-2.2854,-2.3519,-2.2768,-2.2658,-2.283,-2.3201,-2.3231,-2.3187,-2.3098,-2.3629,-2.3688,-2.2962,-2.3234,-2.3455,-2.3407,-2.3073,-2.278,-2.2403,-2.2653,-2.2467,-2.1832,-2.2071,-2.2184,-2.2184,-2.2184,-2.2184,-2.2184,-2.1811,-2.0962,0.0,-1.9357,-1.8226,-1.6581,-1.5624,-1.4739,0.0,0.0,0.0,0.0,0.0,-1.1142,-1.0723,-1.0089,-0.9388,-0.8619,-0.8056,-0.7633,-0.7279,-0.7279,-0.7279,-0.7279,-0.7279,-0.7338,-0.7402,-0.7402,-0.7462,-0.7405,-0.699,-0.6866,-0.6745,-0.6395,-0.6338,-0.6338,-0.6338,-0.6338,0.0,-0.6338,-0.6338,-0.6338,-0.6563,-0.6412,-0.6338,-0.6563,-0.6412,-0.6338,-0.649,-0.6563,-0.6641,-0.649,-0.6637,0.0,0.0,0.0,-0.6395,-0.6336,-0.5324,0.0,0.0,0.0,-0.3885,-0.3113,0.0,0.0,0.0,-0.2858,-0.3299,0.0,0.0,0.0,0.0,0.0,0.0,0.0,0.0,0.0,0.0,0.0,0.0,0.0,0.0,0.0,0.0,-2.5025,-2.5684,-2.4806,-2.3741,-2.2991,-2.29,-2.29,-2.3155,-2.3775,-2.4373,-2.4686,-2.4595,-2.4567,-2.4461,-2.4369,0.0,0.0,0.0,0.0,-2.3031,-2.2498,-2.2987,-2.3203,-2.3265,-2.3265,-2.3205,-2.3131,-2.2308,-2.1446,-2.0475,-1.9573,-1.82,-1.6498,-1.5438,-1.445,-1.3469,-1.291,-1.2211,-1.1523,-1.1523,-1.088,-0.9962,-0.9892,0.0,0.0,-0.7073,-0.6497,-0.5854,-0.5854,-0.5854,-0.5854,-0.5854,-0.5952,-0.6057,-0.6057,-0.6159,-0.6338,-0.6338,-0.6338,-0.6338,-0.6338,-0.6338,-0.6338,-0.6338,-0.6338,-0.6338,-0.6338,-0.6338,-0.6412,-0.6788,-0.6563,-0.6412,-0.6788,-0.6486,-0.6338,-0.6338,0.0,0.0,-0.6338,-0.6486,-0.6563,-0.6338,-0.6504,-0.6531,-0.6335,-0.4475,-0.4176,-0.5661,-0.569,-0.3799,-0.0,-0.1631,-0.2419,-0.2416,-0.174,-0.2644,0.0,0.0,0.0,0.0,0.0,0.0,0.0,0.0,0.0,0.0,0.0,0.0,0.0,0.0,0.0,-2.3901,-2.5104,-2.6138,-2.6526,-2.5586,-2.4741,-2.4283,-2.4238,-2.4491,-2.5166,-2.5345,-2.5218,-2.4699,-2.467,-2.4332,-2.3663,-2.3485,-2.3267,-2.2964,-2.3077,-2.3308,-2.3665,-2.3778,-2.4054,-2.4494,0.0,0.0,-2.3233,-2.275,-2.1644,-1.9948,-1.8714,-1.7552,-1.6498,-1.4728,-1.3455,-1.2579,-1.2396,-1.2276,-1.2131,-1.2131,-1.1462,-1.0489,-0.9686,-0.8646,-0.7522,-0.6699,-0.6325,-0.6173,-0.6173,-0.6173,0.0,-0.6173,-0.6193,-0.6217,-0.6217,-0.6237,-0.6338,-0.6338,-0.6338,-0.6338,-0.6338,-0.6338,-0.6338,-0.6338,-0.6338,-0.6338,-0.6338,-0.6338,-0.6338,-0.6412,-0.6335,-0.6338,-0.6412,-0.6335,-0.6338,-0.649,-0.6714,-0.6714,-0.6563,-0.6714,-0.6714,-0.6338,-0.6349,-0.6355,-0.6281,-0.5879,-0.4297,-0.1326,-0.1242,-0.0854,-0.0,-0.038,-0.0526,-0.0526,-0.0364,-0.0568,0.0,0.0,0.0,0.0,0.0,0.0,0.0,0.0,0.0,0.0,0.0,-2.2659,-2.317,0.0,-2.5092,-2.5782,-2.6803,-2.7548,-2.7635,-2.7185,-2.6477,-2.5647,-2.5274,-2.5255,-2.557,-2.5597,-2.5418,-2.5106,-2.4713,-2.4286,-2.3874,-2.3716,-2.3671,-2.3552,-2.3841,-2.4117,-2.4406,-2.4406,-2.4544,-2.482,-2.4263,-2.3779,-2.3266,-2.2139,-2.0838,-1.9354,-1.8289,-1.6982,-1.5479,-1.4013,-1.3113,-1.2525,-1.2525,-1.2432,-1.2305,-1.2305,-1.1323,-0.9965,-0.9448,-0.8313,-0.6945,-0.649,-0.6338,-0.6338,-0.6338,-0.6338,-0.6338,-0.6338,-0.6338,-0.6338,-0.6338,-0.6338,-0.6338,-0.6338,-0.6338,-0.6338,-0.6338,-0.6338,-0.6338,-0.6338,-0.6338,-0.6338,-0.6338,-0.6338,-0.6338,-0.6338,-0.6338,-0.6338,-0.6338,-0.6338,-0.6338,-0.6412,-0.6563,-0.6567,-0.6497,-0.6578,-0.6511,-0.6295,-0.6302,-0.5352,-0.3224,-0.3146,-0.2121,-0.0079,0.0,0.0,0.0,0.0,0.0,0.0,0.0,0.0,0.0,0.0,0.0,0.0,0.0,0.0,0.0,0.0,-2.1701,-2.4019,-2.429,-2.4427,-2.5501,-2.6096,-2.6802,-2.7876,-2.8569,-2.8898,-2.8622,-2.8467,-2.8127,-2.7336,-2.6474,-2.598,-2.5974,-2.5933,-2.5908,-2.5908,-2.5259,-2.4842,-2.4682,-2.449,-2.433,-2.4155,-2.4594,-2.487,-2.4971,-2.4971,-2.5021,-2.5146,-2.408,-2.3517,-2.3302,-2.1539,-2.0062,-1.8794,-1.7626,-1.6024,-1.4272,-1.3509,-1.3066,-1.2916,-1.2916,-1.2609,-1.2153,-1.2042,-1.0875,-0.9296,-0.9069,-0.7859,-0.6338,-0.6338,-0.6338,-0.6338,-0.6338,-0.6338,-0.6338,-0.6264,-0.6264,-0.6264,-0.6268,-0.6268,-0.6264,-0.6268,-0.6268,-0.6268,-0.6268,-0.6268,-0.6268,-0.6268,-0.6268,-0.6264,-0.6268,-0.6268,-0.6264,-0.6338,-0.6338,-0.6338,-0.6264,-0.6264,-0.6264,-0.6268,-0.6268,-0.6112,-0.5721,-0.5649,-0.5824,-0.6247,-0.6329,-0.4411,-0.0157,0.0,0.0,0.0,0.0,0.0,0.0,0.0,0.0,0.0,0.0,0.0,-1.9191,-1.9842,-2.1674,-2.3334,-2.358,-2.4415,0.0,0.0,-2.6182,-2.8262,-2.879,-2.8784,-2.8576,-2.8862,-2.911,-2.8878,-2.8924,-2.9211,-2.9796,-2.9443,-2.928,-2.9796,-2.8326,-2.7317,-2.739,-2.736,-2.7354,-2.7354,-2.7118,-2.668,-2.6027,-2.5815,-2.5418,-2.4732,-2.4795,-2.5046,-2.5498,-2.5511,-2.5774,-2.6276,-2.5272,-2.4317,-2.3408,-2.1972,-2.0232,-1.8262,-1.5923,-1.435,-1.3365,-1.3206,-1.3186,-1.316,-1.316,-1.2482,-1.1502,-1.1111,-1.0265,-0.9145,-0.8313,-0.7249,-0.6338,-0.6338,-0.6338,-0.6338,-0.6338,-0.6338,-0.6264,-0.6274,-0.6271,-0.6268,-0.6288,-0.6285,-0.6278,-0.6288,-0.6291,-0.6291,-0.6291,-0.6291,-0.6291,-0.6291,-0.6285,-0.6281,-0.6291,-0.6285,-0.6274,-0.6264,-0.6338,-0.6264,-0.6274,-0.6278,-0.6281,-0.6291,-0.6291,-0.5494,-0.3595,-0.3437,-0.4233,-0.6169,-0.6329,-0.4411,-0.0157,0.0,0.0,0.0,0.0,0.0,0.0,0.0,0.0,0.0,0.0,0.0,-2.3457,-2.3297,-2.3485,0.0,-2.5842,-2.6186,-2.7778,-2.7662,-2.7772,-2.969,-3.0524,-3.0711,-3.0186,-3.0371,-3.045,0.0,-3.0162,-3.0378,-3.07,-3.0505,-3.0349,-3.0318,-2.892,-2.7998,-2.8094,-2.7646,-2.7171,-2.6797,-2.6171,-2.5699,-2.5419,-2.5575,-2.5561,-2.5272,-2.5598,-2.5887,-2.6101,-2.6101,-2.6214,-2.6452,-2.4921,-2.3891,-2.3441,-2.1699,-1.9783,-1.7661,-1.5989,-1.4667,-1.3721,-1.3721,-1.3621,-1.338,-1.2706,-1.2029,-1.1461,-1.1318,-1.0142,-0.8573,-0.8179,-0.7388,-0.6519,-0.6451,-0.6455,-0.6455,-0.6296,-0.6296,-0.6299,-0.6303,-0.5387,-0.4725,-0.5975,-0.5392,-0.4401,-0.4405,-0.4405,-0.4405,-0.4405,-0.4405,-0.4405,-0.4405,-0.4403,-0.4874,-0.6115,-0.5283,-0.4449,-0.4462,-0.5482,-0.6285,-0.6288,-0.5171,-0.4457,-0.4462,-0.5584,-0.5914,-0.5034,-0.2743,-0.1646,-0.2592,-0.2672,-0.1806,-0.0079,0.0,0.0,0.0,0.0,0.0,0.0,0.0,0.0,0.0,0.0,0.0,-2.5138,-2.5199,0.0,-2.6779,-2.7674,-2.8127,-2.8076,-2.8489,-2.9311,-3.0866,-3.1686,-3.196,-3.1409,-3.1476,-3.1487,-3.1046,-3.111,-3.119,-3.119,-3.119,-3.0975,-3.0393,-2.9444,-2.8826,-2.8759,-2.763,-2.6652,-2.6238,-2.5651,-2.5332,-2.5332,-2.5668,-2.5837,-2.5837,-2.6021,-2.6094,-2.6094,-2.5804,-2.5652,-2.5639,-2.3879,-2.3073,-2.2999,-2.073,-1.8621,-1.6764,-1.5703,-1.4636,-1.3561,-1.3561,-1.3264,-1.2659,-1.1885,-1.1189,-1.0794,-1.0794,-0.9727,-0.8164,-0.7922,-0.7274,-0.6629,-0.6642,-0.6139,-0.563,-0.5466,-0.5382,-0.5552,-0.6155,-0.4789,-0.3352,-0.4287,-0.4285,-0.3692,-0.2515,-0.2263,-0.2263,-0.2263,-0.2263,-0.2263,-0.2263,-0.2262,-0.3085,-0.5861,-0.5007,-0.3743,-0.3202,-0.44,-0.5671,-0.6234,-0.3917,-0.2267,-0.2267,-0.3612,-0.457,-0.457,-0.1728,0.0,0.0,0.0,0.0,0.0,0.0,0.0,0.0,0.0,0.0,0.0,0.0,0.0,0.0,0.0,0.0,-2.1898,-2.3637,-2.539,-2.7067,-2.8994,-3.0703,-3.1542,-3.1508,-3.1552,-3.2442,-3.2807,-3.2841,-3.2426,-3.2409,-3.2315,-3.1845,-3.147,-3.119,-3.119,-3.119,-3.0975,-3.0393,-3.0251,-3.0036,0.0,-2.7523,-2.6238,-2.618,-2.6476,-2.662,-2.662,-2.656,-2.6496,-2.6496,-2.5569,-2.5087,-2.5087,-2.4108,-2.3588,-2.3588,-2.2553,-2.2027,-2.1952,-1.8824,-1.6764,-1.5703,-1.4566,-1.3464,-1.2328,-1.2328,-1.1724,-1.0687,-1.0687,-0.9995,-0.896,-0.896,-0.8641,-0.8086,-0.7109,-0.6712,-0.6562,-0.6566,-0.5035,-0.3183,-0.3183,-0.3183,-0.3604,-0.5736,-0.4794,-0.2681,-0.0673,-0.3197,-0.5144,-0.1094,-0.0084,-0.0084,-0.0084,-0.0084,-0.0084,-0.0084,-0.0084,-0.1426,-0.5586,-0.626,-0.5482,-0.3453,-0.3115,-0.3981,-0.6044,-0.2672,-0.0079,-0.0079,-0.0157,-0.0157,-0.0157,-0.0079,0.0,0.0,0.0,0.0,0.0,0.0,0.0,0.0,0.0,0.0,0.0,0.0,0.0,0.0,0.0,0.0,-2.2871,-2.4768,-2.6865,-2.8813,-3.0292,-3.1384,-3.1792,-3.2719,-3.3465,-3.3485,-3.2849,-3.2133,-3.163,-3.1279,-3.085,-3.0283,-3.1005,-3.1507,-3.123,-3.119,-3.0975,-3.0393,-2.9488,0.0,0.0,0.0,0.0,-2.7456,-2.7367,-2.7117,-2.6611,-2.5901,-2.5511,-2.5511,-2.4552,-2.4036,-2.4036,-2.3672,-2.3114,-2.2445,-2.0678,-1.9556,-1.8824,-1.7009,-1.5629,-1.4497,-1.3296,-1.2207,-1.1209,-1.1209,-1.0956,-1.0524,-0.9749,-0.9235,-0.8807,-0.8036,-0.7621,-0.744,-0.7101,-0.6937,-0.695,-0.6967,-0.6436,-0.5192,-0.2019,-0.1053,-0.1229,-0.1933,-0.1581,-0.0878,-0.0176,-0.1055,-0.1758,-0.0352,0.0,0.0,0.0,0.0,0.0,0.0,0.0,-0.0437,-0.1899,-0.2153,-0.1884,-0.1182,-0.1011,-0.134,-0.2062,-0.0905,0.0,0.0,0.0,0.0,0.0,0.0,0.0,0.0,0.0,0.0,0.0,0.0,0.0,0.0,0.0,0.0,0.0,0.0,0.0,0.0,0.0,0.0,-2.4088,-2.5688,-2.7411,-2.968,-3.0877,-3.1722,-3.2447,-3.3565,-3.4453,-3.4535,-3.3058,-3.1657,-3.131,-3.0684,-2.9839,-2.8836,-3.0106,-3.1028,-3.0594,-3.0549,-3.0416,-3.0048,-2.9167,-2.8323,0.0,0.0,0.0,-2.7256,-2.721,-2.6892,-2.6013,-2.537,-2.4862,-2.4492,-2.3514,-2.2925,-2.2925,-2.2232,-2.1349,-2.0217,-1.89,-1.7502,-1.6078,-1.5374,-1.4198,-1.2717,-1.1929,-1.1005,-1.0009,-1.0009,-0.9749,-0.9309,-0.8536,-0.8277,-0.8193,-0.7429,-0.6542,-0.5816,-0.5816,-0.637,-0.7118,-0.7131,-0.595,-0.3957,-0.0898,0.0,0.0,0.0,0.0,0.0,0.0,0.0,0.0,0.0,0.0,0.0,0.0,0.0,0.0,0.0,0.0,0.0,0.0,0.0,0.0,0.0,0.0,0.0,0.0,0.0,0.0,0.0,0.0,0.0,0.0,0.0,0.0,0.0,0.0,0.0,0.0,0.0,0.0,0.0,0.0,0.0,0.0,0.0,0.0,0.0,0.0,0.0,-2.5189,-2.6251,-2.721,-2.9676,-3.0875,-3.1885,-3.3532,-3.4128,-3.4562,-3.5351,-3.3316,-3.1322,0.0,0.0,-2.9365,-2.7637,-2.8982,-3.0034,-2.9457,-2.9506,-2.951,0.0,0.0,0.0,0.0,0.0,0.0,-2.5757,0.0,-2.6164,-2.5146,-2.5004,-2.4492,-2.3514,-2.2478,-2.1962,-2.1962,-1.9953,-1.831,-1.7261,-1.7172,-1.5996,-1.3898,-1.3807,-1.2632,-1.0524,-1.0438,-0.9836,-0.8803,-0.8803,-0.8101,-0.7139,-0.7139,-0.7139,-0.7143,-0.7078,-0.5636,-0.3659,-0.3751,-0.5112,-0.677,-0.677,-0.3687,0.0,0.0,0.0,0.0,0.0,0.0,0.0,0.0,0.0,0.0,0.0,0.0,0.0,0.0,0.0,0.0,0.0,0.0,0.0,0.0,0.0,0.0,0.0,0.0,0.0,0.0,0.0,0.0,0.0,0.0,0.0,0.0,0.0,0.0,0.0,0.0,0.0,0.0,0.0,0.0084,0.0338,0.0345,0.0262,0.0,0.0,0.0,0.0,0.0,0.0,-2.4215,-2.6231,-2.8623,-2.9793,-3.1117,-3.2437,-3.3633,-3.4448,-3.4633,-3.3414,-3.129,-2.903,0.0,0.0,0.0,-2.7111,-3.0009,0.0,-3.0683,-3.0544,0.0,-2.8872,0.0,-2.8876,-2.7449,-2.7732,0.0,0.0,-2.695,-2.7027,-2.6164,-2.4696,-2.3734,-2.3514,-2.1821,-2.0934,-2.0934,-1.878,-1.7172,-1.6108,-1.5311,-1.4126,-1.2741,-1.1884,-1.0687,-0.9318,-0.836,-0.7837,-0.7577,-0.7577,-0.7404,-0.7139,-0.7139,-0.7139,-0.7143,-0.7088,-0.5641,-0.3842,-0.5584,-0.4322,-0.1797,-0.1797,-0.0988,0.0,0.0,0.0,0.0,0.0,0.0,0.0,0.0,0.0,0.0,0.0,0.0,0.0,0.0,0.0,0.0,0.0,0.0,0.0,0.0,0.0,0.0,0.0,0.0,0.0,0.0,0.0,0.0,0.0,0.0,0.0,0.0,0.0,0.0,0.0,0.0,0.0,0.0,0.0,0.1679,0.5227,0.5257,0.3563,0.0,0.0,0.0,0.0,0.0,0.0,-2.4659,-2.6636,-2.8951,-2.9899,-3.1289,-3.2479,-3.2785,-3.3392,-3.3289,-3.123,-2.9017,0.0,-2.525,-2.6567,0.0,0.0,0.0,0.0,-3.0016,-2.9847,-2.9522,0.0,-2.9035,0.0,-2.7169,-2.7536,-2.751,0.0,-2.6539,-2.6102,-2.5205,-2.3661,-2.2627,-2.2264,-2.1165,-2.0157,-1.9195,-1.79,-1.6527,-1.4977,-1.3886,-1.2681,-1.1552,-1.0351,-0.9231,-0.8101,0.0,-0.7139,-0.7139,-0.7139,-0.7058,-0.7068,-0.7068,-0.7071,-0.7078,-0.7104,-0.6293,-0.5025,-0.4232,-0.225,0.0,0.0,0.0,0.0,0.0,0.0,0.0,0.0,0.0,0.0,0.0,0.0,0.0,0.0,0.0,0.0,0.0,0.0,0.0,0.0,0.0,0.0,0.0,0.0,0.0,0.0,0.0,0.0719,0.2875,0.1257,0.0,0.0,0.1887,0.2247,0.018,0.0,0.0,0.0,0.1976,0.3145,0.3145,0.2152,0.2867,0.5479,0.6582,0.5763,0.3136,0.0986,0.0,0.0,0.0,0.0,-2.5642,-2.7163,-2.8758,-2.9978,-3.1369,-3.2255,-3.1655,-3.1835,-3.1443,-2.8974,0.0,-2.5287,-2.4556,-2.5911,-2.6588,-2.4795,0.0,-3.0229,-2.8918,-2.8688,-2.8582,-2.837,-2.8696,-2.8421,-2.696,-2.7344,-2.7351,-2.6589,-2.5346,-2.4325,-2.3734,-2.2467,-2.1278,-2.0235,-2.0157,-1.9186,-1.709,-1.709,-1.6034,-1.3822,-1.2766,-1.1638,-1.0351,-0.9323,-0.8281,-0.7139,-0.7143,0.0,-0.7058,-0.7058,-0.7071,-0.7088,-0.6723,-0.6637,-0.6649,-0.6946,-0.7135,-0.6406,-0.1617,0.0,0.0,0.0,0.0,0.0,0.0,0.0,0.0,0.0,0.0,0.0,0.0,0.0,0.0,0.0,0.0,0.0,0.0,0.0539,0.0898,0.0898,0.0719,0.0449,0.0449,0.0449,0.0449,0.0449,0.0449,0.1974,0.6126,0.3325,0.0808,0.0539,0.4133,0.5129,0.1257,0.0358,0.0,0.0,0.3866,0.6406,0.7052,0.5114,0.4022,0.4022,0.6028,0.7135,0.7045,0.2966,0.0629,0.0,0.0,0.0,-2.5277,-2.7081,-2.9127,-3.0057,-3.1418,-3.2335,-3.18,-3.1733,0.0,0.0,-2.5901,-2.4825,-2.2285,-2.3553,-2.5203,-2.5967,0.0,0.0,0.0,0.0,-2.8539,0.0,0.0,0.0,0.0,0.0,0.0,0.0,0.0,-2.3121,-2.4636,-2.2189,-1.9828,-1.79,-1.79,-1.7253,-1.6026,-1.5944,-1.4851,-1.2589,-1.2413,-1.1209,-0.9148,-0.8978,-0.8281,-0.7143,-0.7071,0.0,-0.7081,-0.7091,-0.7094,-0.6917,-0.5006,-0.4198,-0.4469,-0.6394,-0.7135,-0.6406,-0.1617,0.0,0.0,0.0,0.0,0.0,0.0,0.0,0.0,0.0,0.0,0.0,0.0,0.0,0.0,0.0,0.0,0.0,0.0,0.3056,0.5858,0.5858,0.4304,0.2948,0.2948,0.2948,0.2948,0.2948,0.2948,0.3306,0.4113,0.5208,0.5124,0.3217,0.3753,0.4659,0.5765,0.2239,0.0,0.0,0.0809,0.2969,0.6982,0.67,0.6505,0.649,0.686,0.7135,0.7135,0.6314,0.3866,0.0,0.0,0.0,-2.5128,-2.6617,-2.8317,-2.9248,-3.0595,-3.1221,-2.962,0.0,0.0,0.0,-2.4136,-2.3677,-2.194,-2.3164,0.0,-2.5062,-2.7554,0.0,0.0,0.0,0.0,0.0,0.0,0.0,0.0,0.0,0.0,0.0,0.0,-2.2392,-2.3352,-2.0477,-1.8346,-1.7334,-1.6724,-1.589,-1.4837,-1.4219,-1.3043,-1.1381,-1.0783,-0.9923,-0.889,-0.8292,-0.7683,-0.7071,-0.7088,0.0,-0.5275,-0.528,-0.6011,-0.7025,-0.5838,-0.2412,0.1519,-0.2061,-0.3411,-0.3048,-0.0808,0.0,0.0,0.0,0.0,0.0,0.0,0.0,0.0,0.0,0.0,0.0,0.0,0.1799,0.3694,0.3687,0.278,0.1879,0.1879,0.3673,0.5657,0.6844,0.6195,0.546,0.546,0.546,0.546,0.546,0.546,0.546,0.5455,0.6373,0.6649,0.5552,0.5458,0.5919,0.7042,0.3853,0.1341,0.009,0.0,0.0987,0.3325,0.5034,0.593,0.5922,0.5922,0.5922,0.5922,0.5473,0.4121,0.1879,0.1879,0.1879,-2.4821,-2.6126,-2.751,-2.8352,-2.9631,-3.0075,-2.7593,-2.7535,0.0,-2.3376,-2.2822,-2.2772,-2.2124,-2.2988,-2.3866,0.0,-2.6164,-2.7811,-2.7996,0.0,0.0,0.0,0.0,0.0,0.0,0.0,0.0,0.0,0.0,0.0,-2.0887,-1.8205,-1.6495,-1.625,-1.5112,-1.4108,-1.3302,-1.2348,-1.1337,-1.0269,-0.9414,-0.8815,-0.8464,-0.7521,-0.6815,-0.6361,-0.692,0.0,0.0,-0.1693,-0.268,-0.4848,-0.4848,-0.0268,0.5941,0.2694,0.0896,0.0,0.0,0.0,0.018,0.1168,0.0809,0.0,0.0,0.0,0.018,0.1258,0.1527,0.1437,0.0897,0.3507,0.6508,0.6949,0.5654,0.4378,0.4378,0.4376,0.4917,0.6732,0.7094,0.7091,0.7091,0.7091,0.7091,0.7091,0.7091,0.7088,0.7078,0.7078,0.7081,0.7091,0.7084,0.7091,0.7121,0.5104,0.2948,0.0897,0.0806,0.0805,0.0805,0.3212,0.4819,0.527,0.527,0.527,0.527,0.4645,0.4378,0.4378,0.4378,0.4378,-2.4033,-2.5841,-2.7428,-2.7931,-2.9088,-2.957,-2.7636,0.0,-2.6518,-2.3415,-2.2996,-2.2923,-2.2136,-2.1724,-2.2262,-2.453,0.0,-2.4768,0.0,0.0,0.0,0.0,0.0,0.0,0.0,0.0,0.0,0.0,0.0,0.0,-1.7624,-1.5561,-1.382,-1.2826,-1.1627,-1.1031,-1.095,-1.0773,-1.0173,-0.9065,-0.9358,-0.8668,-0.7258,-0.7183,-0.5913,-0.4018,-0.6207,0.0,0.0,0.4302,0.4752,0.2586,0.2586,0.3123,0.4111,0.5849,0.3678,0.0,0.0,0.0,0.0719,0.5041,0.3506,0.0,0.0,0.0,0.0898,0.5223,0.6406,0.5944,0.3846,0.3573,0.4472,0.6557,0.692,0.6739,0.6739,0.6818,0.6815,0.7084,0.7071,0.7058,0.7058,0.7058,0.7058,0.7058,0.7058,0.7058,0.7143,0.7143,0.7143,0.7058,0.7143,0.7064,0.7088,0.5633,0.4283,0.3303,0.3303,0.3303,0.3303,0.357,0.4736,0.6828,0.6917,0.6917,0.6917,0.6828,0.6739,0.6739,0.6739,0.6739,-2.3511,-2.45,-2.5438,-2.674,-2.7474,-2.7624,-2.6629,0.0,-2.5764,-2.3702,-2.3364,-2.3431,-2.3441,-2.2777,-2.258,-2.3677,0.0,0.0,-2.5409,0.0,0.0,0.0,0.0,0.0,0.0,0.0,0.0,0.0,0.0,0.0,-1.518,-1.3178,-1.1992,-1.1986,-1.0666,-1.0159,-1.0644,-0.9196,-0.8308,-0.7786,-0.7974,-0.6982,-0.4914,-0.3479,-0.2316,-0.1425,-0.0892,0.0,0.0,0.5744,0.656,0.5733,0.5733,0.573,0.5819,0.6745,0.5287,0.2854,0.2324,0.2147,0.2504,0.4389,0.4663,0.4034,0.2594,0.3138,0.4405,0.4844,0.6019,0.684,0.5919,0.573,0.5908,0.6907,0.7081,0.7071,0.7071,0.7068,0.7064,0.7064,0.7058,0.7139,0.7139,0.7139,0.7139,0.7139,0.7139,0.7139,0.7139,0.7139,0.7139,0.7139,0.7139,0.7061,0.7084,0.6539,0.6086,0.5733,0.5733,0.5733,0.5733,0.5727,0.6177,0.7091,0.7078,0.7071,0.7071,0.7071,0.7071,0.7071,0.7071,0.7071,-2.2945,-2.3522,-2.4119,-2.5758,-2.6184,-2.6171,0.0,0.0,-2.51,-2.3914,-2.3667,-2.3732,-2.3844,-2.3164,-2.2698,-2.3114,0.0,-2.377,-2.3096,-2.5087,0.0,0.0,0.0,0.0,0.0,0.0,0.0,0.0,0.0,0.0,-1.1807,-0.974,-0.941,-1.1369,-0.9016,-0.804,-0.852,-0.6903,-0.5733,-0.5006,-0.5008,-0.4107,-0.2493,-0.0,0.1425,0.2227,0.3927,0.0,0.0,0.6456,0.7094,0.7088,0.7088,0.7081,0.7078,0.7091,0.6453,0.5361,0.4828,0.4648,0.4648,0.4645,0.5733,0.6824,0.5092,0.5827,0.6754,0.5099,0.5816,0.7088,0.7088,0.7081,0.7074,0.7074,0.7064,0.7139,0.7139,0.7139,0.7139,0.7139,0.7139,0.7139,0.7139,0.7139,0.7139,0.7139,0.7139,0.7139,0.7139,0.7139,0.7139,0.7139,0.7139,0.7058,0.7074,0.7074,0.7078,0.7088,0.7088,0.7088,0.7088,0.7081,0.7074,0.7074,0.7061,0.7139,0.7139,0.7139,0.7139,0.7139,0.7139,0.7139,-2.2262,-2.3273,-2.3992,-2.5295,-2.5603,-2.5677,0.0,0.0,-2.4632,-2.3934,-2.386,-2.3649,-2.2789,-2.2173,-2.2169,-2.3226,-2.1919,0.0,-2.3127,-2.1255,0.0,0.0,0.0,0.0,0.0,0.0,0.0,0.0,0.0,0.0,-0.719,-0.4919,-0.5805,-1.045,-0.6077,-0.3659,-0.3659,-0.3659,-0.2404,-0.0089,-0.0089,-0.0089,0.0089,0.2493,0.483,0.0,0.0,0.0,0.0,0.7084,0.7071,0.7139,0.7139,0.7139,0.7143,0.7078,0.7084,0.7088,0.7098,0.7101,0.7101,0.7088,0.7094,0.7094,0.7061,0.7074,0.7101,0.7088,0.7071,0.7139,0.7139,0.7139,0.7139,0.7139,0.7139,0.7139,0.7139,0.7139,0.7139,0.7139,0.7139,0.7139,0.7139,0.7139,0.7139,0.7139,0.7139,0.7139,0.7139,0.7139,0.7139,0.7139,0.7139,0.7139,0.7139,0.7139,0.7139,0.7139,0.7139,0.7139,0.7139,0.7139,0.7139,0.7139,0.7139,0.7139,0.7139,0.7139,0.7139,0.7139,0.7139,0.7139,-2.129,-2.1715,-2.2304,-2.4178,-2.4266,-2.4235,-2.5503,-2.5024,-2.4268,-2.41,-2.4117,-2.4007,-2.3508,-2.1547,-1.9858,-1.9394,-1.729,0.0,0.0,0.0,0.0,0.0,0.0,0.0,0.0,0.0,0.0,0.0,0.0,0.0,-0.2227,-0.1512,-0.1777,-0.329,-0.1958,-0.0356,0.1336,0.1336,0.1692,0.2493,0.4107,0.4828,0.4914,0.5636,0.6361,0.0,0.0,0.0,0.0,0.7061,0.7058,0.7139,0.7139,0.7139,0.7143,0.7061,0.7061,0.7064,0.7068,0.7068,0.7068,0.7064,0.7064,0.7064,0.7143,0.7071,0.7088,0.7068,0.7058,0.7139,0.7139,0.7139,0.7139,0.7139,0.7139,0.7139,0.7139,0.7139,0.7139,0.7139,0.7139,0.7139,0.7139,0.7139,0.7139,0.7139,0.7139,0.7139,0.7139,0.7139,0.7139,0.7139,0.7139,0.7139,0.7139,0.7139,0.7139,0.7139,0.7139,0.7139,0.7139,0.7139,0.7139,0.7139,0.7139,0.7139,0.7139,0.7139,0.7139,0.7143,0.7248,0.7299,-2.095,-2.1087,-2.1534,-2.3697,-2.3709,-2.3645,-2.5404,0.0,-2.4373,-2.4521,-2.4496,-2.4313,-2.3716,-2.0877,-1.7882,-1.5536,-1.4439,-1.3779,0.0,0.0,0.0,0.0,0.0,0.0,0.0,0.0,0.0,0.0,0.0,0.0,0.2674,0.3558,0.3907,0.3549,0.3025,0.339,0.4919,0.5811,0.5808,0.4914,0.6982,0.7709,0.7084,0.7074,0.7071,0.0,0.0,0.0,0.0,0.7577,0.7753,0.7841,0.8273,0.8185,0.7753,0.7753,0.7489,0.7139,0.7139,0.7139,0.7139,0.7139,0.7139,0.7228,0.7665,0.7499,0.7071,0.7143,0.7139,0.7139,0.7139,0.7139,0.7139,0.7139,0.7139,0.7139,0.7139,0.7139,0.7139,0.7139,0.7139,0.7139,0.7139,0.7139,0.7139,0.7139,0.7139,0.7139,0.7139,0.7139,0.7139,0.7139,0.7139,0.7139,0.7139,0.7139,0.7139,0.7139,0.7139,0.7139,0.7139,0.7139,0.7139,0.7139,0.7139,0.7139,0.7139,0.72,0.7227,0.7231,0.7383,0.7458,0.0,-2.0766,-2.1567,-2.3678,-2.3738,-2.3733,-2.555,0.0,0.0,-2.4177,-2.3658,-2.2867,-2.1859,-1.8727,-1.5036,-1.1064,-1.1972,0.0,0.0,0.0,0.0,0.0,0.0,0.0,0.0,0.0,0.0,0.0,0.0,0.0,0.7276,0.9438,1.0323,0.9639,0.8151,0.7361,0.7361,0.9531,0.9433,0.7258,0.8756,0.8656,0.7139,0.7228,0.7228,0.0,0.0,0.0,0.0,0.854,0.9061,0.9148,1.0183,0.9923,0.9061,0.9061,0.8277,0.7312,0.7312,0.7312,0.7312,0.7312,0.7312,0.7577,0.8627,0.8017,0.7139,0.7139,0.7139,0.7139,0.7139,0.7139,0.7139,0.7139,0.7139,0.7139,0.7139,0.7139,0.7139,0.7139,0.7139,0.7139,0.7139,0.7139,0.7139,0.7139,0.7139,0.7139,0.7139,0.7139,0.7139,0.7139,0.7139,0.7139,0.7139,0.7139,0.7139,0.7139,0.7139,0.7139,0.7139,0.7139,0.7139,0.7139,0.7149,0.7156,0.7156,0.7312,0.7387,0.739,0.7543,0.7614,-1.2766,0.0,-2.1015,-2.2859,-2.3144,-2.3448,0.0,0.0,0.0,0.0,0.0,0.0,0.0,-0.409,-0.2111,-0.0044,0.108,0.1599,0.0,0.0,0.0,0.0,0.0,0.0,0.0,0.0,0.0,0.0,0.0,0.8832,1.0634,1.0594,1.0559,1.0371,0.9932,0.9758,0.9758,1.0299,0.9868,0.8464,0.8903,0.8372,0.7139,0.8017,0.8452,0.0,0.0,0.0,0.9831,1.0091,1.0183,1.0269,1.0524,1.0438,1.0183,1.0183,1.0005,0.9744,0.9744,0.9744,0.9744,0.9744,0.9744,0.9662,0.9061,0.8017,0.7139,0.7139,0.7139,0.7139,0.7139,0.7139,0.7139,0.7139,0.7139,0.7139,0.7139,0.7139,0.7139,0.7139,0.7139,0.7139,0.7139,0.7139,0.7139,0.7139,0.7139,0.7139,0.7139,0.7139,0.7139,0.7139,0.7139,0.7139,0.7139,0.7139,0.7139,0.7139,0.7139,0.7139,0.7139,0.7139,0.7139,0.7139,0.7255,0.7316,0.7319,0.7472,0.7546,0.755,0.7695,0.7763,-0.5732,-1.0668,-1.6137,-1.7529,-1.5226,-1.2978,-1.4395,0.0,0.0,0.0,0.0,0.0,0.0,0.0,0.0,0.8096,0.9675,0.0,0.0,0.0,0.0,0.0,0.0,0.0,0.0,0.0,0.0,0.0,0.0,1.089,1.1197,1.1826,1.2128,1.2128,1.3134,1.2711,1.0611,1.1128,1.0783,0.9666,1.0178,0.9831,0.8703,0.9405,0.9666,0.0,0.0,0.0,1.0611,1.1123,1.1381,1.1472,1.1997,1.1906,1.1381,1.1381,1.1042,1.0611,1.0611,1.0611,1.0697,1.1209,1.1037,1.0611,1.0524,0.9657,0.8619,0.8101,0.7492,0.7312,0.8444,0.836,0.8101,0.8619,0.8703,0.8532,0.8013,0.7929,0.7753,0.7228,0.7139,0.7139,0.7139,0.7139,0.7139,0.7139,0.7139,0.7316,0.7841,0.7929,0.8101,0.8615,0.8703,0.8703,0.8703,0.8703,0.8273,0.7139,0.7139,0.7139,0.7139,0.7139,0.7173,0.7244,0.7397,0.7478,0.7478,0.7624,0.7695,0.7699,0.7848,0.7916,0.1117,-0.3022,-0.7797,-0.979,-0.5365,-0.0786,-0.1761,0.0,0.0,0.0,0.0,0.0,0.0,0.0,0.0,0.0,0.0,0.0,0.0,0.0,0.0,0.0,0.0,0.0,0.0,0.0,0.0,0.0,0.0,1.2572,1.1707,1.3471,1.4483,1.4483,1.6167,1.5321,1.1621,1.2401,1.2145,1.0869,1.1975,1.1895,1.0611,1.0945,1.1037,1.0869,0.0,0.0,1.1214,1.2163,1.2589,1.2681,1.373,1.347,1.2589,1.2589,1.1986,1.1128,1.1128,1.1128,1.13,1.2242,1.1901,1.13,1.2066,1.1638,1.0697,0.9666,0.8536,0.8097,1.0091,0.9923,0.9405,1.0351,1.0611,1.0351,0.9405,0.9148,0.8803,0.7577,0.7489,0.7577,0.7401,0.7489,0.7661,0.7661,0.7661,0.8013,0.9061,0.9148,0.9492,1.0524,1.0611,1.0611,1.0611,1.0438,0.9589,0.7782,0.7503,0.7326,0.7173,0.7197,0.7272,0.7404,0.7553,0.7631,0.7634,0.7777,0.7845,0.7848,0.798,0.8038,0.8385,0.7519,0.499,-0.1738,-0.2039,-0.0885,-0.1732,0.0,0.0,0.0,0.0,0.0,0.0,0.0,0.0,0.0,0.0,0.0,0.0,0.0,0.0,0.0,0.0,0.0,0.0,0.0,0.0,0.0,0.0,1.633,1.6234,1.6577,1.683,1.683,1.6265,1.6018,1.6242,1.5516,1.4092,1.2066,1.3146,1.2638,1.0697,1.2632,1.2977,1.2072,0.0,1.3561,1.3561,1.3737,1.3822,1.3822,1.4004,1.3997,1.3822,1.3822,1.373,1.3561,1.3561,1.3561,1.3561,1.3737,1.3737,1.3385,1.2589,1.2157,1.198,1.1809,1.095,1.0178,1.0524,1.0438,1.0351,1.0524,1.0611,1.0524,1.0351,1.0351,1.0009,0.8886,0.9401,0.9749,0.8798,0.9405,1.0091,1.0091,1.0091,1.0091,1.0351,1.0351,1.0438,1.0611,1.0611,1.0611,1.0611,0.9753,0.9565,1.0435,0.9323,0.8259,0.742,0.7461,0.7539,0.7563,0.7706,0.778,0.778,0.7929,0.8004,0.8004,0.8028,0.8038,1.5083,1.4877,1.4021,1.1273,1.1562,1.2485,1.2296,0.0,0.0,0.0,0.0,0.0,0.0,0.0,0.0,0.0,0.0,0.0,0.0,0.0,0.0,0.0,0.0,0.0,0.0,0.0,0.0,0.0,0.0,0.0,1.8134,1.8638,1.8964,1.8964,1.8594,1.8292,1.823,1.7738,1.6659,1.4996,1.5493,1.4906,1.3406,1.442,1.4357,1.3379,0.0,1.4977,1.4977,1.4977,1.4977,1.4894,1.4334,1.4088,1.4088,1.4088,1.4088,1.4088,1.4088,1.4088,1.4088,1.4088,1.4088,1.3997,1.347,1.3288,1.3288,1.3288,1.1992,1.0869,1.2169,1.1992,1.1643,1.2345,1.2516,1.2339,1.1643,1.1552,1.1209,1.0009,1.0269,1.0438,0.9923,1.0265,1.0611,1.0611,1.0611,1.0778,1.1466,1.1552,1.1729,1.2431,1.2516,1.2576,1.2719,1.2203,1.1367,1.0225,1.0249,1.012,0.967,0.977,0.978,0.978,0.9962,1.0056,1.0056,1.0049,1.0092,1.0092,1.0092,1.0092,1.9434,1.9247,1.9292,2.0346,2.1757,2.3195,2.4428,0.0,0.0,0.0,0.0,0.0,0.0,0.0,0.0,0.0,0.0,0.0,0.0,0.0,0.0,0.0,0.0,0.0,0.0,0.0,0.0,0.0,0.0,0.0,1.9674,2.0343,2.0681,2.0459,2.0508,2.0294,1.9728,1.9492,1.8612,1.7342,1.7577,1.709,1.6108,1.6355,1.5869,1.4908,1.5703,1.6108,1.6108,1.6108,1.6108,1.6026,1.5144,1.4824,1.4824,1.4824,1.4657,1.4489,1.4489,1.4328,1.4088,1.4088,1.4088,1.4088,1.4088,1.425,1.4412,1.4166,1.3027,1.2145,1.373,1.3379,1.2942,1.3906,1.4088,1.3822,1.2942,1.2681,1.2419,1.1209,1.1214,1.1305,1.1042,1.1214,1.1391,1.1391,1.1391,1.1735,1.2595,1.2681,1.3118,1.3997,1.4148,1.4216,1.4239,1.4507,1.3456,1.0562,1.1074,1.1533,1.1533,1.166,1.1782,1.1782,1.1859,1.1945,1.1945,1.1945,1.1945,1.1945,1.1945,1.1945,1.9537,1.9484,1.9353,1.8974,1.9535,0.0,2.5012,2.5591,0.0,2.7441,0.0,0.0,0.0,0.0,0.0,0.0,0.0,0.0,0.0,0.0,0.0,0.0,0.0,0.0,0.0,0.0,0.0,0.0,0.0,0.0,2.1866,2.1866,2.1507,2.0634,2.0478,2.0834,2.18,2.0834,1.927,1.7334,1.839,1.831,1.7253,1.831,1.8149,1.7098,1.718,1.7172,1.7172,1.7172,1.7172,1.7172,1.709,1.7098,1.7098,1.7098,1.6437,1.5621,1.5621,1.4894,1.4088,1.4088,1.4088,1.4088,1.4088,1.4817,1.5379,1.4412,1.4727,1.5123,1.4328,1.3997,1.3997,1.4088,1.4088,1.4088,1.3997,1.3997,1.3646,1.2413,1.3118,1.347,1.2328,1.3118,1.3822,1.3822,1.3822,1.3913,1.3997,1.3997,1.3997,1.4088,1.4329,1.4158,1.3345,1.4526,1.4772,1.3455,1.2334,1.168,1.168,1.1804,1.1925,1.1925,1.194,1.1945,1.1945,1.1945,1.1945,1.1945,1.1945,1.1945,1.9091,1.9829,2.0405,1.9784,2.0333,0.0,0.0,2.7362,2.842,2.7861,0.0,0.0,0.0,0.0,0.0,0.0,0.0,0.0,0.0,0.0,0.0,0.0,0.0,0.0,0.0,0.0,0.0,0.0,0.0,0.0,2.4036,2.4399,2.4244,2.3379,2.2669,2.252,2.2925,2.252,2.1889,2.112,2.0353,1.9432,1.839,1.8798,1.839,1.7334,1.8069,1.839,1.839,1.839,1.839,1.831,1.7585,1.7342,1.7261,1.6519,1.6437,1.6601,1.5944,1.5869,1.6124,1.6124,1.6124,1.6124,1.6124,1.6363,1.6437,1.5379,1.5379,1.5455,1.4412,1.4088,1.4088,1.4088,1.4088,1.4088,1.4088,1.4088,1.3997,1.347,1.3822,1.3997,1.347,1.3822,1.4088,1.4088,1.4088,1.4088,1.4088,1.4088,1.4155,1.4335,1.4783,1.4922,1.4571,1.5212,1.547,1.4993,1.4508,1.4218,1.4218,1.4315,1.437,1.437,1.437,1.437,1.437,1.437,1.437,1.437,1.437,1.437,1.8832,1.9871,2.1015,0.0,0.0,0.0,2.6303,2.8534,2.9877,3.0003,0.0,0.0,0.0,0.0,0.0,0.0,0.0,0.0,0.0,0.0,0.0,0.0,0.0,0.0,0.0,0.0,0.0,0.0,0.0,0.0,0.0,2.6208,2.599,2.4552,2.4446,2.4218,2.3963,2.3963,2.3963,2.3963,2.1962,2.0682,1.9963,1.9668,1.9116,1.8381,1.9195,1.952,1.952,1.952,1.952,1.9441,1.863,1.8301,1.8221,1.7488,1.7488,1.7738,1.7009,1.7009,1.7342,1.7342,1.7342,1.7342,1.7342,1.7577,1.7577,1.6519,1.6437,1.6519,1.5387,1.4573,1.4088,1.4088,1.4088,1.4088,1.4088,1.4088,1.4088,1.4088,1.4088,1.4088,1.4088,1.4088,1.4088,1.4088,1.4088,1.4088,1.4088,1.4168,1.4369,1.4756,1.5157,1.5431,1.5524,1.5712,1.5832,1.5832,1.5832,1.5832,1.5832,1.5832,1.5832,1.5832,1.5832,1.5832,1.5832,1.5832,1.5832,1.5832,1.5832,1.5832,1.889,1.9583,2.0992,0.0,0.0,0.0,2.8203,2.8637,2.9446,3.4464,0.0,0.0,0.0,0.0,0.0,0.0,0.0,0.0,0.0,0.0,0.0,0.0,0.0,0.0,0.0,0.0,0.0,0.0,0.0,0.0,0.0,2.7076,2.6312,2.3649,2.532,2.5901,2.5004,2.5004,2.5004,2.5016,2.2999,2.2027,2.1952,2.1001,2.0566,2.0566,2.0566,2.0566,2.0566,2.0566,2.0566,2.0566,2.0566,2.0566,2.0566,2.0566,1.9923,1.9036,1.9036,1.831,1.7334,1.7334,1.7334,1.7334,1.7334,1.8149,1.8798,1.7666,1.8149,1.8718,1.7585,1.5718,1.4173,1.4088,1.4088,1.4088,1.4088,1.4088,1.4088,1.4088,1.4088,1.4088,1.4088,1.4088,1.4088,1.4088,1.4088,1.4088,1.4088,1.4349,1.475,1.5337,1.5398,1.5518,1.5805,1.5832,1.5832,1.5832,1.5832,1.5832,1.5832,1.5832,1.5832,1.5832,1.5832,1.5832,1.5832,1.5832,1.5832,1.5832,1.5832,1.5832,1.6742,1.9492,0.0,2.1151,0.0,0.0,0.0,3.0024,0.0,0.0,0.0,0.0,0.0,0.0,0.0,0.0,0.0,0.0,0.0,0.0,0.0,0.0,0.0,0.0,0.0,0.0,0.0,0.0,0.0,0.0,0.0,2.8996,2.8525,2.6531,2.7018,2.6921,2.6094,2.6025,2.6025,2.6025,2.4707,2.3368,2.1952,2.1001,2.0566,2.0566,2.0566,2.0566,2.0566,2.0566,2.0566,2.0566,2.0566,2.0566,2.0489,1.9756,1.9756,2.0001,1.9283,1.9274,1.959,1.959,1.959,1.959,1.959,1.9835,1.9923,1.8798,1.8718,1.8718,1.7585,1.6854,1.6124,1.5379,1.522,1.5061,1.425,1.4088,1.4088,1.4088,1.4088,1.4088,1.4088,1.4088,1.4088,1.4088,1.4088,1.4162,1.4362,1.483,1.5204,1.5378,1.5578,1.5732,1.5818,1.5832,1.5832,1.5832,1.5832,1.5832,1.5832,1.5832,1.5832,1.5832,1.5832,1.5832,1.5832,1.5832,1.5832,1.5832,1.5832,1.5832,1.8694,2.0969,0.0,2.3649,2.5796,2.8376,3.0774,0.0,0.0,0.0,0.0,0.0,0.0,0.0,0.0,0.0,0.0,0.0,0.0,0.0,0.0,0.0,0.0,0.0,0.0,0.0,0.0,0.0,0.0,0.0,0.0,3.0329,3.0011,2.8233,2.8556,2.8182,2.6973,2.6973,2.685,2.6465,2.5441,2.4337,2.3147,2.2188,2.1527,2.1155,2.0789,2.0566,2.0644,2.1001,2.0934,2.0644,2.1011,2.0934,2.0489,1.9844,2.0001,2.0489,1.9844,2.0079,2.0566,2.0566,2.0566,2.0566,2.0566,2.0566,2.0489,1.9844,1.9599,1.9441,1.8789,1.8621,1.8221,1.6675,1.6026,1.5538,1.4894,1.4412,1.425,1.465,1.4734,1.4734,1.4734,1.4734,1.4573,1.4166,1.4182,1.4402,1.4816,1.5177,1.5438,1.5558,1.5725,1.5832,1.5832,1.5832,1.5832,1.5832,1.5832,1.5832,1.5832,1.5832,1.5832,1.5832,1.5832,1.5832,1.5832,1.5832,1.5832,1.5832,1.5832,1.5832,2.2589,2.3135,0.0,2.8173,2.8637,0.0,3.2576,3.4683,3.5827,3.564,0.0,0.0,0.0,0.0,0.0,0.0,0.0,0.0,0.0,0.0,0.0,0.0,0.0,0.0,0.0,0.0,0.0,0.0,0.0,0.0,0.0,3.1087,3.0777,2.9192,2.9889,2.9442,2.7736,2.7802,2.7417,2.6589,2.5652,2.5288,2.5217,2.4036,2.2999,2.2103,2.1221,2.0867,2.0934,2.1811,2.1593,2.0934,2.1735,2.1517,2.0867,2.0634,2.0634,2.0712,2.0644,2.0566,2.0566,2.0566,2.0566,2.0566,2.0566,2.0566,2.0566,2.0566,2.0566,2.0566,2.0566,2.0566,2.0079,1.806,1.6764,1.5944,1.5861,1.5061,1.4657,1.5621,1.5869,1.5869,1.5869,1.5801,1.5347,1.4325,1.4495,1.496,1.5501,1.5602,1.5717,1.6075,1.592,1.5825,1.592,1.5825,1.5832,1.5832,1.5832,1.5832,1.5832,1.5832,1.5832,1.5832,1.5832,1.5832,1.5832,1.5832,1.5832,1.5832,1.5832,1.5832,1.9142,2.2462,0.0,0.0,2.9659,3.2422,3.3892,3.5028,3.5723,3.5621,3.4833,0.0,0.0,0.0,0.0,0.0,0.0,0.0,0.0,0.0,0.0,0.0,0.0,0.0,0.0,0.0,0.0,0.0,0.0,0.0,3.1219,3.1409,3.1029,3.0072,3.0208,2.9442,2.7736,2.8363,2.8298,0.0,2.7191,2.7124,2.7056,2.4577,2.3368,2.3147,2.2925,2.2861,2.285,2.3073,2.3073,2.2861,2.2253,2.2328,2.2713,2.1155,2.1088,2.1593,2.0867,2.0566,2.0566,2.0566,2.0566,2.0566,2.0566,2.0566,2.0566,2.0566,2.0566,2.0566,2.0566,2.0566,2.0479,2.0001,1.9107,1.806,1.7172,1.6764,1.669,1.6927,1.6927,1.6927,1.6927,1.6407,1.5755,1.4913,1.5796,1.6652,1.6791,1.7047,1.7602,1.8572,1.6929,1.6197,1.7225,1.6386,1.5832,1.5832,1.5832,1.5832,1.5832,1.5832,1.5832,1.5832,1.5832,1.5832,1.5832,1.5832,1.5832,1.5832,1.5832,1.5832,2.1164,0.0,0.0,2.8396,0.0,3.3555,3.4319,3.512,3.5667,3.5566,0.0,0.0,0.0,0.0,0.0,0.0,0.0,0.0,0.0,0.0,0.0,0.0,0.0,0.0,0.0,0.0,0.0,0.0,0.0,3.1482,3.1482,3.1482,3.1278,3.0896,3.0896,3.0269,2.8939,2.938,2.9192,2.8298,2.8298,2.8298,2.8233,2.5496,2.4192,2.4192,2.3745,2.3514,2.3526,2.4036,2.3963,2.3514,2.3441,2.3441,2.3294,2.1821,2.1593,2.1886,2.0934,2.0566,2.0566,2.0566,2.0566,2.0566,2.0566,2.0566,2.0566,2.0566,2.0566,2.0566,2.0566,2.0566,2.0566,2.0566,1.9766,1.8877,1.823,1.7666,1.7496,1.7989,1.8149,1.821,1.8383,1.7803,1.7219,1.6966,1.7594,1.8116,1.8281,1.847,1.8772,1.9397,1.7855,1.6943,1.7591,1.6574,1.5832,1.5832,1.5832,1.5832,1.5832,1.5832,1.5832,1.5832,1.5832,1.5832,1.5832,1.5832,1.5832,1.5832,1.5832,1.5832,2.3663,0.0,2.5053,3.0729,3.2887,0.0,3.4547,3.5217,3.5635,3.5397,0.0,0.0,0.0,0.0,0.0,0.0,0.0,0.0,0.0,0.0,0.0,0.0,0.0,0.0,0.0,0.0,0.0,0.0,0.0,3.1697,3.1697,3.1582,3.1482,3.1482,3.1482,3.1087,3.0329,3.045,3.0072,2.9192,2.9192,2.9129,2.8925,2.6544,2.5487,2.5417,2.4469,2.4036,2.4097,2.4933,2.4779,2.4108,2.4707,2.4636,2.3879,2.2691,2.2403,2.2403,2.1451,2.1078,2.1078,2.1078,2.1011,2.0867,2.0867,2.0712,2.0566,2.0566,2.0566,2.0566,2.0566,2.0566,2.0566,2.0566,1.9923,1.9283,1.9283,1.855,1.8141,1.9116,1.9338,1.9451,1.9743,1.9329,1.8978,1.9179,1.9318,1.9605,1.9819,1.9852,1.9852,2.0133,1.8864,1.8141,1.8319,1.7117,1.6473,1.6473,1.6473,1.6473,1.6473,1.6473,1.6386,1.6109,1.592,1.5832,1.5832,1.5832,1.5832,1.5832,1.5832,1.5832,2.0109,0.0,2.8594,0.0,3.384,3.4703,0.0,0.0,3.5533,0.0,0.0,0.0,0.0,0.0,0.0,0.0,0.0,0.0,0.0,0.0,0.0,0.0,0.0,0.0,0.0,0.0,0.0,0.0,3.313,3.2437,3.2437,3.1853,3.1482,3.1482,3.1482,3.1087,3.0329,3.097,3.0896,3.0133,3.0133,2.9752,2.8939,2.7841,2.7324,2.7258,2.6483,2.6094,2.6082,2.6233,2.6233,2.6025,2.53,2.5441,2.5861,2.3952,2.3818,2.448,2.3441,2.3073,2.3073,2.3073,2.2553,2.1811,2.1811,2.1231,2.0566,2.0566,2.0566,2.0566,2.0566,2.0566,2.0566,2.0566,2.0479,2.0401,2.0401,2.0245,2.0235,2.0323,2.0632,2.0809,2.0607,2.0512,2.0246,1.9545,2.0318,2.1051,2.1016,2.1025,2.148,2.2501,2.0584,1.967,2.0747,1.967,1.9039,1.9039,1.9039,1.9039,1.9039,1.9039,1.8495,1.7505,1.6386,1.5832,1.5832,1.5832,1.5832,1.5832,1.5832,1.5832,2.2542,2.5981,2.9535,0.0,3.4368,3.4879,3.5546,0.0,3.5599,0.0,0.0,0.0,0.0,0.0,0.0,0.0,0.0,0.0,0.0,0.0,0.0,0.0,0.0,0.0,0.0,0.0,0.0,0.0,3.2924,3.2586,3.2586,3.2272,3.191,3.1524,3.1894,3.1766,3.097,3.1351,3.1351,3.097,3.097,3.0777,3.0389,2.9566,2.862,2.767,2.7351,2.6905,2.6521,2.6973,2.6905,2.6452,2.6025,2.6094,2.6314,2.485,2.4636,2.4862,2.3818,2.3514,2.3514,2.3514,2.322,2.285,2.285,2.2563,2.2124,2.1517,2.1375,2.1221,2.0712,2.0566,2.0566,2.0566,2.0566,2.0566,2.0566,2.0566,2.0635,2.0889,2.1484,2.1894,2.1731,2.1891,2.1923,2.156,2.1943,2.2306,2.2306,2.2306,2.2492,2.3047,2.1578,2.0755,2.1293,2.0215,1.9497,1.9497,1.9497,1.9497,1.9497,1.9497,1.9222,1.868,1.749,1.648,1.5832,1.5832,1.5832,1.5832,1.5832,1.5832,2.4542,2.7055,2.9316,3.2968,3.4179,3.4703,0.0,0.0,3.5643,0.0,0.0,0.0,0.0,0.0,0.0,0.0,0.0,0.0,0.0,0.0,0.0,0.0,0.0,0.0,0.0,0.0,0.0,0.0,3.2902,3.2903,3.3077,3.2949,3.2532,3.1796,3.2327,3.2272,3.1539,3.1482,3.1482,3.1482,3.1482,3.1482,3.1467,3.0644,2.9566,2.8363,2.8117,2.7537,2.685,2.7484,2.7351,2.6782,2.6589,2.6589,2.6714,2.5721,2.537,2.5288,2.4541,2.4253,2.4253,2.4253,2.4108,2.3891,2.3891,2.3661,2.3368,2.2627,2.2178,2.1811,2.1155,2.0789,2.0566,2.0566,2.0566,2.0596,2.0713,2.0732,2.0898,2.1455,2.208,2.2549,2.2656,2.293,2.3135,2.3135,2.3135,2.3135,2.3135,2.3135,2.3135,2.3135,2.2306,2.1756,2.1756,2.0944,2.0404,2.0404,2.0404,2.0404,2.0404,2.0404,2.0305,1.9943,1.9039,1.8041,1.6749,1.6749,1.6749,1.6749,1.6749,1.6567,2.3327,2.5614,2.8185,3.1118,3.2894,3.4243,0.0,0.0,0.0,0.0,0.0,0.0,0.0,0.0,0.0,0.0,0.0,0.0,0.0,0.0,0.0,0.0,0.0,0.0,0.0,0.0,0.0,0.0,3.3802,3.3773,3.4446,3.3887,3.3235,3.2532,3.2602,3.2272,3.1539,3.1482,3.1482,3.1482,3.1482,3.1482,3.1467,3.0644,3.0269,3.0133,2.9317,2.8427,2.767,2.767,2.767,2.7537,2.6782,2.6973,2.7537,2.6714,2.6383,2.6383,2.6383,2.6314,2.6314,2.6314,2.5734,2.4933,2.4933,2.4264,2.3514,2.3441,2.2776,2.1952,2.1952,2.1298,2.0566,2.0566,2.0566,2.0684,2.1103,2.1201,2.1445,2.2285,2.248,2.2637,2.3037,2.3125,2.3135,2.3135,2.3135,2.3135,2.3135,2.3135,2.3135,2.3135,2.3047,2.3047,2.3047,2.296,2.2872,2.2872,2.2872,2.2872,2.2872,2.2872,2.2403,2.1203,2.1114,2.0486,1.9314,1.9314,1.9314,1.9314,1.9314,1.868,2.6656,2.7599,2.8566,3.1603,3.325,3.4251,3.4649,3.5235,0.0,0.0,0.0,0.0,0.0,0.0,0.0,0.0,0.0,0.0,0.0,0.0,0.0,0.0,0.0,0.0,0.0,0.0,0.0,0.0,0.0,3.3113,3.3867,3.3663,3.3435,3.3235,3.3633,3.3323,3.2216,3.1754,3.1482,3.1482,3.1482,3.1482,3.1482,3.1219,3.1087,3.1029,3.0718,2.9827,2.8556,2.9129,2.9066,2.8427,2.7604,2.7484,2.7604,2.6782,2.6533,2.6533,2.6533,2.6533,2.6533,2.6533,2.6245,2.5943,2.5943,2.5721,2.5276,2.4624,2.4192,2.3745,2.3147,2.2702,2.2563,2.2863,2.2938,2.2998,2.3072,2.2529,2.2148,2.2451,2.2734,2.2959,2.3115,2.3135,2.3135,2.3135,2.3135,2.3135,2.3135,2.3135,2.3135,2.3135,2.3135,2.3135,2.3135,2.3135,2.3135,2.3135,2.3135,2.3135,2.3135,2.3135,2.2862,2.2492,2.2492,2.1489,1.9497,1.9497,1.9497,1.9497,1.9497,1.9314,2.796,2.8427,2.8889,3.1117,3.2394,3.3304,3.4001,0.0,0.0,0.0,0.0,0.0,0.0,0.0,0.0,0.0,0.0,0.0,0.0,0.0,0.0,0.0,0.0,0.0,0.0,0.0,0.0,0.0,0.0,0.0,3.3416,3.3682,3.3851,3.3905,3.3937,3.3495,3.2602,3.1853,3.1482,3.1482,3.1482,3.1482,3.1482,3.1482,3.1482,3.1482,3.1482,3.0703,2.9504,3.0072,2.995,2.938,2.8492,2.8298,2.8427,2.7284,2.6905,2.685,2.6589,2.6533,2.6533,2.6533,2.6533,2.6533,2.6533,2.6533,2.6383,2.5664,2.5229,2.4862,2.4192,2.3869,2.385,2.4251,2.4271,2.4379,2.4713,2.3888,2.3038,2.2781,2.2949,2.3135,2.3135,2.3135,2.3135,2.3135,2.3135,2.3135,2.3135,2.3135,2.3135,2.3135,2.3135,2.3135,2.3135,2.3135,2.3135,2.3135,2.3135,2.3135,2.3135,2.3135,2.3135,2.3135,2.3135,2.2315,2.0674,2.0674,2.0674,2.0674,2.0674,2.0494,0.0,0.0,0.0,2.9483,3.0219,3.1363,3.3508,0.0,3.4455,0.0,0.0,0.0,0.0,0.0,0.0,0.0,0.0,0.0,0.0,0.0,0.0,0.0,0.0,0.0,0.0,0.0,0.0,0.0,3.2542,3.2577,3.3339,3.4083,3.4527,3.4607,3.3339,3.2641,3.2641,3.1894,3.1524,3.1524,3.1524,3.1524,3.1524,3.1539,3.1482,3.1482,3.1482,3.1087,3.0329,3.0329,3.0329,3.0269,2.938,2.9566,3.0072,2.8363,2.7736,2.7604,2.685,2.6589,2.6589,2.6521,2.6521,2.6521,2.6533,2.6533,2.6533,2.6533,2.5804,2.5087,2.5028,2.4719,2.4416,2.4438,2.4399,2.4609,2.5663,2.5028,2.4106,2.3308,2.3135,2.3135,2.3144,2.3135,2.3135,2.3135,2.3135,2.3135,2.3135,2.3135,2.3135,2.3135,2.3135,2.3135,2.3135,2.3135,2.3135,2.3135,2.3135,2.3135,2.3135,2.3135,2.3135,2.3135,2.3135,2.3135,2.3135,2.3135,2.3135,2.3135,2.3135,2.2492,2.8452,0.0,0.0,0.0,0.0,0.0,3.1718,3.3041,3.4206,0.0,0.0,0.0,0.0,0.0,0.0,0.0,0.0,0.0,0.0,0.0,0.0,0.0,0.0,0.0,0.0,0.0,0.0,0.0,3.1574,3.1816,3.2544,3.3795,3.4739,3.5283,3.4496,3.3836,3.3339,3.313,3.2772,3.2272,3.2272,3.2272,3.2272,3.1739,3.1482,3.1482,3.1482,3.1351,3.1161,3.1161,3.1161,3.1087,3.0269,3.0072,3.0147,2.9066,2.862,2.862,2.8363,2.8298,2.8182,2.7537,2.7351,2.7297,2.6658,2.6533,2.6533,2.6533,2.6314,2.6181,2.6578,2.6562,2.6651,2.7419,2.7593,2.7586,2.747,2.722,2.6526,2.4681,2.4296,2.4049,2.3222,2.3135,2.3135,2.3135,2.3135,2.3135,2.3135,2.3135,2.3135,2.3135,2.3135,2.3135,2.3135,2.3135,2.3135,2.3135,2.3135,2.3135,2.3135,2.3135,2.3135,2.3135,2.3135,2.3135,2.3135,2.3135,2.3135,2.3135,2.3135,2.295,0.0,0.0,0.0,2.9453,0.0,0.0,3.1444,3.2576,3.372,0.0,0.0,0.0,0.0,0.0,0.0,0.0,0.0,0.0,0.0,0.0,0.0,0.0,0.0,0.0,0.0,3.2903,3.2583,3.2092,3.186,3.1984,3.2564,3.3515,3.4387,3.5131,3.4792,3.4431,3.4037,3.3735,3.3391,3.2986,3.2749,3.2586,3.2602,3.216,3.1796,3.1539,3.1853,3.1796,3.1482,3.1482,3.1482,3.1467,3.097,3.0777,3.0703,2.9827,2.9566,2.9504,2.9129,2.9002,2.8876,2.7986,2.767,2.7537,2.6714,2.6533,2.6533,2.6533,2.6697,2.6879,2.7205,2.762,2.8134,2.8775,2.8696,2.8623,2.8785,2.8426,2.7602,2.588,2.5126,2.4628,2.3877,2.38,2.38,2.38,2.38,2.38,2.38,2.3387,2.3135,2.3135,2.3135,2.3135,2.3135,2.3135,2.3135,2.3135,2.3135,2.3135,2.3135,2.3135,2.3135,2.3135,2.3135,2.3135,2.3135,2.3135,2.3135,2.3135,2.3135,2.3135,0.0,0.0,0.0,0.0,2.957,0.0,3.1794,3.232,3.2938,3.4728,0.0,0.0,0.0,0.0,0.0,0.0,0.0,0.0,0.0,0.0,0.0,0.0,0.0,0.0,3.3734,3.339,3.3184,3.3124,3.2681,3.2599,3.2968,3.3185,3.3643,3.4472,3.4568,3.4589,3.4576,3.4087,3.3786,3.3684,3.3093,3.2841,3.2841,3.2734,3.2327,3.164,3.2327,3.216,3.1482,3.1482,3.1482,3.1482,3.1482,3.1482,3.1409,3.0703,3.045,3.0329,2.9566,2.9254,2.9129,2.8233,2.7986,2.7802,2.6905,2.6658,2.6602,2.6596,2.6904,2.7306,2.7431,2.8197,2.895,2.9001,2.866,2.8597,2.9611,2.9028,2.8016,2.7058,2.5964,2.5115,2.5041,2.4957,2.4957,2.4957,2.4872,2.4787,2.4787,2.3877,2.3222,2.3135,2.3309,2.3387,2.3299,2.3387,2.3387,2.3299,2.3309,2.3222,2.3144,2.3135,2.3135,2.3135,2.3135,2.3135,2.3135,2.3135,2.3135,2.3135,2.3135,2.3135,0.0,0.0,0.0,0.0,0.0,0.0,3.0149,3.0845,3.1485,0.0,3.2531,0.0,0.0,0.0,0.0,0.0,0.0,0.0,0.0,0.0,0.0,0.0,0.0,0.0,3.3332,3.3243,3.3045,3.2648,3.2196,3.2244,3.2968,3.2673,3.3102,3.4455,3.4536,3.4543,3.4576,3.5005,3.4958,3.4382,3.4284,3.4186,3.4186,3.3633,3.3039,3.2382,3.2547,3.216,3.1482,3.1482,3.1482,3.1482,3.1482,3.1482,3.1467,3.1351,3.1278,3.1219,3.1087,3.1029,3.0896,3.0072,2.9766,2.9504,2.792,2.7484,2.7455,2.7189,2.7205,2.7494,2.8373,2.8762,2.9051,2.9515,2.9537,2.9534,2.9792,2.9624,2.9378,2.9209,2.8267,2.7186,2.6307,2.6141,2.6141,2.6141,2.5378,2.4787,2.4787,2.4628,2.4125,2.3222,2.4723,2.5473,2.4542,2.5305,2.5473,2.4542,2.4457,2.4049,2.3135,2.3135,2.3135,2.3135,2.3135,2.3135,2.3135,2.3135,2.3135,2.3135,2.3135,2.3135,0.0,0.0,0.0,2.9717,0.0,0.0,0.0,3.0779,3.1257,3.1665,3.2143,3.2504,3.2488,0.0,0.0,0.0,0.0,0.0,0.0,0.0,0.0,0.0,0.0,0.0,3.3522,3.3494,3.339,3.3166,3.2533,3.2319,3.2721,3.2471,3.2797,3.3914,3.4303,3.4695,3.5081,3.5424,3.5424,3.5098,3.4736,3.4576,3.4576,3.4235,3.3531,3.2641,3.2933,3.2461,3.1482,3.1482,3.1482,3.1482,3.1482,3.1482,3.1482,3.1482,3.1482,3.1482,3.1482,3.1482,3.1351,3.0584,3.0329,2.995,2.8247,2.7613,2.7447,2.7334,2.7682,2.8235,2.8787,2.9139,2.9428,2.9729,2.9792,2.9792,2.9792,2.9792,2.9792,2.9792,2.9365,2.8609,2.7452,2.7279,2.7279,2.7279,2.6778,2.6438,2.6438,2.5953,2.5473,2.4893,2.5808,2.6307,2.5714,2.6446,2.6674,2.6073,2.5689,2.5567,2.5577,2.4375,2.3779,2.3779,2.3779,2.3779,2.3779,2.3779,2.3555,2.3135,2.3135,2.3135,0.0,0.0,0.0,0.0,0.0,3.0204,0.0,0.0,0.0,3.2026,0.0,0.0,0.0,0.0,0.0,0.0,0.0,0.0,0.0,0.0,0.0,0.0,0.0,0.0,0.0,3.3515,3.357,3.3788,3.2883,3.2391,3.2616,3.2468,3.2701,3.3498,3.4092,3.4779,3.5605,3.5622,3.5622,3.5577,3.5052,3.4783,3.4783,3.4783,3.4037,3.2841,3.3391,3.2864,3.1697,3.1582,3.1582,3.1697,3.1582,3.1482,3.1482,3.1482,3.1482,3.1482,3.1482,3.1482,3.1409,3.0718,3.045,3.0011,2.862,2.8011,2.7831,2.7934,2.8571,2.9238,2.9339,2.958,2.9792,2.9792,2.9792,2.9792,2.9792,2.9792,2.9792,2.9792,2.9792,2.9534,2.8597,2.8426,2.8426,2.8426,2.8255,2.8096,2.8096,2.736,2.6719,2.6554,2.6974,2.7195,2.6948,2.7653,2.8035,2.777,2.7282,2.7316,2.8026,2.5913,2.4772,2.4772,2.4496,2.4506,2.4772,2.4772,2.4275,2.3262,2.3262,2.3223,0.0,0.0,0.0,0.0,3.0337,0.0,0.0,0.0,3.0883,3.0977,0.0,2.9832,0.0,0.0,0.0,0.0,0.0,0.0,0.0,0.0,0.0,0.0,0.0,0.0,0.0,3.2401,3.2794,3.3725,3.2439,3.2045,3.3069,3.2705,3.2949,3.3995,3.4093,3.4631,3.5605,3.5622,3.5622,3.5622,3.5515,3.547,3.547,3.547,3.4752,3.3479,3.3598,3.3182,3.2437,3.1796,3.191,3.2437,3.1739,3.1482,3.1482,3.1482,3.1482,3.1482,3.1482,3.1482,3.1467,3.1409,3.0896,3.0269,3.0072,2.9862,2.9813,3.0281,3.0314,3.0335,3.0821,3.0367,2.9792,2.9792,2.9792,2.9792,2.9792,2.9792,2.9792,2.9792,2.9792,2.9792,2.9624,2.9624,2.9624,2.9624,2.8767,2.8096,2.8096,2.8004,2.7522,2.6637,2.871,2.9751,2.8703,3.0041,3.0523,2.9594,2.9473,2.8986,2.8113,2.6797,2.6083,2.6083,2.4945,2.4945,2.6083,2.6083,2.5306,2.3721,2.3721,2.3506,0.0,0.0,0.0,0.0,0.0,0.0,3.1619,0.0,3.1406,0.0,0.0,0.0,0.0,0.0,0.0,0.0,3.1948,0.0,0.0,0.0,0.0,0.0,0.0,0.0,0.0,0.0,0.0,0.0,3.3121,3.285,3.3196,3.2745,3.2792,3.3453,3.39,3.4363,3.4962,3.5402,3.5622,3.5622,3.5622,3.5622,3.5622,3.5622,3.5052,3.4186,3.4186,3.3582,3.2602,3.2287,3.2064,3.1951,3.164,3.1482,3.1482,3.1482,3.1482,3.1482,3.1482,3.1482,3.1482,3.1482,3.097,3.0401,3.0747,3.0637,3.0616,3.1225,3.1486,3.1734,3.1965,3.1683,3.1267,3.0771,3.062,3.0482,2.9934,2.9792,2.9792,2.9792,2.9792,2.9792,2.9792,2.9792,2.9792,2.9792,2.9365,2.9106,2.9106,2.9376,2.9413,2.8919,3.0226,3.0885,3.036,3.129,3.1685,3.1255,3.1478,3.0853,2.897,2.9048,2.8768,2.8149,2.7613,2.7522,2.8058,2.8058,2.7648,2.6657,2.5678,2.4746,3.0767,0.0,0.0,0.0,0.0,0.0,0.0,0.0,0.0,0.0,0.0,0.0,0.0,0.0,0.0,0.0,0.0,3.2655,0.0,3.185,0.0,0.0,0.0,0.0,0.0,0.0,0.0,3.3643,3.3387,3.325,3.3343,3.3027,3.3004,3.3371,3.3958,3.4414,3.4687,3.5277,3.5622,3.5622,3.5622,3.5622,3.5622,3.5622,3.5253,3.4576,3.4576,3.4037,3.3145,3.2949,3.268,3.2351,3.2145,3.1951,3.1796,3.1582,3.1482,3.1482,3.1482,3.1482,3.1482,3.1482,3.1205,3.0979,3.1416,3.1688,3.1881,3.2401,3.2762,3.2961,3.2961,3.282,3.2464,3.1742,3.1609,3.1402,3.0709,3.057,3.0495,3.0203,3.0216,3.0075,2.9856,2.9792,2.9792,2.9792,2.993,3.0018,3.0018,3.0495,3.0834,3.0834,3.1298,3.1612,3.1612,3.2127,3.2453,3.2453,3.2842,3.2251,3.0496,3.0956,3.0765,2.9954,2.959,2.959,2.9852,2.9852,2.9772,2.9406,2.7385,2.5947,0.0,0.0,0.0,3.2359,0.0,0.0,0.0,0.0,3.3362,0.0,0.0,0.0,0.0,0.0,0.0,0.0,0.0,0.0,0.0,0.0,3.0631,2.9764,0.0,0.0,0.0,0.0,3.1588,3.3194,3.2643,3.2693,3.3725,3.378,3.3915,3.4245,3.4532,3.4861,3.5175,3.5436,3.5622,3.5622,3.5622,3.5622,3.5622,3.5622,3.5253,3.4576,3.4576,3.4592,3.4479,3.3836,3.3937,3.4431,3.3786,3.3145,3.2492,3.1739,3.1482,3.1482,3.1482,3.1482,3.1482,3.1482,3.19,3.2422,3.2437,3.3348,3.4379,3.4394,3.4178,3.3959,3.3959,3.331,3.2593,3.2522,3.2522,3.2522,3.2536,3.2536,3.2249,3.1315,3.118,3.0833,2.9934,2.9792,2.9792,2.9792,3.0244,3.0583,3.0583,3.1047,3.1361,3.1361,3.1851,3.219,3.219,3.2717,3.3056,3.3056,3.3068,3.3081,3.2982,3.1865,3.1211,3.1122,3.0045,2.9943,3.1122,3.1122,3.1122,3.1086,2.8247,2.6613,0.0,0.0,3.3574,3.3316,0.0,0.0,0.0,0.0,0.0,0.0,0.0,0.0,0.0,0.0,0.0,0.0,0.0,0.0,0.0,0.0,2.9853,2.9556,2.9547,3.0068,0.0,0.0,0.0,3.3372,3.3495,3.3596,3.3788,3.3807,3.3575,3.3137,3.4128,3.4466,3.3997,3.5084,3.5622,3.5622,3.5622,3.5622,3.5622,3.5622,3.547,3.5253,3.5253,3.5005,3.4576,3.4333,3.4137,3.3937,3.3684,3.3182,3.2586,3.2327,3.191,3.1482,3.1482,3.1482,3.1541,3.2033,3.2332,3.2677,3.3544,3.4128,3.4562,3.5026,3.51,3.4986,3.4986,3.4773,3.4341,3.3671,3.3518,3.338,3.2749,3.2593,3.2536,3.2177,3.1609,3.1106,3.0758,3.0522,3.0331,3.0331,3.0495,3.0733,3.1085,3.1599,3.1938,3.1938,3.2441,3.278,3.278,3.2968,3.3081,3.3081,3.3081,3.3081,3.3081,3.2698,3.2426,3.2426,3.2064,3.2064,3.2426,3.2426,3.2426,3.2413,3.0589,2.924,3.3651,3.414,0.0,3.4371,3.4846,0.0,3.4952,0.0,0.0,0.0,0.0,0.0,0.0,0.0,0.0,0.0,0.0,0.0,0.0,3.0905,3.0109,2.9543,2.9231,2.9589,0.0,3.1583,3.2356,3.3354,3.3707,3.3865,0.0,0.0,3.3532,3.2965,3.4089,3.4438,3.3854,3.5018,3.5622,3.5622,3.5622,3.5622,3.5622,3.5622,3.5622,3.5622,3.5622,3.5362,3.4941,3.4941,3.4688,3.4301,3.4301,3.3751,3.2949,3.2695,3.212,3.1482,3.1482,3.1689,3.1958,3.2377,3.2826,3.3365,3.4218,3.4651,3.4936,3.5385,3.5504,3.5504,3.5504,3.5504,3.5359,3.4691,3.4543,3.4394,3.3754,3.3616,3.3547,3.3171,3.2773,3.2418,3.2125,3.2061,3.1733,3.0712,3.0934,3.1311,3.1637,3.2164,3.2516,3.2516,3.2855,3.3081,3.3081,3.3081,3.3081,3.3081,3.3081,3.3081,3.3081,3.3081,3.3081,3.3081,3.3081,3.3081,3.3081,3.3081,3.3081,3.3068,3.2239,3.1412]}]]